[[{"header":{"parameterUnit":"m.s-1","parameterCategory":1,"la1":30.6,"la2":29.2853,"lo1":-89.7004,"lo2":-87.6739,"dy":0.0162,"dx":0.0183,"nx":112,"ny":82,"refTime":"2023-09-21T18:00:00:Z","depth":0,"parameterNumber":2,"parameterNumberName":"U-component_of_WINDS"},"data":[0.0,0.0,0.0,0.0,0.0,0.0,0.0,0.0,0.0,0.0,0.0,0.0,0.0,0.0,0.0,0.0,0.0,0.0,0.0,0.0,0.0,0.0,0.0,0.0,0.0,0.0,0.0,0.0,0.0,0.0,0.0,0.0,0.0,0.0,0.0,0.0,0.0,0.0,0.0,0.0,0.0,0.0,0.0,0.0,0.0,0.0,0.0,0.0,0.0,0.0,0.0,0.0,0.0,0.0,0.0,0.0,0.0,0.0,0.0,0.0,0.0,0.0,0.0,0.0,0.0,0.0,0.0,0.0,0.0,0.0,0.0,0.0,0.0,0.0,0.0,0.0,0.0,0.0,0.0,0.0,0.0,0.0,0.0,0.0,0.0,0.0,0.0,0.0,0.0,0.0,0.0,-1.4395,-1.4965,-1.5196,-1.4973,-1.4097,-1.2985,-1.1727,0.0,0.0,0.0,0.0,0.0,0.0,0.0,0.0,0.0,0.0,0.0,0.0,0.0,0.0,0.0,0.0,0.0,0.0,0.0,0.0,0.0,0.0,0.0,0.0,0.0,0.0,0.0,0.0,0.0,0.0,0.0,0.0,0.0,0.0,0.0,0.0,0.0,0.0,0.0,0.0,0.0,0.0,0.0,0.0,0.0,0.0,0.0,0.0,0.0,0.0,0.0,0.0,0.0,0.0,0.0,0.0,0.0,0.0,0.0,0.0,0.0,0.0,0.0,0.0,0.0,0.0,0.0,0.0,0.0,0.0,0.0,0.0,0.0,0.0,0.0,0.0,0.0,0.0,0.0,0.0,0.0,0.0,0.0,0.0,0.0,0.0,0.0,0.0,0.0,0.0,0.0,0.0,0.0,0.0,0.0,0.0,0.0,0.0,0.0,0.0,0.0,0.0,0.0,0.0,-1.5057,-1.6635,-1.688,-1.6865,-1.6668,-1.5677,-1.4644,-1.3729,0.0,0.0,0.0,0.0,0.0,0.0,0.0,0.0,0.0,0.0,0.0,0.0,0.0,0.0,0.0,0.0,0.0,0.0,0.0,0.0,0.0,0.0,0.0,0.0,0.0,0.0,0.0,0.0,0.0,0.0,0.0,0.0,0.0,0.0,0.0,0.0,0.0,0.0,0.0,0.0,0.0,0.0,0.0,0.0,0.0,0.0,0.0,0.0,0.0,0.0,0.0,0.0,0.0,0.0,0.0,0.0,0.0,0.0,0.0,0.0,0.0,0.0,0.0,0.0,0.0,0.0,0.0,0.0,0.0,0.0,0.0,0.0,0.0,0.0,0.0,0.0,0.0,0.0,0.0,0.0,0.0,0.0,0.0,0.0,0.0,0.0,0.0,0.0,0.0,0.0,0.0,0.0,0.0,0.0,0.0,0.0,0.0,0.0,0.0,0.0,0.0,0.0,0.0,-1.5296,-1.6652,-1.7983,-1.8027,-1.7986,-1.8142,-1.7171,-1.6134,-1.5182,-1.3362,0.0,0.0,0.0,0.0,0.0,0.0,0.0,0.0,0.0,0.0,0.0,0.0,0.0,0.0,0.0,0.0,0.0,0.0,0.0,0.0,0.0,0.0,0.0,0.0,0.0,0.0,0.0,0.0,0.0,0.0,0.0,0.0,0.0,0.0,0.0,0.0,0.0,0.0,0.0,0.0,0.0,0.0,0.0,0.0,0.0,0.0,0.0,0.0,0.0,0.0,0.0,0.0,0.0,0.0,0.0,0.0,0.0,0.0,0.0,0.0,0.0,0.0,0.0,0.0,0.0,0.0,0.0,0.0,0.0,0.0,0.0,0.0,0.0,0.0,0.0,0.0,0.0,0.0,0.0,0.0,0.0,0.0,0.0,0.0,0.0,0.0,0.0,0.0,0.0,0.0,0.0,0.0,0.0,0.0,0.0,0.0,0.0,0.0,0.0,0.0,0.0,0.0,-1.7092,-1.8012,-1.882,-1.891,-1.9016,-1.9345,-1.8515,-1.7579,-1.6642,-1.5655,0.0,0.0,0.0,0.0,0.0,0.0,0.0,0.0,0.0,0.0,0.0,0.0,0.0,0.0,0.0,0.0,0.0,0.0,0.0,0.0,0.0,0.0,0.0,0.0,0.0,0.0,0.0,0.0,0.0,0.0,0.0,0.0,0.0,0.0,0.0,0.0,0.0,0.0,0.0,0.0,0.0,0.0,0.0,0.0,0.0,0.0,0.0,0.0,0.0,0.0,0.0,0.0,0.0,0.0,0.0,0.0,0.0,0.0,0.0,0.0,0.0,0.0,0.0,0.0,0.0,0.0,0.0,0.0,0.0,0.0,0.0,0.0,0.0,0.0,0.0,0.0,0.0,0.0,0.0,0.0,0.0,0.0,0.0,0.0,0.0,0.0,0.0,0.0,0.0,0.0,0.0,0.0,0.0,0.0,0.0,0.0,0.0,0.0,0.0,0.0,0.0,0.0,-1.7997,-1.887,-1.9162,-1.972,-2.0088,-2.0116,-1.964,-1.9043,-1.8293,-1.718,0.0,0.0,0.0,0.0,0.0,0.0,0.0,0.0,0.0,0.0,0.0,0.0,0.0,0.0,0.0,0.0,0.0,0.0,0.0,0.0,0.0,0.0,0.0,0.0,0.0,0.0,0.0,0.0,0.0,0.0,0.0,0.0,0.0,0.0,0.0,0.0,0.0,0.0,0.0,0.0,0.0,0.0,0.0,0.0,0.0,0.0,0.0,0.0,0.0,0.0,0.0,0.0,0.0,0.0,0.0,0.0,0.0,0.0,0.0,0.0,0.0,0.0,0.0,0.0,0.0,0.0,0.0,0.0,0.0,0.0,0.0,0.0,0.0,0.0,0.0,0.0,0.0,0.0,0.0,0.0,0.0,0.0,0.0,0.0,0.0,0.0,0.0,0.0,0.0,0.0,0.0,0.0,0.0,0.0,0.0,0.0,0.0,0.0,0.0,0.0,0.0,0.0,-1.8162,-1.9074,0.0,-2.0151,-2.0688,-2.0818,-2.0607,-2.0042,-1.8981,0.0,0.0,0.0,0.0,0.0,0.0,0.0,0.0,0.0,0.0,0.0,0.0,0.0,0.0,0.0,0.0,0.0,0.0,0.0,0.0,0.0,0.0,0.0,0.0,0.0,0.0,0.0,0.0,0.0,0.0,0.0,0.0,0.0,0.0,0.0,0.0,0.0,0.0,0.0,0.0,0.0,0.0,0.0,0.0,0.0,0.0,0.0,0.0,0.0,0.0,0.0,0.0,0.0,0.0,0.0,0.0,0.0,0.0,0.0,0.0,0.0,0.0,0.0,0.0,0.0,0.0,0.0,0.0,0.0,0.0,0.0,0.0,0.0,0.0,0.0,0.0,0.0,0.0,0.0,0.0,0.0,0.0,0.0,0.0,0.0,0.0,0.0,0.0,0.0,0.0,0.0,0.0,0.0,0.0,0.0,0.0,0.0,0.0,0.0,0.0,0.0,0.0,-1.7382,-1.8381,-1.9212,0.0,-2.0351,-2.0962,-2.1085,-2.1286,-2.0814,-1.95,0.0,0.0,0.0,0.0,0.0,0.0,0.0,0.0,0.0,0.0,0.0,0.0,0.0,0.0,0.0,0.0,0.0,0.0,0.0,0.0,0.0,0.0,0.0,0.0,0.0,0.0,0.0,0.0,0.0,0.0,0.0,0.0,0.0,0.0,0.0,0.0,0.0,0.0,0.0,0.0,0.0,0.0,0.0,0.0,0.0,0.0,0.0,0.0,0.0,0.0,0.0,0.0,0.0,0.0,0.0,0.0,0.0,0.0,0.0,0.0,0.0,0.0,0.0,0.0,0.0,0.0,0.0,0.0,0.0,0.0,0.0,0.0,0.0,0.0,0.0,0.0,0.0,0.0,0.0,0.0,0.0,0.0,0.0,0.0,0.0,0.0,0.0,0.0,0.0,0.0,0.0,0.0,0.0,0.0,0.0,0.0,0.0,0.0,0.0,0.0,0.0,0.0,-1.7756,-1.8652,-1.9311,-1.932,-2.028,-2.0895,-2.0917,-2.1561,-2.1413,0.0,0.0,0.0,0.0,0.0,0.0,0.0,0.0,0.0,0.0,0.0,0.0,0.0,0.0,0.0,0.0,0.0,0.0,0.0,0.0,0.0,0.0,0.0,0.0,0.0,0.0,0.0,0.0,0.0,0.0,0.0,0.0,0.0,0.0,0.0,0.0,0.0,0.0,0.0,0.0,0.0,0.0,0.0,0.0,0.0,0.0,0.0,0.0,0.0,0.0,0.0,0.0,0.0,0.0,0.0,0.0,0.0,0.0,0.0,0.0,0.0,0.0,0.0,0.0,0.0,0.0,0.0,0.0,0.0,0.0,0.0,0.0,0.0,0.0,0.0,0.0,0.0,0.0,0.0,0.0,0.0,0.0,0.0,0.0,0.0,0.0,0.0,0.0,0.0,0.0,0.0,0.0,0.0,0.0,0.0,0.0,0.0,0.0,0.0,0.0,0.0,0.0,0.0,-1.8608,-1.9261,-1.977,-1.9938,-2.089,-2.1518,-2.1523,-2.167,-2.1227,-1.9925,0.0,0.0,0.0,0.0,0.0,0.0,0.0,0.0,0.0,0.0,0.0,0.0,0.0,0.0,0.0,0.0,0.0,0.0,0.0,0.0,0.0,0.0,0.0,0.0,0.0,0.0,0.0,0.0,0.0,0.0,0.0,0.0,0.0,0.0,0.0,0.0,0.0,0.0,0.0,0.0,0.0,0.0,0.0,0.0,0.0,0.0,0.0,0.0,0.0,0.0,0.0,0.0,0.0,0.0,0.0,0.0,0.0,0.0,0.0,0.0,0.0,0.0,0.0,0.0,0.0,0.0,0.0,0.0,0.0,0.0,0.0,0.0,0.0,0.0,0.0,0.0,0.0,0.0,0.0,0.0,0.0,0.0,0.0,0.0,0.0,0.0,0.0,0.0,0.0,0.0,0.0,0.0,0.0,0.0,0.0,0.0,0.0,0.0,0.0,0.0,0.0,0.0,-1.917,-1.9668,-2.0081,-2.0199,-2.1092,-2.1636,-2.1572,-2.1736,-2.1282,-1.992,0.0,0.0,0.0,0.0,0.0,0.0,0.0,0.0,0.0,0.0,0.0,0.0,0.0,0.0,0.0,0.0,0.0,0.0,0.0,0.0,0.0,0.0,0.0,0.0,0.0,0.0,0.0,0.0,0.0,0.0,0.0,0.0,0.0,0.0,0.0,0.0,0.0,0.0,0.0,0.0,0.0,0.0,0.0,0.0,0.0,0.0,0.0,0.0,0.0,0.0,0.0,0.0,0.0,0.0,0.0,0.0,0.0,0.0,0.0,0.0,0.0,0.0,0.0,0.0,0.0,0.0,0.0,0.0,0.0,0.0,0.0,0.0,0.0,0.0,0.0,0.0,0.0,0.0,0.0,0.0,0.0,0.0,0.0,0.0,0.0,0.0,0.0,0.0,0.0,0.0,0.0,0.0,0.0,0.0,0.0,0.0,0.0,0.0,0.0,0.0,0.0,0.0,-1.9618,-1.9984,-2.0228,-2.0256,-2.0995,-2.1422,-2.1287,-2.1712,-2.1398,-2.0052,0.0,0.0,0.0,0.0,0.0,0.0,0.0,0.0,0.0,0.0,0.0,0.0,0.0,0.0,0.0,0.0,0.0,0.0,0.0,0.0,0.0,0.0,0.0,0.0,0.0,0.0,0.0,0.0,0.0,0.0,0.0,0.0,0.0,0.0,0.0,0.0,0.0,0.0,0.0,0.0,0.0,0.0,0.0,0.0,0.0,0.0,0.0,0.0,0.0,0.0,0.0,0.0,0.0,0.0,0.0,0.0,0.0,0.0,0.0,0.0,-2.6624,0.0,0.0,0.0,0.0,0.0,0.0,0.0,0.0,0.0,0.0,0.0,0.0,0.0,0.0,0.0,0.0,0.0,0.0,0.0,0.0,0.0,0.0,0.0,0.0,0.0,0.0,0.0,0.0,0.0,0.0,0.0,0.0,0.0,0.0,0.0,0.0,0.0,0.0,0.0,0.0,0.0,-2.0608,-2.0527,-2.054,-2.081,-2.1007,-2.1336,-2.1845,-2.1342,-2.0817,-2.0384,0.0,0.0,0.0,0.0,0.0,0.0,0.0,0.0,0.0,0.0,0.0,0.0,0.0,0.0,0.0,0.0,0.0,0.0,0.0,0.0,0.0,0.0,0.0,0.0,0.0,0.0,0.0,0.0,0.0,0.0,0.0,0.0,0.0,0.0,0.0,0.0,0.0,0.0,0.0,0.0,0.0,0.0,0.0,0.0,0.0,0.0,0.0,0.0,0.0,0.0,0.0,0.0,0.0,0.0,0.0,0.0,0.0,0.0,0.0,0.0,0.0,-2.5362,0.0,0.0,0.0,0.0,0.0,0.0,0.0,0.0,0.0,0.0,0.0,0.0,0.0,0.0,0.0,0.0,0.0,0.0,0.0,0.0,0.0,0.0,0.0,0.0,0.0,0.0,0.0,0.0,0.0,0.0,0.0,0.0,0.0,0.0,0.0,0.0,0.0,0.0,0.0,0.0,-2.1139,-2.1058,-2.0914,-2.0854,-2.0952,-2.1177,-2.1544,-2.1122,-2.0659,-2.0137,-1.9048,0.0,0.0,0.0,0.0,0.0,0.0,0.0,0.0,0.0,0.0,0.0,0.0,0.0,0.0,0.0,0.0,0.0,0.0,0.0,0.0,0.0,0.0,0.0,0.0,0.0,0.0,0.0,0.0,0.0,0.0,0.0,0.0,0.0,0.0,0.0,0.0,0.0,0.0,0.0,0.0,0.0,0.0,0.0,0.0,0.0,0.0,0.0,0.0,0.0,0.0,0.0,0.0,0.0,-2.8441,-2.7899,-2.7273,-2.696,-2.6446,-2.5849,-2.4971,-2.4513,-2.43,0.0,0.0,0.0,0.0,0.0,0.0,0.0,0.0,0.0,0.0,0.0,0.0,0.0,0.0,0.0,0.0,0.0,0.0,0.0,0.0,0.0,0.0,0.0,0.0,0.0,-2.1164,-2.0458,0.0,0.0,0.0,0.0,0.0,0.0,0.0,0.0,0.0,0.0,0.0,0.0,-2.1269,-2.1254,-2.1063,-2.061,-2.0645,-2.0727,-2.0862,-2.0772,-2.0407,-1.9732,-1.885,-1.7604,0.0,0.0,0.0,0.0,0.0,0.0,0.0,0.0,0.0,0.0,0.0,0.0,0.0,0.0,0.0,0.0,0.0,0.0,0.0,0.0,0.0,0.0,0.0,0.0,0.0,0.0,0.0,0.0,0.0,0.0,0.0,0.0,-2.9503,-2.9846,0.0,0.0,0.0,0.0,0.0,0.0,0.0,0.0,0.0,0.0,0.0,0.0,0.0,-3.0157,-2.9288,-2.9305,-2.9066,-2.8538,-2.7783,-2.7338,-2.7198,-2.6336,-2.597,-2.5946,-2.4942,0.0,-2.389,-2.3559,0.0,0.0,0.0,0.0,0.0,0.0,0.0,0.0,0.0,0.0,0.0,0.0,0.0,0.0,0.0,0.0,0.0,0.0,0.0,0.0,0.0,0.0,-2.2591,-2.1393,-2.0886,-2.0527,0.0,-1.9828,-1.98,-1.9274,0.0,0.0,0.0,0.0,0.0,0.0,0.0,0.0,-2.0833,-2.0646,-2.0395,-2.0022,-1.9646,-1.9691,-2.0337,-1.9828,-1.9484,-1.9617,-1.8414,-1.7326,-1.6427,-1.4917,0.0,0.0,0.0,0.0,0.0,0.0,0.0,0.0,0.0,0.0,0.0,0.0,0.0,0.0,0.0,0.0,0.0,0.0,0.0,0.0,0.0,0.0,0.0,0.0,0.0,0.0,0.0,0.0,0.0,-2.9727,-2.9615,-2.9905,-2.9638,-2.96,0.0,0.0,0.0,0.0,0.0,0.0,0.0,0.0,0.0,-2.9598,-2.9469,-2.9108,-2.8509,-2.836,-2.8184,-2.7862,-2.7728,-2.7577,-2.7399,-2.7238,-2.6985,-2.6699,-2.6242,-2.563,-2.4817,-2.373,-2.3313,-2.3405,0.0,0.0,0.0,0.0,-2.4802,-2.4736,-2.4185,-2.3608,0.0,0.0,0.0,0.0,0.0,0.0,0.0,0.0,0.0,0.0,0.0,0.0,0.0,-2.1792,-2.1453,-2.1163,-2.0756,-2.0753,-2.0611,0.0,-2.0144,-2.0404,-2.0452,0.0,0.0,0.0,0.0,0.0,-2.0698,-2.0351,-1.9951,-1.9538,-1.9188,-1.9104,-1.9425,-1.915,-1.8958,-1.8996,-1.8164,-1.7209,-1.6158,-1.501,-1.3774,0.0,0.0,0.0,0.0,0.0,0.0,0.0,0.0,0.0,0.0,0.0,0.0,0.0,0.0,0.0,0.0,0.0,0.0,0.0,0.0,0.0,0.0,0.0,0.0,0.0,0.0,0.0,0.0,-2.9655,-2.9504,-2.9974,-2.9472,-2.9181,0.0,0.0,0.0,0.0,0.0,0.0,-2.9008,-2.8983,-2.8933,-2.8963,-2.8624,-2.8245,-2.7865,-2.7655,-2.7492,-2.7377,-2.7738,-2.7771,-2.7614,-2.7863,-2.7715,-2.7298,-2.7133,-2.6575,-2.5696,-2.4246,-2.3687,-2.3765,-2.3442,-2.3461,-2.377,-2.3797,-2.3829,-2.3802,-2.3435,-2.3106,-2.2758,-2.2502,0.0,-2.2698,-2.2713,0.0,0.0,0.0,0.0,-2.3727,-2.3206,-2.2661,-2.2224,-2.1979,-2.1725,-2.1522,-2.1275,-2.1224,-2.0988,0.0,-2.045,-2.066,-2.0911,0.0,0.0,0.0,0.0,-2.0845,-2.0272,-1.9853,-1.9442,-1.8993,-1.8675,-1.8575,-1.866,-1.859,-1.8442,-1.8255,-1.7697,-1.6883,-1.573,-1.5007,-1.3897,-1.2333,0.0,0.0,0.0,0.0,0.0,0.0,0.0,0.0,0.0,0.0,0.0,0.0,0.0,0.0,0.0,0.0,0.0,0.0,0.0,0.0,0.0,0.0,0.0,0.0,0.0,0.0,0.0,0.0,0.0,-2.9975,-2.863,0.0,0.0,0.0,0.0,-2.8704,-2.807,-2.7919,-2.8483,-2.8442,-2.8304,-2.8085,-2.8229,-2.8019,-2.7457,-2.7403,-2.7413,-2.7377,-2.7537,-2.7651,-2.7719,-2.747,-2.7351,-2.734,-2.6719,-2.6264,-2.5848,-2.5315,-2.4597,-2.3766,-2.3662,-2.3252,-2.281,-2.3076,-2.2855,-2.2359,-2.21,-2.1993,-2.1939,-2.1625,-2.2124,-2.2822,-2.2884,-2.341,0.0,0.0,-2.3012,-2.3023,-2.2342,-2.1962,-2.1674,-2.142,-2.1326,-2.1275,-2.0968,-2.0925,-2.0813,0.0,-2.0602,-2.0712,-2.0379,0.0,-2.0859,-2.043,-2.0459,-2.0198,-1.9214,-1.8934,-1.8675,-1.8306,-1.7993,-1.7959,-1.8211,-1.8011,-1.7746,-1.7464,-1.694,-1.6292,-1.546,-1.4697,-1.394,-1.3164,-1.2637,0.0,0.0,0.0,0.0,0.0,0.0,0.0,0.0,0.0,0.0,0.0,0.0,0.0,0.0,0.0,0.0,0.0,0.0,0.0,0.0,0.0,0.0,0.0,0.0,0.0,0.0,0.0,0.0,-2.9088,-2.853,0.0,-2.8346,-2.7788,-2.7411,-2.7512,-2.7399,-2.7381,-2.7393,-2.7612,-2.7728,-2.7641,-2.7678,-2.753,-2.7152,-2.6989,-2.6902,-2.694,-2.708,-2.726,-2.7522,-2.7664,-2.7573,-2.7167,-2.6961,-2.6534,-2.6014,-2.557,-2.4836,-2.3924,-2.3839,-2.3588,-2.3257,-2.3525,-2.3359,-2.3075,-2.2973,-2.2696,-2.2307,-2.1973,-2.1937,-2.2064,-2.2249,-2.2344,-2.2376,-2.2238,-2.2002,-2.1679,-2.1446,-2.1032,-2.0644,-2.055,-2.055,-2.049,-2.0395,-2.0395,-2.0357,-2.0233,-2.0509,-2.0727,-2.059,-2.049,-2.0293,-1.9955,-1.9508,-1.9036,-1.851,-1.8108,-1.7842,-1.7719,-1.747,-1.7436,-1.774,-1.7316,-1.705,-1.714,-1.647,-1.5818,-1.5242,-1.4636,-1.3921,-1.3157,-1.264,-1.2108,0.0,0.0,0.0,0.0,0.0,0.0,0.0,0.0,0.0,0.0,0.0,0.0,0.0,0.0,0.0,0.0,0.0,0.0,0.0,0.0,0.0,0.0,0.0,0.0,0.0,0.0,-2.8582,-2.8251,-2.8215,-2.8065,-2.7815,-2.7318,-2.7006,-2.6798,-2.6739,-2.6686,-2.6544,-2.6903,-2.7152,-2.7152,-2.7152,-2.6989,-2.6718,-2.6327,-2.6189,-2.6348,-2.6601,-2.6875,-2.7091,-2.7491,-2.7427,-2.6952,-2.6822,-2.6388,-2.5745,-2.5326,-2.4601,-2.3697,-2.3845,-2.369,-2.336,-2.3528,-2.3416,-2.3191,-2.3078,-2.2683,-2.2286,-2.2116,-2.1963,-2.1773,-2.1996,-2.1945,-2.1885,-2.1767,-2.1539,-2.1258,-2.0926,-2.0529,-2.0189,-2.0034,-2.0027,-2.0027,-1.9879,-1.9879,-1.9931,-1.9835,-2.0225,-2.0525,-2.04,-2.0069,-1.9713,-1.9299,-1.8577,-1.7914,-1.7663,-1.7245,-1.6988,-1.6897,-1.683,-1.6843,-1.7096,-1.6734,-1.6517,-1.661,-1.595,-1.5338,-1.4844,-1.4292,-1.3761,-1.3117,-1.2464,-1.1842,-1.1301,0.0,0.0,0.0,0.0,0.0,0.0,0.0,0.0,0.0,0.0,0.0,0.0,0.0,0.0,0.0,0.0,0.0,0.0,0.0,0.0,0.0,0.0,0.0,-2.704,-2.7048,-2.7128,-2.7583,-2.7518,-2.7549,-2.7814,-2.7088,-2.6545,-2.6545,-2.6008,-2.5798,-2.6072,-2.6391,-2.6545,-2.6545,-2.6545,-2.6391,-2.6072,-2.5505,-2.5348,-2.5659,-2.6136,-2.6388,-2.6365,-2.685,-2.6891,-2.651,-2.6197,-2.5647,-2.5018,-2.4738,-2.3977,-2.3167,-2.3747,-2.356,-2.3014,-2.3014,-2.2853,-2.257,-2.223,-2.1888,-2.1725,-2.1945,-2.2051,-2.2059,-2.2059,-2.2279,-2.2373,-2.169,-2.1712,-2.1769,-2.0776,-2.0493,-2.0323,-1.9783,-1.9879,-1.9879,-1.9376,-1.948,-1.9576,-1.9272,-1.9672,-1.9923,-1.9672,-1.9428,-1.9011,-1.8422,-1.7592,0.0,-1.667,-1.6368,-1.6104,-1.589,-1.6119,-1.6235,-1.6246,-1.6273,-1.6116,-1.5869,-1.5356,-1.4823,-1.4157,-1.3715,-1.3378,-1.3059,-1.2093,-1.1194,-1.0468,0.0,0.0,0.0,0.0,0.0,0.0,0.0,0.0,0.0,0.0,0.0,0.0,0.0,0.0,0.0,0.0,0.0,0.0,0.0,0.0,0.0,0.0,-2.5058,-2.5478,-2.5986,-2.6184,-2.5712,-2.6171,-2.6426,-2.6327,-2.6063,-2.5953,-2.5953,-2.5789,-2.5624,-2.545,-2.5789,-2.5844,-2.5606,-2.5835,-2.5789,-2.545,-2.511,-2.4979,-2.5093,-2.5283,-2.5545,-2.583,-2.5946,-2.5847,-2.548,-2.5165,-2.4795,-2.4348,-2.4255,-2.3772,-2.3112,-2.3485,-2.3389,-2.307,-2.3464,-2.336,-2.2788,-2.1995,-2.1546,-2.1268,-2.091,-2.0788,-2.0845,-2.101,-2.1124,-2.1259,-2.1549,-2.1547,-2.1321,-2.0779,-2.0339,-1.9775,-1.895,-1.8781,-1.8736,-1.816,-1.8272,-1.8325,-1.7891,-1.7884,-1.8146,-1.8684,-1.8146,-1.7569,-1.7206,-1.6425,0.0,-1.5791,-1.5511,-1.5288,-1.5263,-1.5141,-1.5163,-1.5334,-1.5171,-1.5024,-1.496,-1.4657,-1.41,-1.33,-1.3391,-1.31,-1.2388,-1.1462,-1.061,0.0,0.0,0.0,0.0,0.0,0.0,0.0,0.0,0.0,0.0,0.0,0.0,0.0,0.0,0.0,0.0,0.0,0.0,0.0,0.0,0.0,0.0,-2.3533,-2.3659,-2.395,-2.4716,-2.5066,-2.4456,-2.5092,-2.5505,-2.5348,-2.5247,-2.5136,-2.5136,-2.5026,-2.4851,-2.4684,-2.497,-2.5081,-2.4851,-2.5026,-2.5017,-2.4667,-2.4231,-2.4116,-2.4283,-2.4359,-2.4645,-2.5109,-2.5149,-2.5072,0.0,-2.4548,-2.417,-2.3845,-2.3647,-2.3146,0.0,0.0,0.0,0.0,0.0,-2.2659,-2.215,-2.1474,-2.1074,-2.0795,-2.0385,-2.027,-2.0328,-2.0493,-2.0723,-2.0931,-2.1213,-2.1317,-2.1221,-2.0476,-1.9947,-1.9295,-1.819,-1.7898,-1.7681,-1.6889,-1.6948,-1.6948,-1.6399,-1.6193,0.0,-1.6723,-1.6558,-1.6293,-1.6039,-1.5288,-1.4705,-1.4705,-1.4601,-1.4386,-1.4176,-1.4077,-1.4062,-1.411,-1.3992,0.0,0.0,0.0,-1.2936,-1.2071,-1.2049,0.0,0.0,0.0,-0.9727,-0.8891,0.0,0.0,0.0,-0.7808,-0.7475,0.0,0.0,0.0,0.0,0.0,0.0,0.0,0.0,0.0,0.0,0.0,0.0,0.0,0.0,0.0,0.0,-2.242,-2.2178,-2.2447,-2.3268,-2.378,-2.3619,-2.4241,-2.4612,-2.4612,-2.4415,-2.432,-2.432,-2.4033,-2.3865,-2.3801,0.0,0.0,0.0,0.0,-2.408,-2.3712,-2.3175,-2.3014,-2.3247,-2.3363,-2.3695,-2.4179,-2.4273,-2.4275,-2.423,-2.3925,-2.3623,-2.3291,-2.2757,-2.2147,-2.1611,-2.223,-2.2274,-2.1969,-2.167,-2.1395,-2.1117,-2.078,0.0,0.0,-2.0155,-2.0097,-2.009,-2.0113,-2.0458,-2.0866,-2.0632,-2.0937,-2.101,-1.9852,-1.9363,-1.8728,-1.7351,-1.7001,-1.667,-1.5553,-1.5506,-1.5512,-1.4905,-1.4595,-1.439,-1.4331,-1.4809,-1.5078,-1.4821,-1.4151,-1.3646,-1.3646,-1.3593,-1.3382,-1.2843,0.0,0.0,-1.2772,-1.2767,-1.2718,-1.2713,-1.2208,-1.1544,-1.0741,-1.0412,-1.0105,-0.9902,-0.9313,-0.8628,-0.774,-0.7261,-0.6784,-0.6342,-0.645,-0.6298,0.0,0.0,0.0,0.0,0.0,0.0,0.0,0.0,0.0,0.0,0.0,0.0,0.0,0.0,0.0,-2.1509,-2.1462,-2.1418,-2.1341,-2.1743,-2.2269,-2.2947,-2.3482,-2.3632,-2.3352,-2.3528,-2.3641,-2.3641,-2.3585,-2.3472,-2.3183,-2.3247,0.0,-2.2965,-2.3135,-2.3014,-2.2441,-2.2335,-2.2044,-2.1638,0.0,0.0,-2.2255,-2.2238,-2.2242,-2.2242,-2.1886,-2.1726,-2.1665,-2.1548,-2.1103,-2.0625,-2.0944,-2.1212,-2.1369,-2.131,-2.106,-2.0773,-2.0493,-1.9982,-1.9468,-1.9229,-1.8997,-1.8784,-1.8836,-1.8934,0.0,-1.9533,-1.9513,-1.9318,-1.8851,-1.8315,-1.7573,-1.6101,-1.5767,-1.55,-1.432,-1.4326,-1.4277,-1.3467,-1.3256,-1.3147,-1.2871,-1.3305,-1.3689,-1.364,-1.3053,-1.265,-1.265,-1.2488,-1.2321,-1.2217,-1.2037,-1.1896,-1.1841,-1.1841,-1.1732,-1.1455,-1.0933,-1.0568,-1.0315,-0.9859,-0.9421,-0.9108,-0.8339,-0.7575,-0.6924,-0.6371,-0.5775,-0.5236,-0.5423,-0.5471,0.0,0.0,0.0,0.0,0.0,0.0,0.0,0.0,0.0,0.0,0.0,-1.9761,0.0,0.0,-2.0524,-2.0599,-2.0535,-2.0519,-2.0612,-2.0726,-2.1223,-2.2167,-2.2576,-2.274,-2.2562,-2.2683,-2.2796,-2.2796,-2.2796,-2.2619,-2.2335,-2.2279,-2.2165,-2.193,-2.2044,-2.1949,-2.1654,-2.1661,-2.1481,-2.1191,-2.135,-2.146,-2.143,-2.1465,-2.1432,-2.1439,-2.1244,-2.1134,-2.0946,-2.0487,-1.9952,-1.9377,-1.9515,-1.9859,-2.027,-2.009,-1.9968,-1.9744,-1.9455,-1.912,-1.8829,-1.8706,-1.8415,-1.8125,-1.8078,-1.8052,-1.8077,-1.8255,-1.8216,-1.7989,-1.7533,-1.7017,-1.6197,-1.4888,-1.4487,-1.4056,-1.292,-1.2758,-1.2708,-1.1946,-1.1787,-1.1732,-1.1564,-1.1678,-1.1951,-1.2387,-1.1946,-1.1564,-1.1564,-1.1459,-1.1295,-1.1185,-1.1021,-1.0857,-1.0692,-1.0692,-1.0618,-1.0369,-0.9932,-0.9601,-0.9433,-0.8762,-0.828,-0.8039,-0.7321,-0.6712,-0.6267,-0.5819,-0.5373,-0.4873,-0.4668,-0.4614,0.0,0.0,0.0,0.0,0.0,0.0,0.0,0.0,-1.8041,-1.8361,-1.8527,-1.8746,-1.914,-1.9239,-1.9366,-1.9731,-1.9569,-1.9583,-1.9916,-1.9971,-2.0355,-2.117,-2.1621,-2.1881,-2.1824,-2.1888,-2.1881,-2.1824,-2.1824,-2.1702,-2.1417,-2.1368,-2.1246,-2.101,-2.1003,-2.0989,-2.0902,-2.0906,-2.084,-2.0718,-2.0718,-2.0732,-2.0666,-2.0639,-2.0634,-2.0648,-2.0662,-2.0474,-2.016,-1.9443,-1.8736,-1.8246,-1.8246,-1.8538,-1.901,-1.8881,-1.8758,-1.8642,-1.8415,-1.824,-1.8123,-1.8123,-1.7883,-1.7582,-1.7328,-1.723,-1.7169,-1.6888,-1.6759,-1.6599,-1.6046,-1.5493,-1.4779,-1.3563,-1.3142,-1.2659,-1.1568,-1.135,-1.1185,-1.0637,-1.0472,-1.0472,-1.0472,-1.0143,-1.0253,-1.1185,-1.0857,-1.0527,-1.0527,-1.0527,-1.0417,-1.0257,-1.0202,-1.0036,-0.9647,-0.9621,-0.9527,-0.931,-0.9121,-0.8786,-0.8417,-0.7678,-0.7223,-0.7049,-0.6437,-0.5991,-0.571,-0.5371,-0.5039,-0.4707,-0.4204,-0.3982,-1.5864,-1.569,-1.5742,-1.6058,-1.6329,-1.6623,0.0,0.0,-1.776,-1.757,-1.7967,-1.8296,-1.8215,-1.8346,-1.8537,-1.8572,-1.8579,-1.864,-1.9003,-1.932,-1.9631,-1.9942,-2.0771,-2.1203,-2.0895,-2.1139,-2.1203,-2.0895,-2.0831,-2.0831,-2.078,-2.0558,-2.0443,-2.0385,-2.0354,-2.0167,-1.9846,-1.9873,-1.9632,-1.9067,-1.9067,-1.8919,-1.8706,-1.868,-1.8693,-1.87,-1.8732,-1.8504,-1.8198,-1.8108,-1.7849,-1.7602,-1.7602,-1.7661,-1.7778,-1.824,-1.8292,-1.7994,-1.7987,-1.7584,-1.7173,-1.7173,-1.6944,-1.6563,-1.6137,-1.5987,-1.5879,-1.5404,-1.506,-1.4673,-1.4143,-1.3744,-1.3191,-1.2101,-1.1782,-1.1514,-1.0637,-1.0476,-1.0366,-0.9981,-0.9706,-0.9544,-0.9544,-0.9096,-0.9092,-1.0257,-1.0147,-0.9926,-0.9926,-0.9926,-0.9871,-0.9871,-0.9871,-0.9647,-0.9034,-0.8881,-0.8684,-0.8363,-0.8423,-0.8147,-0.751,-0.7336,-0.6999,-0.6386,-0.5822,-0.5483,-0.5427,-0.4869,-0.4424,-0.4092,-0.4038,-0.3982,-1.5093,-1.5285,-1.5518,0.0,-1.5969,-1.6249,-1.6513,-1.6757,-1.6956,-1.6962,-1.7367,-1.7669,-1.7766,-1.798,-1.822,0.0,-1.8272,-1.8215,-1.8347,-1.8522,-1.8707,-1.8995,-1.9717,-2.0252,-2.0422,-2.045,-2.0335,-2.0213,-2.0026,-1.987,-1.9872,-1.9769,-1.9673,-1.9668,-1.9607,-1.9637,-1.9698,-1.9445,-1.9172,-1.878,-1.8586,-1.8303,-1.7889,-1.7889,-1.7889,-1.7895,-1.7649,-1.7525,-1.7343,-1.7173,-1.7003,-1.6891,-1.6773,-1.6708,-1.6767,-1.7355,-1.7355,-1.7062,-1.6879,-1.6532,-1.6183,-1.6183,-1.5946,-1.5644,-1.5308,-1.4993,-1.4668,-1.4089,-1.3653,-1.3173,-1.2624,-1.2234,-1.1775,-1.1038,-1.0857,-1.0582,-0.9699,-0.9478,-0.9313,-0.8875,-0.8654,-0.8602,-0.8602,-0.8266,-0.8159,-0.8654,-0.8764,-0.8764,-0.8764,-0.8764,-0.8797,-0.8884,-0.8917,-0.891,-0.8622,-0.8389,-0.8223,-0.8128,-0.7887,-0.7538,-0.7253,-0.6723,-0.6239,-0.5853,-0.5276,-0.499,-0.4942,-0.453,-0.4131,-0.3812,-0.364,-0.3452,-1.449,-1.4835,0.0,-1.5332,-1.5519,-1.5679,-1.59,-1.6014,-1.6174,-1.6427,-1.6743,-1.7014,-1.7318,-1.7529,-1.7694,-1.7898,-1.7747,-1.7641,-1.7641,-1.7742,-1.7907,-1.8313,-1.8771,-1.9259,-1.9839,-1.9758,-1.9642,-1.9577,-1.9296,-1.9135,-1.9054,-1.9078,-1.9098,-1.8936,-1.8889,-1.9026,-1.9243,-1.8924,-1.8535,-1.8214,-1.7952,-1.7498,-1.6956,-1.6956,-1.6956,-1.695,-1.6708,-1.6585,-1.6467,-1.6236,-1.6065,-1.5946,-1.5769,-1.565,-1.565,-1.6053,-1.6177,-1.6065,-1.5882,-1.5531,-1.5186,-1.5186,-1.5002,-1.4658,-1.4435,-1.4044,-1.3492,-1.3045,-1.2515,-1.1982,-1.1377,-1.1019,-1.0651,-0.999,-0.9846,-0.9588,-0.8813,-0.8592,-0.8429,-0.7989,-0.7768,-0.7657,-0.7657,-0.7438,-0.7218,-0.7218,-0.7382,-0.7601,-0.7768,-0.78,-0.7871,-0.8118,-0.8046,-0.7985,-0.7985,-0.7721,-0.76,-0.769,-0.7365,-0.7007,-0.6796,-0.6139,-0.5635,-0.5281,-0.4705,-0.4417,-0.4308,-0.3951,-0.3669,-0.3471,-0.3168,-0.2914,-1.4125,-1.4315,-1.4445,-1.4912,-1.4995,-1.5019,-1.502,-1.5286,-1.5607,-1.5885,-1.6164,-1.643,-1.6683,-1.673,-1.673,-1.673,-1.673,-1.673,-1.673,-1.7025,-1.7422,-1.7975,-1.8049,-1.8288,0.0,-1.9178,-1.9236,-1.8939,-1.884,-1.8643,-1.8363,-1.8611,-1.8576,-1.822,-1.8143,-1.8148,-1.816,-1.7857,-1.748,-1.6853,-1.6625,-1.626,-1.5655,-1.5655,-1.5655,-1.5655,-1.5655,-1.5477,-1.517,-1.5175,-1.4937,-1.465,-1.465,-1.4471,-1.4232,-1.4291,-1.4644,-1.5116,-1.511,-1.4764,-1.4232,-1.4232,-1.3992,-1.371,-1.3429,-1.3047,-1.2545,-1.225,-1.1759,-1.1145,-1.0413,-1.0163,-0.9814,-0.8977,-0.8644,-0.8484,-0.81,-0.7826,-0.7662,-0.7607,-0.716,-0.6712,-0.6712,-0.6495,-0.633,-0.633,-0.633,-0.655,-0.7154,-0.7258,-0.7492,-0.7843,-0.7391,-0.7044,-0.7044,-0.6852,-0.6736,-0.6739,-0.6838,-0.6605,-0.5846,-0.5842,-0.5457,-0.4653,-0.4024,-0.368,-0.3621,-0.3049,-0.2783,-0.2821,-0.2722,-0.2588,-1.2581,-1.3093,-1.3609,-1.4099,-1.4356,-1.4495,-1.4476,-1.4708,-1.4922,-1.503,-1.5405,-1.5779,-1.5879,-1.6205,-1.6424,-1.6424,-1.6577,-1.6747,-1.6943,-1.7051,-1.727,-1.7606,-1.7654,0.0,0.0,0.0,0.0,-1.8311,-1.803,-1.7895,-1.7948,-1.7957,-1.7931,-1.7724,-1.7682,-1.7515,-1.7163,-1.6646,-1.6134,-1.562,-1.4978,-1.4535,-1.4346,-1.4346,-1.4346,-1.4346,-1.4346,-1.4282,-1.4167,-1.4167,-1.4107,-1.3992,-1.3748,-1.3504,-1.3204,-1.2964,-1.29,-1.3015,-1.3619,-1.3564,-1.3144,-1.296,-1.2779,-1.2646,-1.2401,-1.1951,-1.1449,-1.1157,-1.0624,-1.0111,-0.9419,-0.9225,-0.9012,-0.832,-0.8103,-0.7894,-0.7333,-0.7105,-0.6937,-0.6773,-0.655,-0.6439,-0.6439,-0.6161,-0.5882,-0.5717,-0.6051,-0.641,-0.6642,-0.6749,-0.6917,-0.7089,-0.6988,-0.6912,-0.6912,-0.646,-0.6176,-0.6176,-0.5778,-0.5475,-0.5203,-0.477,-0.4422,-0.4155,-0.3537,-0.3178,-0.3144,-0.2999,-0.2765,-0.2511,-0.2497,-0.223,-1.1385,-1.2013,-1.2591,-1.3138,-1.3414,-1.3576,-1.3684,-1.3851,-1.4067,-1.4229,-1.4654,-1.5078,-1.5137,-1.5517,-1.5844,-1.5844,-1.6071,-1.63,-1.6484,-1.6545,-1.6704,-1.6972,-1.6915,-1.6881,0.0,0.0,0.0,-1.7608,-1.7338,-1.7186,-1.7285,-1.7239,-1.7112,-1.6807,-1.6738,-1.6493,-1.5958,-1.541,-1.4767,-1.4171,-1.3384,-1.3084,-1.3144,-1.3144,-1.3144,-1.3144,-1.3144,-1.3084,-1.3024,-1.3024,-1.3024,-1.3024,-1.2784,-1.2419,-1.1997,-1.1752,-1.145,-1.1212,-1.2298,-1.2479,-1.2118,-1.1816,-1.1631,-1.1454,-1.1152,-1.0629,-1.005,-0.993,-0.939,-0.8801,-0.8318,-0.8189,-0.8052,-0.7568,-0.7312,-0.7054,-0.6597,-0.6315,-0.6098,-0.5932,-0.5816,-0.5703,-0.5703,-0.553,-0.536,-0.5191,-0.5475,-0.5836,-0.6242,-0.628,-0.638,-0.6603,-0.6553,-0.6471,-0.6346,-0.5978,-0.5671,-0.5548,-0.5119,-0.481,-0.4562,-0.4129,-0.3795,-0.3559,-0.3044,-0.2739,-0.2712,-0.2497,-0.232,-0.2066,-0.1934,-0.161,-1.0681,-1.1068,-1.1411,-1.2113,-1.2327,-1.2387,-1.2718,-1.2827,-1.2989,-1.3537,-1.3905,-1.4223,-1.4498,-1.4713,-1.4928,-1.4928,-1.5192,-1.5357,-1.5369,-1.554,-1.5796,0.0,0.0,0.0,0.0,0.0,0.0,-1.6762,0.0,-1.6555,-1.625,-1.6381,-1.6099,-1.5429,-1.5233,-1.4929,-1.4586,-1.4118,-1.3447,-1.2599,-1.1997,-1.1877,-1.2118,-1.2118,-1.2118,-1.2118,-1.2113,-1.1937,-1.1696,-1.1696,-1.1696,-1.1696,-1.1696,-1.1273,-1.0728,-1.0728,-1.0304,-0.9879,-1.1148,-1.1454,-1.1152,-1.0785,-1.0486,-1.0183,-0.9819,-0.9086,-0.8491,-0.8613,-0.7997,-0.7292,-0.7159,-0.7074,-0.6965,-0.6722,-0.6312,-0.5949,-0.5949,-0.5475,-0.5062,-0.5062,-0.4826,-0.4648,-0.4648,-0.4648,-0.4707,-0.4707,-0.471,-0.5007,-0.589,-0.5848,-0.5875,-0.627,-0.6039,-0.5732,-0.5421,-0.536,-0.5176,-0.4872,-0.481,-0.4501,-0.3883,-0.3821,-0.355,-0.2897,-0.2534,-0.2352,-0.2352,-0.1691,-0.14,-0.1482,-0.1095,-0.0906,-0.9856,-1.014,-1.0355,-1.0992,-1.1131,-1.1185,-1.1509,-1.1732,-1.2005,-1.2387,-1.2876,-1.3256,-1.331,-1.3694,-1.4018,-1.4018,-1.4434,0.0,-1.4992,-1.5221,0.0,-1.5713,0.0,-1.5166,-1.4981,-1.4699,0.0,0.0,-1.5233,-1.5675,-1.5556,-1.5411,-1.505,-1.4497,-1.4185,-1.3766,-1.3168,-1.2367,-1.174,-1.1273,-1.1152,-1.1091,-1.1148,-1.1148,-1.1148,-1.1152,-1.091,-1.0728,-1.0668,-1.0425,-1.0304,-1.0304,-1.0304,-0.9876,-0.9323,-0.9323,-0.8903,-0.8419,-0.8784,-0.9451,-1.0061,-0.9508,-0.9265,-0.9083,-0.8541,-0.8071,-0.7648,-0.7589,-0.7112,-0.6549,-0.6543,-0.6359,-0.6067,-0.5796,-0.5627,-0.5385,-0.515,-0.4925,-0.4707,-0.447,-0.4178,-0.4061,-0.4294,-0.4351,-0.4412,-0.4648,-0.4754,-0.4852,-0.5091,-0.5109,-0.5092,-0.5293,-0.5179,-0.5118,-0.5056,-0.4561,-0.4252,-0.413,-0.3762,-0.3393,-0.3207,-0.2959,-0.2647,-0.2268,-0.1902,-0.1596,-0.135,-0.1166,-0.1107,-0.1111,-0.1046,-0.0732,-0.9116,-0.9429,-0.9637,-1.0093,-1.0194,-1.0323,-1.0676,-1.0845,-1.0975,-1.1387,-1.1896,-1.2332,-1.2332,-1.2767,-1.3207,0.0,0.0,0.0,-1.4231,-1.451,-1.4616,0.0,-1.4401,0.0,-1.3794,-1.3624,-1.3486,0.0,-1.418,-1.4553,-1.4423,-1.4231,-1.3833,-1.3264,-1.291,-1.2378,-1.1608,-1.1141,-1.0668,-1.0365,-1.0365,-1.0365,-1.0365,-1.0365,-1.0304,-1.0122,0.0,-0.9822,-0.97,-0.9457,-0.9335,-0.9211,-0.9211,-0.8784,-0.8172,-0.8047,-0.7683,-0.7199,-0.7074,-0.7497,-0.8108,-0.8172,-0.8108,-0.7864,-0.738,-0.686,-0.6449,-0.639,-0.5986,-0.561,-0.5648,-0.542,-0.5138,-0.4974,-0.4714,-0.4442,-0.4263,-0.4112,-0.3905,-0.3723,-0.3546,-0.3426,-0.3665,-0.3664,-0.3723,-0.3905,-0.3996,-0.4018,-0.4018,-0.4506,-0.4887,-0.4868,-0.4749,-0.4624,-0.4501,-0.4007,-0.3638,-0.3513,-0.3207,-0.2838,-0.259,-0.2405,-0.2035,-0.1542,-0.1358,-0.1173,-0.0988,-0.0679,-0.0556,-0.0556,-0.0247,0.0061,-0.8463,-0.8818,-0.9137,-0.9365,-0.9426,-0.9517,-0.9934,-0.9923,-0.9927,-1.0405,-1.095,-1.135,-1.1404,-1.1841,-1.2278,-1.2604,0.0,-1.3034,-1.3226,-1.3457,-1.3497,-1.3025,-1.3006,-1.2904,-1.2539,-1.2539,-1.2561,-1.2698,-1.3132,-1.3308,-1.3145,-1.2927,-1.254,-1.1785,-1.1478,-1.0938,-1.0126,-1.0122,-0.9943,-0.97,-0.97,-0.97,-0.97,-0.97,-0.9518,-0.9214,0.0,0.0,-0.8793,-0.8732,-0.8482,-0.8111,-0.8111,-0.7747,-0.7079,-0.683,-0.6462,-0.6158,-0.5849,-0.5786,-0.5908,-0.6832,-0.6954,-0.6644,-0.628,-0.5736,-0.5251,-0.5179,-0.489,-0.4619,-0.4624,-0.4337,-0.4112,-0.4177,-0.3824,-0.3455,-0.3455,-0.3146,-0.29,-0.29,-0.2838,-0.2838,-0.2838,-0.2838,-0.29,-0.2961,-0.3023,-0.3023,-0.3023,-0.3947,-0.4626,-0.4626,-0.4378,-0.4069,-0.3821,-0.3516,-0.3146,-0.29,-0.2776,-0.2467,-0.1912,-0.185,-0.1542,-0.0926,-0.0926,-0.0864,-0.0803,-0.0247,0.0062,0.0123,0.0741,0.105,-0.7922,-0.8251,-0.8477,-0.865,-0.8523,-0.8424,-0.8765,-0.8685,0.0,0.0,-0.9828,-1.0198,-1.0476,-1.0802,-1.1076,-1.1345,-1.1564,0.0,0.0,0.0,-1.2216,0.0,0.0,0.0,0.0,0.0,0.0,0.0,0.0,-1.1591,-1.2182,-1.1706,-1.1016,-1.0061,-0.9828,-0.9544,-0.9159,-0.9159,-0.9095,-0.9037,-0.9037,-0.9037,-0.9037,-0.9037,-0.9037,-0.8976,-0.8671,0.0,-0.8055,-0.7752,-0.7324,-0.6771,-0.6771,-0.6342,-0.5728,-0.5667,-0.5423,-0.5179,-0.5118,-0.5056,-0.5177,-0.5605,-0.5728,-0.5605,-0.5239,-0.5047,-0.4901,-0.4593,-0.4269,-0.3966,-0.3614,-0.3374,-0.3146,-0.3257,-0.3146,-0.3085,-0.3085,-0.2837,-0.2529,-0.222,-0.1975,-0.1852,-0.2097,-0.2158,-0.2343,-0.29,-0.3023,-0.3023,-0.3023,-0.3208,-0.3331,-0.3331,-0.3269,-0.3207,-0.3145,-0.259,-0.222,-0.2158,-0.1666,-0.1296,-0.1173,-0.1173,-0.0988,-0.0617,-0.0617,-0.0309,0.0247,0.037,0.0556,0.0803,0.0926,0.1173,-0.7573,-0.7899,-0.8125,-0.8195,-0.8108,-0.8043,-0.814,0.0,0.0,-0.8464,-0.8879,-0.9147,-0.9313,-0.9702,-1.0088,-1.0363,-1.0655,0.0,0.0,0.0,0.0,0.0,0.0,0.0,0.0,0.0,0.0,0.0,0.0,-1.0605,-1.1131,-1.0354,-0.9542,-0.8764,-0.8637,-0.8421,-0.8119,-0.8302,-0.8302,-0.8119,-0.8302,-0.8302,-0.8119,-0.8119,-0.7997,-0.7877,-0.7697,0.0,-0.7324,-0.7018,-0.6589,-0.6099,-0.5974,-0.5605,-0.5116,-0.493,-0.4684,-0.4376,-0.4195,-0.4071,-0.3947,-0.4069,-0.4375,-0.4559,-0.4255,-0.4071,-0.3879,-0.3667,-0.3538,-0.3356,-0.3173,-0.2807,-0.2444,-0.2462,-0.2221,-0.1975,-0.1975,-0.1851,-0.1666,-0.1481,-0.1358,-0.1296,-0.1481,-0.1481,-0.1605,-0.1913,-0.1975,-0.1975,-0.1975,-0.1975,-0.216,-0.2714,-0.2405,-0.222,-0.222,-0.1789,-0.1481,-0.1481,-0.1173,-0.0926,-0.0741,-0.0556,-0.0309,0.0,0.0185,0.0432,0.0741,0.0926,0.1173,0.1542,0.1728,0.1975,-0.7141,-0.7519,-0.7753,-0.7753,-0.7703,-0.7667,-0.7646,-0.7487,0.0,-0.7624,-0.7968,-0.8263,-0.8318,-0.8768,-0.921,0.0,-0.9757,-0.9968,0.0,0.0,0.0,0.0,0.0,0.0,0.0,0.0,0.0,0.0,0.0,0.0,-0.9929,-0.8989,-0.8182,-0.7574,-0.7564,-0.7444,-0.7077,-0.7319,-0.7319,-0.7077,-0.7319,-0.7319,-0.7077,-0.7077,-0.6957,-0.6714,-0.6714,0.0,0.0,-0.628,-0.5912,-0.5423,-0.5176,-0.4868,-0.4441,-0.4193,-0.3946,-0.3698,-0.3454,-0.3208,-0.2961,-0.29,-0.3268,-0.3698,-0.3454,-0.3208,-0.2961,-0.29,-0.2837,-0.2775,-0.2715,-0.2221,-0.1788,-0.1788,-0.1358,-0.0988,-0.0988,-0.0988,-0.0988,-0.0926,-0.0864,-0.0864,-0.0864,-0.0864,-0.0864,-0.0864,-0.0864,-0.0864,-0.0864,-0.0803,-0.1111,-0.1851,-0.1603,-0.1357,-0.1295,-0.0987,-0.0741,-0.0679,-0.0617,-0.0432,-0.0185,0.0062,0.0309,0.0617,0.0864,0.105,0.1111,0.142,0.179,0.2097,0.2467,0.2775,-0.6437,-0.6895,-0.7256,-0.7256,-0.7059,-0.6846,-0.6724,0.0,-0.6523,-0.6642,-0.7023,-0.7376,-0.766,-0.7937,-0.8211,-0.854,-0.865,-0.8657,-0.8667,0.0,0.0,0.0,0.0,0.0,0.0,0.0,0.0,0.0,0.0,0.0,-0.852,-0.7791,-0.711,-0.653,-0.6526,-0.6401,-0.6031,-0.609,-0.609,-0.6029,-0.609,-0.609,-0.6029,-0.6029,-0.6029,-0.597,-0.597,0.0,0.0,-0.5483,-0.4928,-0.4067,-0.4067,-0.3698,-0.3146,-0.3146,-0.3085,-0.3085,-0.3085,-0.3023,-0.2961,-0.2652,-0.2775,-0.3085,-0.3023,-0.3023,-0.2961,-0.2652,-0.2343,-0.2035,-0.1729,-0.1358,-0.1111,-0.1111,-0.105,-0.0988,-0.0988,-0.0988,-0.0926,-0.0617,-0.0556,-0.0556,-0.0556,-0.0556,-0.0556,-0.0556,-0.0556,-0.0556,-0.0556,-0.0309,-0.0123,-0.0247,-0.0741,-0.0926,-0.0617,-0.0309,0.0062,0.037,0.0617,0.0803,0.0864,0.0864,0.0926,0.0926,0.0988,0.1173,0.1482,0.1789,0.2097,0.2467,0.2775,0.2961,-0.5737,-0.6287,-0.6736,-0.6736,-0.6637,-0.6541,-0.6482,0.0,-0.6219,-0.6339,-0.6518,-0.6717,-0.6773,-0.7049,-0.7268,-0.7376,-0.7598,-0.7709,-0.7709,0.0,0.0,0.0,0.0,0.0,0.0,0.0,0.0,0.0,0.0,0.0,-0.6761,-0.6629,-0.6288,-0.549,-0.5298,-0.5114,-0.4989,-0.4803,-0.4681,-0.4681,-0.4681,-0.4681,-0.4681,-0.4681,-0.4681,-0.4681,-0.4928,0.0,0.0,-0.4559,-0.419,-0.3635,-0.3452,-0.2977,-0.2438,-0.2626,-0.2452,-0.2091,-0.2091,-0.1964,-0.1771,-0.1631,-0.1689,-0.1811,-0.2043,-0.1975,-0.179,-0.1605,-0.1481,-0.1358,-0.1235,-0.0803,-0.037,-0.0123,0.0062,0.0185,0.0185,0.0185,0.0247,0.037,0.0432,0.0432,0.0432,0.0432,0.0432,0.0432,0.0432,0.0432,0.0432,0.0494,0.0617,0.0617,0.0185,0.0062,0.037,0.0556,0.0679,0.0803,0.0926,0.0988,0.0988,0.1173,0.1297,0.1297,0.1482,0.179,0.2098,0.2221,0.259,0.3085,0.3209,0.3394,-0.4935,-0.5586,-0.6037,-0.6037,-0.6113,-0.619,0.0,0.0,-0.5786,-0.5846,-0.5993,-0.6047,-0.6047,-0.6325,-0.6604,-0.6604,-0.6771,-0.6892,-0.6812,-0.6752,0.0,0.0,0.0,0.0,0.0,0.0,0.0,0.0,0.0,0.0,0.0,-0.5321,-0.5126,-0.4506,-0.4255,-0.407,-0.4007,-0.3761,-0.3575,-0.3513,-0.3513,-0.3452,-0.3328,-0.3328,-0.3328,-0.3389,0.0,0.0,0.0,-0.3822,-0.3513,-0.3021,-0.2789,-0.2313,-0.1705,-0.1965,-0.1789,-0.1354,-0.1225,-0.1031,-0.0837,-0.0701,-0.0634,-0.063,-0.081,-0.0929,-0.0988,-0.0988,-0.0864,-0.0679,-0.0556,-0.0123,0.037,0.0617,0.0803,0.0988,0.0988,0.0988,0.0988,0.0988,0.0988,0.0988,0.0988,0.0988,0.105,0.1112,0.1173,0.1173,0.1296,0.1296,0.1358,0.1419,0.1234,0.1111,0.1173,0.1235,0.1358,0.1419,0.1543,0.1605,0.1605,0.1729,0.179,0.179,0.2037,0.2284,0.2529,0.2714,0.3085,0.3639,0.3702,0.3948,-0.3882,-0.4587,-0.519,-0.519,-0.5516,-0.577,0.0,-0.5341,-0.516,-0.497,-0.515,-0.5427,-0.5427,-0.588,-0.633,-0.633,-0.633,-0.6198,-0.5954,-0.6049,0.0,0.0,0.0,0.0,0.0,0.0,0.0,0.0,0.0,0.0,0.0,-0.3623,-0.357,-0.3518,-0.3517,-0.3332,-0.3023,-0.3023,-0.2837,-0.2529,-0.2529,-0.2343,-0.2035,-0.2035,-0.2035,0.0,0.0,0.0,0.0,-0.3209,-0.29,-0.2038,-0.2006,-0.1577,-0.1012,-0.1026,-0.1031,-0.0967,-0.058,-0.0387,-0.0322,0.0,0.0255,0.0504,0.0504,-0.0187,-0.0988,-0.0988,-0.0494,0.0062,0.037,0.0741,0.0988,0.0988,0.0988,0.0988,0.0988,0.0988,0.0988,0.0988,0.0988,0.0988,0.0988,0.0988,0.1111,0.142,0.1482,0.1605,0.1973,0.1973,0.2097,0.2467,0.2467,0.2221,0.1543,0.1789,0.2158,0.2467,0.2775,0.2961,0.2961,0.2652,0.2467,0.2467,0.2467,0.2467,0.2529,0.3146,0.3639,0.3883,0.4253,0.4562,-0.2823,-0.3664,-0.447,-0.447,-0.4736,-0.498,-0.4962,-0.4734,-0.4613,-0.4632,-0.4702,-0.4758,-0.4758,-0.4927,-0.5096,-0.5096,-0.5096,-0.5069,0.0,0.0,0.0,0.0,0.0,0.0,0.0,0.0,0.0,0.0,0.0,0.0,0.0,-0.2775,-0.2595,-0.284,-0.259,-0.2343,-0.1973,-0.1728,-0.1551,-0.1505,-0.1505,-0.1449,-0.1335,-0.1335,0.0,0.0,0.0,0.0,0.0,-0.2076,-0.1691,-0.1001,-0.1246,-0.0756,0.0,-0.0258,-0.0196,0.0133,0.073,0.0996,0.1061,0.1379,0.1436,0.123,0.1269,0.0812,0.037,0.037,0.0494,0.0679,0.0803,0.1111,0.1359,0.1359,0.1544,0.1667,0.1667,0.1851,0.2036,0.2036,0.2221,0.2345,0.2345,0.2345,0.2406,0.253,0.253,0.2591,0.2652,0.2652,0.2714,0.2837,0.2837,0.2776,0.253,0.2652,0.2714,0.2837,0.2961,0.3023,0.3023,0.29,0.2837,0.2837,0.2837,0.2961,0.3208,0.3576,0.4069,0.4562,0.4687,0.481,-0.217,-0.2915,-0.3629,-0.3629,-0.4013,0.0,-0.4412,-0.4284,-0.4207,-0.4305,-0.4257,-0.4145,-0.4145,-0.4145,-0.4145,-0.4145,-0.4167,-0.4151,0.0,0.0,0.0,0.0,0.0,0.0,0.0,0.0,0.0,0.0,0.0,0.0,0.0,-0.1885,-0.1663,-0.1758,-0.1694,-0.1505,-0.1317,-0.113,-0.0946,-0.0828,-0.0828,-0.0704,-0.0452,-0.0452,0.0,0.0,0.0,0.0,0.0,-0.1149,-0.089,-0.0318,-0.0378,0.0,0.0645,0.0451,0.0589,0.1002,0.1603,0.1876,0.2083,0.2464,0.2374,0.2148,0.216,0.1624,0.0988,0.0988,0.1111,0.1173,0.1173,0.142,0.1667,0.1667,0.1976,0.216,0.216,0.2468,0.2714,0.2714,0.2837,0.3023,0.3023,0.3023,0.3023,0.3023,0.3023,0.3023,0.3146,0.3208,0.3209,0.3332,0.3454,0.3515,0.3515,0.3391,0.333,0.333,0.3577,0.3701,0.3701,0.3577,0.3515,0.3515,0.3515,0.3639,0.3824,0.4252,0.4684,0.5116,0.5364,0.5485,0.0,-0.2408,-0.2859,-0.2859,-0.3309,-0.3834,-0.3832,-0.388,0.0,-0.3924,-0.3757,-0.3531,-0.3531,-0.3475,-0.3475,-0.3475,-0.3467,-0.341,0.0,0.0,0.0,0.0,0.0,0.0,0.0,0.0,0.0,0.0,0.0,0.0,0.0,-0.0912,-0.0776,-0.0453,-0.0712,-0.084,-0.0903,-0.0903,-0.0775,-0.0388,-0.0388,-0.0065,0.0518,0.0518,0.0,0.0,0.0,0.0,0.0,-0.0517,-0.0387,0.0194,0.0451,0.0774,0.1096,0.1096,0.1366,0.1711,0.2106,0.2455,0.2816,0.3152,0.3227,0.3148,0.3105,0.2186,0.1111,0.1111,0.1358,0.1544,0.1544,0.1791,0.2099,0.2099,0.2284,0.2529,0.2529,0.2837,0.3085,0.3085,0.3085,0.3146,0.3146,0.3146,0.3146,0.3146,0.3146,0.3269,0.3579,0.3579,0.3702,0.395,0.4256,0.4439,0.4499,0.4192,0.3944,0.3944,0.4562,0.4933,0.4933,0.4685,0.4499,0.4499,0.4499,0.4499,0.4562,0.5176,0.5483,0.5544,0.6158,0.6464,-0.1617,0.0,-0.2382,-0.2382,-0.2664,-0.3011,0.0,-0.3296,-0.3306,-0.3306,-0.325,-0.3082,-0.2636,-0.2524,-0.2468,-0.2243,-0.2218,-0.2197,0.0,0.0,0.0,0.0,0.0,0.0,0.0,0.0,0.0,0.0,0.0,0.0,0.0,-0.0133,0.02,0.0267,0.0466,0.0462,0.0129,-0.0129,0.0065,0.0721,0.0393,0.0528,0.0933,0.0933,0.0,0.0,0.0,0.0,0.0799,0.0659,0.0983,0.1572,0.1425,0.1677,0.2193,0.2193,0.2263,0.2399,0.3046,0.3311,0.345,0.3776,0.386,0.3737,0.3471,0.2808,0.2159,0.2159,0.2221,0.2282,0.2282,0.253,0.2776,0.2776,0.2838,0.29,0.29,0.333,0.3698,0.3698,0.413,0.4441,0.4441,0.4441,0.4441,0.4441,0.4441,0.4502,0.4564,0.4564,0.4564,0.4689,0.4749,0.487,0.5114,0.487,0.4687,0.4687,0.5054,0.5298,0.5298,0.5481,0.554,0.554,0.554,0.5665,0.5912,0.6096,0.628,0.653,0.6714,0.6775,-0.1566,-0.1763,-0.1971,-0.1971,-0.2242,-0.2524,-0.2635,-0.2803,-0.2915,-0.2915,-0.2691,-0.2411,-0.2075,-0.1683,-0.1349,-0.119,-0.1035,0.0,0.0,0.0,0.0,0.0,0.0,0.0,0.0,0.0,0.0,0.0,0.0,0.0,0.0,0.0606,0.0808,0.0808,0.101,0.1002,0.079,0.0592,0.0727,0.1065,0.0865,0.1002,0.1346,0.1346,0.1414,0.0,0.0,0.0,0.1346,0.1536,0.1797,0.2127,0.2293,0.2541,0.2863,0.2824,0.3014,0.3285,0.3646,0.4037,0.4316,0.451,0.4529,0.4412,0.4034,0.3556,0.3082,0.2837,0.2714,0.2714,0.2714,0.2838,0.3023,0.3023,0.3146,0.3269,0.3391,0.3761,0.4192,0.4315,0.4624,0.4873,0.4873,0.4873,0.4873,0.4873,0.4873,0.4873,0.4873,0.4873,0.4933,0.5116,0.5241,0.5486,0.5851,0.5853,0.5732,0.5607,0.5914,0.6099,0.6099,0.628,0.6403,0.6585,0.6766,0.6891,0.7077,0.7077,0.7199,0.7385,0.7508,0.7566,-0.1566,-0.1607,-0.1651,-0.1704,-0.1914,-0.2132,-0.2132,-0.2356,-0.2525,-0.2469,-0.202,-0.1627,-0.1514,-0.0841,0.0,0.0,0.0,0.0,0.0,0.0,0.0,0.0,0.0,0.0,0.0,0.0,0.0,0.0,0.0,0.0,0.0,0.1212,0.1279,0.1279,0.1346,0.1346,0.1346,0.1212,0.1144,0.1279,0.1212,0.1346,0.1683,0.1683,0.1885,0.0,0.0,0.0,0.1884,0.2221,0.2356,0.2488,0.3057,0.3303,0.3353,0.3326,0.3695,0.4168,0.4168,0.456,0.5119,0.5119,0.5138,0.5025,0.4726,0.4374,0.3959,0.3414,0.3158,0.3085,0.3085,0.3085,0.3146,0.3146,0.3394,0.3701,0.3944,0.4252,0.4622,0.4933,0.5056,0.5118,0.5118,0.5179,0.5179,0.5179,0.5251,0.5259,0.5259,0.5259,0.5319,0.5625,0.5923,0.6221,0.6587,0.6896,0.6959,0.6771,0.6957,0.7082,0.7204,0.7204,0.7327,0.763,0.7933,0.8055,0.8055,0.8055,0.8055,0.8055,0.8358,0.848,-0.1314,-0.1296,-0.1438,-0.1651,-0.1804,-0.1851,-0.1851,-0.1907,-0.1851,-0.157,-0.1234,-0.0897,-0.0393,0.0,0.0395,0.0,0.0,0.0,0.0,0.0,0.0,0.0,0.0,0.0,0.0,0.0,0.0,0.0,0.0,0.0,0.0,0.1818,0.202,0.202,0.2289,0.2425,0.2425,0.1548,0.1414,0.202,0.1683,0.175,0.2087,0.2087,0.2289,0.0,0.0,0.2693,0.296,0.3027,0.3229,0.3565,0.3692,0.3861,0.4077,0.4268,0.4406,0.4484,0.4665,0.5017,0.5335,0.5335,0.5326,0.533,0.5399,0.5159,0.4849,0.4532,0.3965,0.3394,0.3394,0.358,0.3765,0.3765,0.401,0.4253,0.4315,0.4807,0.5237,0.5298,0.579,0.6158,0.6158,0.6407,0.6594,0.6594,0.6662,0.6777,0.6777,0.6777,0.6774,0.6837,0.6765,0.7021,0.7627,0.7689,0.7997,0.8485,0.8058,0.7997,0.8549,0.861,0.861,0.8671,0.8732,0.8732,0.8732,0.8732,0.8732,0.8732,0.879,0.8854,-0.101,-0.0881,-0.0852,-0.0958,-0.1148,-0.129,-0.129,-0.1177,-0.1009,-0.0841,-0.0336,0.0112,0.0,0.0,0.0,0.0,0.0,0.0,0.0,0.0,0.0,0.0,0.0,0.0,0.0,0.0,0.0,0.0,0.0,0.0,0.0,0.0,0.2759,0.2759,0.2894,0.2961,0.2961,0.249,0.2422,0.2759,0.2557,0.2557,0.2759,0.2759,0.2827,0.2961,0.0,0.3027,0.3228,0.3431,0.3632,0.3835,0.3971,0.4156,0.4321,0.4743,0.4979,0.5159,0.533,0.5548,0.5669,0.5669,0.5702,0.5685,0.5598,0.5513,0.5365,0.5082,0.4597,0.4108,0.3856,0.3919,0.4037,0.4193,0.437,0.4546,0.4877,0.5176,0.5483,0.5851,0.6262,0.6545,0.6729,0.6964,0.713,0.713,0.7171,0.7199,0.7199,0.7147,0.7176,0.7366,0.7392,0.763,0.8122,0.8363,0.8546,0.8854,0.8607,0.8607,0.8915,0.9037,0.9095,0.9095,0.9278,0.94,0.94,0.94,0.94,0.94,0.9579,0.964,-0.0556,-0.0363,-0.0213,-0.0107,-0.0383,-0.0673,-0.0617,-0.0393,-0.0168,0.0,0.062,0.0,0.0,0.1495,0.0,0.0,0.0,0.0,0.0,0.0,0.0,0.0,0.0,0.0,0.0,0.0,0.0,0.0,0.0,0.0,0.0,0.0,0.3228,0.3228,0.3295,0.3363,0.3363,0.3431,0.3363,0.3228,0.3228,0.3228,0.3228,0.3228,0.3228,0.3363,0.3363,0.343,0.3631,0.3901,0.4104,0.4171,0.4441,0.4567,0.4675,0.5094,0.5452,0.5756,0.594,0.5965,0.5949,0.5949,0.5934,0.5994,0.5821,0.576,0.5767,0.5461,0.5207,0.4876,0.4456,0.4383,0.4435,0.4639,0.4753,0.4923,0.5344,0.5573,0.5822,0.6313,0.6749,0.706,0.7333,0.76,0.7783,0.7783,0.7806,0.7814,0.7788,0.7706,0.7705,0.7934,0.8071,0.8241,0.861,0.8915,0.9095,0.9095,0.9095,0.9159,0.9217,0.9396,0.9579,0.964,0.9883,1.0001,1.0001,1.0001,1.0001,1.0061,1.0304,1.0425,0.0253,0.0311,0.0427,0.0747,0.0383,0.0,0.0224,0.0336,0.0507,0.1144,0.155,0.0,0.0,0.0,0.0,0.0,0.0,0.0,0.0,0.0,0.0,0.0,0.0,0.0,0.0,0.0,0.0,0.0,0.0,0.0,0.0,0.0,0.0,0.3228,0.3565,0.3768,0.3768,0.4038,0.3902,0.3228,0.3228,0.3228,0.3228,0.3228,0.3431,0.3768,0.3768,0.4102,0.4705,0.4707,0.4975,0.5314,0.5314,0.5471,0.5672,0.5726,0.5927,0.617,0.6163,0.611,0.598,0.598,0.5986,0.6005,0.6147,0.6235,0.6193,0.5939,0.5828,0.5727,0.5255,0.509,0.5153,0.5148,0.5404,0.5638,0.5619,0.6039,0.6478,0.6542,0.7361,0.8027,0.8204,0.8736,0.9188,0.9188,0.923,0.9266,0.9139,0.9179,0.9064,0.8946,0.8875,0.8912,0.9217,0.9518,0.9761,0.9761,0.9761,0.9883,1.0183,1.0243,1.0365,1.0668,1.0728,1.0728,1.0728,1.0728,1.0728,1.0728,1.0728,1.0789,0.111,0.1348,0.1546,0.1652,0.1696,0.157,0.1065,0.13,0.1655,0.1895,0.2376,0.0,0.0,0.0,0.0,0.0,0.0,0.0,0.0,0.0,0.0,0.0,0.0,0.0,0.0,0.0,0.0,0.0,0.0,0.0,0.0,0.0,0.0,0.3902,0.4038,0.4105,0.4105,0.4239,0.4172,0.3902,0.3902,0.3902,0.3902,0.3902,0.3969,0.4105,0.4305,0.4571,0.4839,0.5042,0.5245,0.5381,0.5381,0.5563,0.5863,0.5814,0.5971,0.6257,0.62,0.6125,0.6053,0.624,0.6214,0.6203,0.643,0.661,0.6737,0.664,0.6717,0.6635,0.5574,0.5296,0.5414,0.5823,0.6005,0.6178,0.6598,0.683,0.715,0.7595,0.8034,0.8481,0.8983,0.932,0.9478,0.9389,0.9423,0.9469,0.9522,0.9494,0.9425,0.9312,0.9241,0.9278,0.9579,0.9943,1.0122,1.0122,1.0122,1.0183,1.0304,1.0486,1.0668,1.0789,1.0789,1.0789,1.0789,1.0789,1.0789,1.0789,1.1031,1.1091,0.1865,0.2125,0.2451,0.2451,0.279,0.2977,0.237,0.2395,0.2653,0.2796,0.331,0.3837,0.3879,0.0,0.0,0.0,0.0,0.0,0.0,0.0,0.0,0.0,0.0,0.0,0.0,0.0,0.0,0.0,0.0,0.0,0.0,0.0,0.0,0.0,0.4642,0.4642,0.4642,0.4642,0.4642,0.4642,0.4642,0.4508,0.4308,0.4308,0.4374,0.4441,0.4707,0.4906,0.5175,0.5446,0.5647,0.5783,0.585,0.6048,0.6241,0.6185,0.6293,0.6481,0.6353,0.6256,0.6284,0.6473,0.6493,0.6525,0.675,0.694,0.708,0.7178,0.7323,0.7259,0.6319,0.6051,0.617,0.6572,0.6689,0.6861,0.7346,0.758,0.7837,0.8422,0.8745,0.9139,0.9642,0.9864,0.9943,0.9801,0.9844,0.9903,0.9966,0.9985,0.997,0.992,0.9761,0.9761,1.0061,1.0243,1.0365,1.0425,1.0547,1.0607,1.0607,1.0849,1.1031,1.1095,1.1099,1.1099,1.1099,1.1099,1.1099,1.1099,1.1337,1.1462,0.2422,0.2696,0.2984,0.3039,0.3501,0.4055,0.4176,0.3733,0.3422,0.383,0.4453,0.4873,0.4873,0.0,0.0,0.0,0.0,0.0,0.0,0.0,0.0,0.0,0.0,0.0,0.0,0.0,0.0,0.0,0.0,0.0,0.0,0.0,0.0,0.0,0.5381,0.5381,0.5381,0.5381,0.5381,0.5381,0.5381,0.5045,0.4308,0.4308,0.4507,0.4772,0.4839,0.5242,0.5912,0.5912,0.6115,0.652,0.6853,0.6985,0.6985,0.6985,0.6985,0.6985,0.6654,0.66,0.6699,0.6699,0.6821,0.7004,0.7176,0.7281,0.7325,0.7498,0.7526,0.7526,0.7526,0.7526,0.7526,0.7526,0.7526,0.7562,0.7848,0.8146,0.8538,0.8938,0.9521,1.0022,1.0167,1.0455,1.0666,1.0514,1.0811,1.0891,1.0519,1.0791,1.0975,1.0808,1.049,1.0429,1.0793,1.049,1.0429,1.0789,1.1091,1.1273,1.1273,1.1273,1.1462,1.1776,1.1776,1.1776,1.1776,1.1776,1.1776,1.1776,1.1776,1.1776,0.3382,0.3506,0.3738,0.4162,0.0,0.0,0.5118,0.4731,0.4362,0.0,0.4734,0.4873,0.4873,0.0,0.0,0.0,0.0,0.0,0.0,0.0,0.0,0.0,0.0,0.0,0.0,0.0,0.0,0.0,0.0,0.0,0.0,0.0,0.0,0.0,0.5381,0.5381,0.5381,0.5381,0.5381,0.5381,0.5381,0.5314,0.5045,0.5045,0.5112,0.5245,0.5444,0.5711,0.5912,0.6447,0.6717,0.6853,0.719,0.7323,0.7323,0.7323,0.7323,0.7323,0.7257,0.7123,0.7082,0.734,0.7252,0.7167,0.7459,0.7727,0.7882,0.7915,0.8125,0.8323,0.8587,0.8653,0.852,0.8058,0.7925,0.8048,0.8607,0.8795,0.9062,0.9729,0.9996,1.0207,1.0515,1.0563,1.0575,1.0685,1.0693,1.0731,1.1012,1.121,1.1329,1.1279,1.1134,1.1032,1.1041,1.1087,1.1161,1.116,1.1462,1.1522,1.1333,1.1522,1.1712,1.1776,1.201,1.2062,1.2062,1.2062,1.2062,1.2062,1.1893,1.1893,0.4071,0.4252,0.4543,0.5216,0.5596,0.5943,0.6312,0.0,0.0,0.0,0.0,0.5671,0.0,0.0,0.0,0.0,0.0,0.0,0.0,0.0,0.0,0.0,0.0,0.0,0.0,0.0,0.0,0.0,0.0,0.0,0.0,0.0,0.0,0.0,0.585,0.585,0.585,0.585,0.5917,0.6049,0.6049,0.6049,0.6049,0.5582,0.5448,0.5647,0.6115,0.6313,0.6382,0.6987,0.7187,0.7254,0.7591,0.7724,0.7724,0.7724,0.7724,0.7724,0.7526,0.748,0.7528,0.7726,0.7693,0.7666,0.7907,0.8084,0.8265,0.8443,0.8653,0.8853,0.9253,0.9322,0.9256,0.8859,0.8726,0.8859,0.9452,0.9652,0.9918,1.0518,1.0721,1.0853,1.0916,1.0788,1.0701,1.081,1.0779,1.0988,1.1504,1.1656,1.1747,1.1818,1.161,1.1477,1.1491,1.1596,1.1705,1.1647,1.1945,1.2066,1.1877,1.1945,1.1949,1.1949,1.2242,1.2419,1.2419,1.2419,1.2419,1.2419,1.2247,1.2247,0.4597,0.4996,0.5461,0.6148,0.6667,0.0,0.7708,0.7246,0.6709,0.6959,0.0,0.0,0.0,0.0,0.0,0.0,0.0,0.0,0.0,0.0,0.0,0.0,0.0,0.0,0.0,0.0,0.0,0.0,0.0,0.0,0.0,0.0,0.0,0.6587,0.6587,0.6587,0.6587,0.6587,0.6721,0.0,0.7051,0.7051,0.6985,0.5982,0.5714,0.6046,0.6717,0.6985,0.7051,0.739,0.7526,0.7593,0.7992,0.8125,0.8125,0.8125,0.8125,0.8125,0.7724,0.772,0.7953,0.7953,0.8078,0.8274,0.8383,0.8424,0.8585,0.9022,0.9183,0.9253,0.9658,0.9728,0.9728,0.9794,0.9794,0.9794,1.0193,1.0455,1.0787,1.1185,1.1582,1.1648,1.1314,1.1116,1.1016,1.0852,1.1121,1.1513,1.1926,1.2032,1.2117,1.2288,1.2083,1.1957,1.2073,1.2056,1.209,1.2251,1.2539,1.2719,1.2719,1.2419,1.2234,1.2234,1.2599,1.2719,1.2719,1.2719,1.2719,1.2719,1.2719,1.2719,0.5313,0.5672,0.615,0.6809,0.7746,0.8583,0.8862,0.8827,0.8482,0.0,0.0,0.0,0.0,0.0,0.0,0.0,0.0,0.0,0.0,0.0,0.0,0.0,0.0,0.0,0.0,0.0,0.0,0.0,0.0,0.0,0.0,0.0,0.0,0.7259,0.7259,0.7259,0.7259,0.7259,0.7323,0.0,0.739,0.739,0.739,0.6853,0.6717,0.6784,0.6918,0.7121,0.739,0.7791,0.7992,0.7992,0.8323,0.852,0.852,0.852,0.852,0.8454,0.839,0.8315,0.8285,0.8285,0.8334,0.8383,0.8734,0.8873,0.9019,0.9449,0.9591,0.9661,0.9994,1.006,1.0256,1.0721,1.0259,0.9861,1.0455,1.0654,1.0916,1.1512,1.1714,1.178,1.1714,1.1573,1.143,1.1385,1.1543,1.1724,1.1825,1.2077,1.2264,1.2304,1.2491,1.2592,1.2653,1.2624,1.2606,1.2561,1.2659,1.2719,1.2719,1.2659,1.2599,1.2599,1.2904,1.3084,1.3084,1.3084,1.3084,1.3084,1.284,1.2719,0.6275,0.6627,0.7172,0.8208,0.0,0.9624,0.9932,0.9879,0.9656,0.0,0.0,0.0,0.0,0.0,0.0,0.0,0.0,0.0,0.0,0.0,0.0,0.0,0.0,0.0,0.0,0.0,0.0,0.0,0.0,0.0,0.0,0.7791,0.7727,0.7526,0.7526,0.7526,0.7526,0.7526,0.7593,0.7791,0.7791,0.7791,0.7791,0.739,0.7254,0.7254,0.7455,0.7655,0.7791,0.8189,0.8323,0.839,0.852,0.8587,0.8587,0.8587,0.8587,0.8653,0.8784,0.8811,0.8761,0.8964,0.903,0.9019,0.9086,0.9175,0.936,0.9758,0.9827,0.9908,1.0373,1.0455,1.0588,1.1049,1.0787,1.0588,1.1118,1.1383,1.1582,1.1978,1.2177,1.2243,1.2045,1.1839,1.1647,1.1511,1.1642,1.1805,1.1886,1.2138,1.2341,1.2422,1.2804,1.3019,1.2847,1.3061,1.3203,1.2926,1.3084,1.3204,1.3204,1.3204,1.3084,1.296,1.3264,1.3444,1.3444,1.3444,1.3444,1.3444,1.3264,1.3204,0.718,0.7635,0.8277,0.9688,1.0247,0.0,1.0835,1.0668,1.0472,0.0,0.0,0.0,0.0,0.0,0.0,0.0,0.0,0.0,0.0,0.0,0.0,0.0,0.0,0.0,0.0,0.0,0.0,0.0,0.0,0.0,0.8189,0.8189,0.8058,0.7724,0.766,0.766,0.766,0.766,0.7858,0.8189,0.8189,0.8189,0.8189,0.7858,0.7658,0.7593,0.7925,0.8123,0.8189,0.8454,0.8587,0.8587,0.8653,0.8653,0.872,0.8787,0.879,0.8853,0.912,0.9186,0.9253,0.9594,0.9728,0.9703,0.9561,0.9518,0.9583,0.9974,1.0104,1.0202,1.068,1.0787,1.0916,1.1314,1.1383,1.1446,1.178,1.2111,1.2309,1.2375,1.2638,1.2704,1.2441,1.2089,1.1815,1.1666,1.1723,1.1829,1.1967,1.2174,1.2361,1.2631,1.3101,1.3284,1.3032,1.3497,1.3633,1.3292,1.3629,1.3748,1.3688,1.3781,1.368,1.3319,1.362,1.3759,1.3797,1.3797,1.3797,1.3797,1.3797,1.3797,0.766,0.8318,0.9222,0.0,1.0705,1.0794,0.0,0.0,0.0,0.0,0.0,0.0,0.0,0.0,0.0,0.0,0.0,0.0,0.0,0.0,0.0,0.0,0.0,0.0,0.0,0.0,0.0,0.0,0.0,0.0,0.852,0.852,0.8523,0.8456,0.8456,0.8456,0.8456,0.8456,0.8454,0.852,0.852,0.852,0.852,0.8454,0.8323,0.7992,0.8058,0.8256,0.852,0.8587,0.8587,0.8653,0.8917,0.905,0.905,0.9458,0.9528,0.9528,0.9594,0.9594,0.9661,0.9661,0.9728,0.9703,0.9888,0.9909,0.9974,1.0364,1.0425,1.0527,1.1007,1.1115,1.1314,1.1978,1.2177,1.2177,1.2243,1.2243,1.2375,1.2704,1.277,1.277,1.277,1.2475,1.2233,1.2213,1.1987,1.1784,1.1809,1.2101,1.2439,1.2767,1.3151,1.3475,1.3654,1.3743,1.3757,1.3652,1.3933,1.3992,1.3688,1.4161,1.4263,1.3906,1.3967,1.4052,1.4227,1.4227,1.4227,1.4227,1.4227,1.404,0.8804,0.9279,0.9876,0.0,1.1208,1.1351,1.1612,0.0,0.0,0.0,0.0,0.0,0.0,0.0,0.0,0.0,0.0,0.0,0.0,0.0,0.0,0.0,0.0,0.0,0.0,0.0,0.0,0.0,0.0,0.8587,0.8587,0.8587,0.8587,0.8587,0.8587,0.8587,0.8587,0.8587,0.872,0.8851,0.8851,0.8987,0.9192,0.9192,0.8923,0.839,0.8587,0.872,0.8917,0.9123,0.9192,0.9259,0.9389,0.9455,0.9458,0.9661,0.9728,0.9728,0.9927,0.9994,0.9994,1.0193,1.0259,1.023,1.028,1.0429,1.062,1.075,1.0944,1.1178,1.1472,1.1512,1.1648,1.2177,1.2309,1.2375,1.2572,1.2572,1.2638,1.277,1.277,1.2804,1.2898,1.2731,1.2586,1.2669,1.2481,1.2307,1.2307,1.2545,1.2811,1.3035,1.3494,1.3809,1.3829,1.3994,1.4071,1.3957,1.4112,1.4286,1.4404,1.4497,1.4541,1.4596,1.4299,1.4222,1.4312,1.4312,1.4312,1.4312,1.4312,1.4249,0.9653,0.0,1.0291,1.1197,1.1515,1.1676,0.0,0.0,0.0,0.0,0.0,0.0,0.0,0.0,0.0,0.0,0.0,0.0,0.0,0.0,0.0,0.0,0.0,0.0,0.0,0.0,0.0,0.0,0.0,0.872,0.872,0.8653,0.8587,0.8587,0.8587,0.8653,0.872,0.8853,0.8989,0.9253,0.9253,0.9389,0.9728,0.9728,0.9395,0.8923,0.912,0.9253,0.9253,0.9591,0.9728,0.9731,0.9794,0.9794,0.9861,0.9927,0.9927,0.9994,1.0323,1.0455,1.0522,1.0853,1.0986,1.0955,1.0798,1.0944,1.1138,1.1138,1.1397,1.1633,1.1867,1.1912,1.1978,1.2375,1.2441,1.2507,1.277,1.277,1.277,1.277,1.2906,1.2992,1.3112,1.3025,1.2946,1.3053,1.2878,1.2719,1.2719,1.2895,1.3071,1.3341,1.3721,1.3957,1.3872,1.4107,1.4204,1.4196,1.4232,1.451,1.4973,1.4906,1.4931,1.5253,1.4901,1.4658,1.4468,1.4468,1.4468,1.4468,1.4468,1.4468,0.0,1.0012,0.0,1.1223,1.1422,0.0,0.0,0.0,0.0,0.0,0.0,0.0,0.0,0.0,0.0,0.0,0.0,0.0,0.0,0.0,0.0,0.0,0.0,0.0,0.0,0.0,0.0,0.0,0.0,0.905,0.905,0.8787,0.8587,0.8587,0.8587,0.8787,0.905,0.9458,0.9661,0.9661,0.9661,0.9661,0.9728,0.9728,0.9661,0.9661,0.9661,0.9661,0.9661,0.9661,0.9728,0.9728,1.006,1.0193,1.0193,1.0522,1.0654,1.0721,1.1049,1.1181,1.1181,1.1582,1.1714,1.175,1.1579,1.1531,1.1595,1.1595,1.1595,1.1698,1.2134,1.2243,1.2375,1.2704,1.277,1.277,1.277,1.277,1.277,1.277,1.3104,1.3367,1.3354,1.3298,1.3295,1.3282,1.2961,1.2719,1.2719,1.2895,1.3146,1.3466,1.3706,1.3867,1.3981,1.4024,1.4051,1.4187,1.4416,1.4691,1.4973,1.5489,1.5716,1.5645,1.5843,1.5549,1.4903,1.4903,1.4903,1.4903,1.4903,1.4903,0.0,0.0,0.0,1.1248,1.1682,1.2015,0.0,0.0,0.0,0.0,0.0,0.0,0.0,0.0,0.0,0.0,0.0,0.0,0.0,0.0,0.0,0.0,0.0,0.0,0.0,0.0,0.0,0.0,0.0,0.0,0.9458,0.9392,0.9325,0.9325,0.9325,0.9392,0.9458,0.9661,0.9927,1.0323,1.0127,1.0392,1.1052,1.0787,1.0787,1.1052,1.1052,1.0787,1.0389,1.0853,1.1052,1.1052,1.1185,1.1251,1.1251,1.1383,1.1383,1.1449,1.1512,1.1582,1.1582,1.178,1.178,1.1769,1.1709,1.2019,1.2346,1.2346,1.2735,1.3135,1.3272,1.3354,1.3354,1.3486,1.3486,1.3551,1.3748,1.3687,1.3486,1.3486,1.3621,1.3779,1.3855,1.3846,1.3789,1.3784,1.3798,1.3835,1.3703,1.3875,1.4157,1.4414,1.4558,1.4573,1.4622,1.4617,1.4705,1.4774,1.4878,1.5168,1.5797,1.583,1.5924,1.618,1.6063,1.5844,1.5583,1.5583,1.5583,1.5583,1.5398,1.5267,1.0407,0.0,0.0,0.0,0.0,1.2312,0.0,0.0,0.0,0.0,0.0,0.0,0.0,0.0,0.0,0.0,0.0,0.0,0.0,0.0,0.0,0.0,0.0,0.0,0.0,0.0,0.0,0.0,0.0,0.0,0.9861,0.9728,0.9728,0.9728,0.9794,0.9861,0.9861,1.006,1.0522,1.1052,1.0853,1.1185,1.1978,1.1582,1.1582,1.1978,1.2111,1.1714,1.1118,1.1582,1.178,1.178,1.178,1.178,1.178,1.178,1.178,1.1846,1.1912,1.2045,1.2177,1.2309,1.2441,1.2503,1.2503,1.2898,1.3363,1.3363,1.3748,1.4272,1.4272,1.4272,1.4272,1.4272,1.4338,1.453,1.4861,1.4469,1.4076,1.4207,1.4338,1.4488,1.4553,1.4607,1.4598,1.4572,1.4644,1.4619,1.448,1.4575,1.471,1.4973,1.5043,1.5109,1.5169,1.5169,1.5283,1.5418,1.5547,1.5892,1.6606,1.6507,1.6608,1.7007,1.6688,1.6494,1.6494,1.6169,1.5974,1.5969,1.5658,1.5403,0.0,0.0,0.0,0.0,0.0,0.0,0.0,0.0,0.0,0.0,0.0,0.0,0.0,0.0,0.0,0.0,0.0,0.0,0.0,0.0,0.0,0.0,0.0,0.0,0.0,0.0,0.0,0.0,0.0,1.0588,1.0256,0.9927,0.9728,0.9728,1.006,1.0193,1.0256,1.0916,1.1446,1.1846,1.1846,1.1978,1.2309,1.1978,1.2045,1.2375,1.2704,1.2507,1.1912,1.1846,1.1846,1.1846,1.1846,1.1846,1.1846,1.1846,1.1846,1.1912,1.2243,1.2572,1.2902,1.3301,1.3691,1.394,1.394,1.4141,1.4469,1.4469,1.467,1.4931,1.4931,1.4931,1.4931,1.4931,1.5253,1.5639,1.5969,1.5253,1.46,1.4866,1.5253,1.5508,1.5508,1.5604,1.5724,1.5714,1.5344,1.5054,1.5054,1.4856,1.4779,1.5126,1.5175,1.5294,1.5596,1.5655,1.5774,1.6129,1.6429,1.6802,1.7302,1.7611,1.7788,1.8028,1.7658,1.7529,1.7529,1.6494,1.6034,1.6034,1.5658,1.5332,1.1121,0.0,0.0,0.0,0.0,0.0,0.0,0.0,0.0,0.0,0.0,0.0,0.0,0.0,0.0,0.0,0.0,0.0,0.0,0.0,0.0,0.0,0.0,0.0,0.0,0.0,0.0,0.0,1.0916,1.0654,1.0588,1.0455,1.0389,1.0389,1.0522,1.0654,1.092,1.1383,1.1912,1.2507,1.2499,1.2824,1.342,1.3087,1.3288,1.3814,1.3949,1.401,1.4015,1.3551,1.3288,1.3288,1.3288,1.3288,1.3288,1.3288,1.3288,1.3354,1.342,1.3682,1.3949,1.408,1.4342,1.4604,1.4604,1.5057,1.5578,1.5578,1.5969,1.6423,1.6423,1.6423,1.6423,1.6423,1.6483,1.6678,1.7012,1.6882,1.6558,1.6109,1.6174,1.6169,1.5904,1.5923,1.5956,1.6048,1.6171,1.6279,1.6355,1.6298,1.6325,1.638,1.6456,1.6526,1.6585,1.6826,1.7091,1.7392,1.7475,1.7657,1.7917,1.8005,1.8036,1.8028,1.791,1.7846,1.7846,1.7071,1.6742,1.6683,1.6104,1.5779,0.0,0.0,0.0,0.0,0.0,0.0,1.418,1.4342,0.0,0.0,0.0,0.0,0.0,0.0,0.0,0.0,0.0,0.0,0.0,0.0,0.0,0.0,0.0,0.0,0.0,0.0,0.0,1.1181,1.1052,1.0853,1.0721,1.0721,1.0787,1.092,1.092,1.1181,1.1648,1.2169,1.2832,1.349,1.3617,1.4002,1.453,1.4202,1.4333,1.4791,1.4856,1.5057,1.5323,1.4926,1.46,1.4338,1.4338,1.4338,1.4338,1.4338,1.4338,1.4338,1.4338,1.4665,1.5057,1.5057,1.5383,1.5774,1.5774,1.6164,1.6623,1.6623,1.7007,1.7389,1.7389,1.7389,1.7389,1.7389,1.7389,1.7523,1.7857,1.805,1.798,1.7271,1.7141,1.7071,1.6877,1.6812,1.6894,1.6946,1.7039,1.7182,1.7224,1.729,1.7312,1.7488,1.7655,1.7805,1.7924,1.8169,1.8297,1.8457,1.8568,1.8711,1.8837,1.8902,1.8973,1.8874,1.8746,1.8553,1.8238,1.7523,1.7071,1.6753,1.6364,1.6104,0.0,0.0,0.0,0.0,0.0,0.0,1.4997,1.5102,1.5053,0.0,0.0,0.0,0.0,0.0,0.0,0.0,0.0,0.0,0.0,0.0,0.0,0.0,0.0,0.0,0.0,1.1366,1.1534,1.1222,1.1156,1.1083,1.0802,1.0736,1.0868,1.1197,1.1278,1.1618,1.2347,1.3144,1.3875,1.4534,1.4931,1.5257,1.5639,1.5253,1.5253,1.5569,1.5574,1.5774,1.6104,1.6169,1.5714,1.5066,1.5066,1.5127,1.5127,1.5127,1.5113,1.5093,1.5093,1.5529,1.6157,1.6157,1.6625,1.7157,1.7157,1.7378,1.7658,1.7658,1.7916,1.8103,1.8103,1.8103,1.8098,1.8162,1.8162,1.8296,1.8699,1.9014,1.9008,1.8361,1.8226,1.8162,1.8098,1.8103,1.8103,1.8103,1.7978,1.784,1.7903,1.7927,1.8072,1.8428,1.8723,1.9016,1.9315,1.9376,1.945,1.9482,1.9651,1.9805,1.9775,2.003,2.017,2.0106,1.9839,1.9328,1.8635,1.7922,1.7211,1.6629,1.6564,1.6429,0.0,0.0,0.0,0.0,0.0,0.0,1.5676,1.574,1.564,0.0,0.0,0.0,0.0,0.0,0.0,0.0,0.0,0.0,0.0,0.0,0.0,0.0,0.0,0.0,0.0,1.0785,1.0734,1.1048,1.1055,1.1066,1.1073,1.1129,1.1129,1.1193,1.1637,1.2094,1.2552,1.3674,1.453,1.5178,1.5844,1.6364,1.6678,1.6364,1.6364,1.6678,1.6429,1.6494,1.6812,1.7077,1.6823,1.6174,1.6174,1.6364,1.6618,1.6618,1.6438,1.6275,1.6275,1.6597,1.6941,1.6941,1.7577,1.8242,1.7984,1.8325,1.8822,1.8822,1.8816,1.888,1.888,1.888,1.8944,1.9194,1.9322,1.9386,1.9717,1.9851,1.9851,1.9717,1.9456,1.9194,1.8944,1.888,1.888,1.888,1.8838,1.893,1.9179,1.9073,1.9032,1.9399,1.9517,1.9639,1.97,1.987,2.0151,2.039,2.0456,2.047,2.0448,2.0449,2.0361,2.0106,2.0043,1.9654,1.9014,1.8232,1.7717,1.7276,1.7007,1.6877,0.0,0.0,0.0,1.52,0.0,0.0,0.0,1.6067,1.5979,1.5727,0.0,0.0,0.0,0.0,0.0,0.0,0.0,0.0,0.0,0.0,0.0,0.0,0.0,0.0,0.0,1.0893,1.088,1.1084,1.1087,1.1119,1.1229,1.1355,1.1542,1.1735,1.2123,1.2722,1.3585,1.4585,1.5465,1.6219,1.6942,1.733,1.7518,1.733,1.733,1.7448,1.7204,1.722,1.7512,1.7524,1.7552,1.7535,1.7335,1.733,1.7518,1.7518,1.7304,1.7094,1.7278,1.7502,1.7728,1.7907,1.8366,1.884,1.871,1.8843,1.9087,1.91,1.9078,1.9136,1.9328,1.9328,1.945,1.9775,1.9845,1.9909,2.0043,2.0234,2.0361,2.0361,2.0475,2.0405,1.9717,1.959,1.959,1.959,1.959,1.9654,1.9845,1.991,1.9947,2.0136,2.0325,2.0433,2.0433,2.073,2.0977,2.1132,2.1326,2.1394,2.1355,2.1172,2.0919,2.0609,2.0418,2.01,1.959,1.9066,1.8425,1.7717,1.7582,1.7394,0.0,0.0,0.0,0.0,0.0,1.6761,0.0,0.0,0.0,1.6106,0.0,0.0,0.0,0.0,0.0,0.0,0.0,0.0,0.0,0.0,0.0,0.0,0.0,0.0,0.0,1.1275,1.1257,1.1289,1.1346,1.1431,1.1401,1.174,1.2011,1.2386,1.2724,1.3519,1.4676,1.5478,1.6317,1.7195,1.7846,1.8168,1.8226,1.8168,1.8103,1.8092,1.7771,1.7741,1.8016,1.7765,1.807,1.8571,1.8238,1.8168,1.8221,1.8174,1.8001,1.7833,1.8093,1.8219,1.8368,1.8671,1.8945,1.9239,1.929,1.926,1.9218,1.9193,1.9228,1.9334,1.9647,1.9711,1.9775,2.0106,2.017,2.0234,2.0297,2.0545,2.0792,2.0792,2.1299,2.1418,2.0545,2.0418,2.0354,2.0297,2.0234,2.017,2.017,2.0418,2.0609,2.0672,2.0982,2.1172,2.1172,2.1481,2.167,2.167,2.1922,2.2111,2.2111,2.1796,2.1418,2.1109,2.0799,2.0425,2.0106,1.9775,1.9066,1.8103,1.8103,1.7916,0.0,0.0,0.0,0.0,1.7168,0.0,0.0,0.0,1.6822,1.6552,0.0,0.0,0.0,0.0,0.0,0.0,0.0,0.0,0.0,0.0,0.0,0.0,0.0,0.0,0.0,0.0,1.1402,1.1529,1.1873,1.2109,1.2251,1.2457,1.2608,1.2664,1.3441,1.4185,1.4832,1.5982,1.703,1.7905,1.8308,1.8693,1.8944,1.8699,1.8507,1.8489,1.784,1.7741,1.8016,1.8082,1.833,1.8571,1.8571,1.8693,1.892,1.8686,1.8615,1.8533,1.8422,1.8574,1.8803,1.8855,1.9037,1.9302,1.9555,1.9649,1.9637,1.9606,1.9789,1.9979,2.0043,2.0043,2.0106,2.0482,2.0545,2.0609,2.0919,2.1235,2.1488,2.1488,2.1796,2.1922,2.1481,2.1425,2.1362,2.1046,2.0736,2.0545,2.0545,2.0609,2.0729,2.0982,2.1355,2.1544,2.1544,2.1859,2.2048,2.2048,2.2111,2.2111,2.2111,2.1796,2.1418,2.1109,2.0799,2.0425,2.0106,1.9775,1.92,1.8507,1.8507,1.8308,0.0,0.0,0.0,0.0,0.0,0.0,0.0,0.0,1.694,0.0,0.0,0.0,0.0,0.0,0.0,0.0,0.0,0.0,0.0,0.0,0.0,0.0,0.0,0.0,0.0,0.0,0.0,0.0,1.2583,1.275,1.2899,1.2985,1.3205,1.3564,1.4065,1.4695,1.5468,1.6509,1.7377,1.8134,1.8617,1.9078,1.9392,1.9264,1.927,1.945,1.9041,1.8945,1.9176,1.9091,1.921,1.945,1.9302,1.9108,1.8894,1.8904,1.8779,1.8584,1.8832,1.8893,1.8933,1.912,1.9271,1.9371,1.9422,1.9477,1.9517,1.9666,1.9776,1.9966,2.0569,2.0672,2.0792,2.1355,2.1481,2.1488,2.167,2.1796,2.1922,2.1922,2.2292,2.2613,2.248,2.2174,2.1859,2.167,2.1544,2.1481,2.1481,2.1481,2.1544,2.167,2.1796,2.1922,2.1922,2.2174,2.2418,2.2418,2.2543,2.2487,2.2111,2.1985,2.167,2.1109,2.0799,2.0425,2.0106,1.9775,1.9392,1.8886,1.8886,1.8693,1.8003,0.0,0.0,0.0,0.0,0.0,0.0,0.0,0.0,0.0,0.0,0.0,0.0,0.0,0.0,0.0,0.0,0.0,0.0,0.0,0.0,0.0,0.0,0.0,0.0,0.0,0.0,1.3099,1.3163,1.3289,1.3384,1.3519,1.3742,1.4193,1.4663,1.528,1.6178,1.7024,1.7796,1.8497,1.9026,1.9415,1.9599,1.9674,1.9845,2.0094,1.9795,1.9833,2.0087,1.9788,1.9839,2.0087,1.989,1.94,1.887,1.897,1.8886,1.8722,1.9055,1.9122,1.9062,1.9307,1.9424,1.9406,1.9325,1.9444,1.9595,1.9833,2.0067,2.0355,2.1054,2.1301,2.1481,2.1985,2.2111,2.2111,2.2111,2.2174,2.223,2.2362,2.2856,2.3293,2.3362,2.2918,2.2487,2.2487,2.2425,2.2355,2.2237,2.2237,2.2174,2.2111,2.2174,2.2237,2.2237,2.2613,2.2856,2.2856,2.3106,2.2918,2.2111,2.2188,2.1857,2.1102,2.0932,2.0618,2.0221,1.9952,1.9658,1.9398,1.9206,1.895,0.0,0.0,0.0,1.8733,0.0,0.0,0.0,0.0,1.7994,0.0,0.0,0.0,0.0,0.0,0.0,0.0,0.0,0.0,0.0,0.0,0.0,0.0,0.0,0.0,0.0,0.0,0.0,1.3415,1.3566,1.3688,1.3715,1.404,1.4266,1.4311,1.5124,1.6008,1.6842,1.7523,1.8318,1.92,1.9504,1.9712,1.9718,1.9986,2.0106,2.0094,1.9795,1.9833,2.0087,1.9788,1.9839,2.0106,2.01,1.9757,1.9235,1.8962,1.9033,1.9232,1.8998,1.9127,1.9366,1.9424,1.9424,1.943,1.9379,1.9807,2.0274,2.0294,2.0893,2.1526,2.1594,2.1818,2.2048,2.2111,2.2111,2.2111,2.2111,2.2362,2.2675,2.2981,2.3362,2.3673,2.3984,2.3798,2.3549,2.3549,2.33,2.2918,2.2613,2.2613,2.2487,2.2111,2.2418,2.2613,2.2613,2.3168,2.3549,2.3549,2.3611,2.3168,2.2174,2.2398,2.211,2.1019,2.1293,2.1168,2.0507,2.0507,2.0303,2.0043,1.9398,1.9072,0.0,0.0,1.9375,1.9132,0.0,0.0,0.0,0.0,0.0,0.0,0.0,0.0,0.0,0.0,0.0,0.0,0.0,0.0,0.0,0.0,0.0,0.0,0.0,0.0,0.0,0.0,0.0,1.4202,1.4253,1.4382,1.4535,1.4489,1.4776,1.5451,1.5787,1.6353,1.7316,1.7912,1.8466,1.8914,1.9261,1.9743,2.0371,2.047,2.0866,2.1411,2.131,2.1198,2.1102,2.0995,2.1015,2.1089,2.0902,2.0702,2.0488,1.9709,1.9238,1.9076,1.9218,1.9307,1.9424,1.9424,1.9424,1.9424,1.9424,1.9665,2.0014,2.0212,2.0648,2.1131,2.1782,2.2027,2.2224,2.2688,2.2738,2.2738,2.2738,2.305,2.3293,2.3425,2.386,2.4293,2.4425,2.4548,2.4417,2.3984,2.386,2.3736,2.3611,2.3604,2.3479,2.3113,2.3168,2.3168,2.2918,2.3168,2.3355,2.3611,2.3175,2.2675,2.2111,2.2221,2.1866,2.1032,2.105,2.1021,2.0793,2.0354,2.0215,2.0373,1.9933,1.9781,2.0255,1.9945,0.0,1.9684,1.9455,0.0,1.9333,0.0,0.0,0.0,0.0,0.0,0.0,0.0,0.0,0.0,0.0,0.0,0.0,1.4943,0.0,0.0,0.0,0.0,0.0,0.0,1.4254,1.4461,1.4569,1.466,0.0,0.0,1.5155,1.5968,1.6309,1.6825,1.7689,1.8254,1.8748,1.9161,1.9448,1.9986,2.0727,2.0835,2.1293,2.1943,2.1943,2.1881,2.1796,2.1796,2.1796,2.1776,2.1583,2.1445,2.1238,2.0288,1.9536,1.912,1.9307,1.9424,1.9424,1.9424,1.9424,1.9424,1.9533,1.9764,2.003,2.034,2.0765,2.1206,2.1968,2.2238,2.2396,2.297,2.3106,2.3113,2.323,2.3425,2.3673,2.3922,2.4293,2.4672,2.4734,2.4988,2.4919,2.4548,2.4487,2.4417,2.4293,2.4293,2.417,2.3798,2.3673,2.3479,2.3293,2.33,2.3355,2.3611,2.3113,2.2543,2.2111,2.2062,2.1697,2.0986,2.1101,2.1114,2.0879,2.0608,2.055,2.0637,2.0554,2.0488]},{"header":{"parameterUnit":"m.s-1","parameterCategory":1,"la1":30.6,"la2":29.2853,"lo1":-89.7004,"lo2":-87.6739,"dy":0.0162,"dx":0.0183,"nx":112,"ny":82,"refTime":"2023-09-21T18:00:00:Z","depth":0,"parameterNumber":3,"parameterNumberName":"V-component_of_WINDS"},"data":[0.0,0.0,0.0,0.0,0.0,0.0,0.0,0.0,0.0,0.0,0.0,0.0,0.0,0.0,0.0,0.0,0.0,0.0,0.0,0.0,0.0,0.0,0.0,0.0,0.0,0.0,0.0,0.0,0.0,0.0,0.0,0.0,0.0,0.0,0.0,0.0,0.0,0.0,0.0,0.0,0.0,0.0,0.0,0.0,0.0,0.0,0.0,0.0,0.0,0.0,0.0,0.0,0.0,0.0,0.0,0.0,0.0,0.0,0.0,0.0,0.0,0.0,0.0,0.0,0.0,0.0,0.0,0.0,0.0,0.0,0.0,0.0,0.0,0.0,0.0,0.0,0.0,0.0,0.0,0.0,0.0,0.0,0.0,0.0,0.0,0.0,0.0,0.0,0.0,0.0,0.0,3.7257,3.8733,3.9586,3.965,3.7454,3.5555,3.4301,0.0,0.0,0.0,0.0,0.0,0.0,0.0,0.0,0.0,0.0,0.0,0.0,0.0,0.0,0.0,0.0,0.0,0.0,0.0,0.0,0.0,0.0,0.0,0.0,0.0,0.0,0.0,0.0,0.0,0.0,0.0,0.0,0.0,0.0,0.0,0.0,0.0,0.0,0.0,0.0,0.0,0.0,0.0,0.0,0.0,0.0,0.0,0.0,0.0,0.0,0.0,0.0,0.0,0.0,0.0,0.0,0.0,0.0,0.0,0.0,0.0,0.0,0.0,0.0,0.0,0.0,0.0,0.0,0.0,0.0,0.0,0.0,0.0,0.0,0.0,0.0,0.0,0.0,0.0,0.0,0.0,0.0,0.0,0.0,0.0,0.0,0.0,0.0,0.0,0.0,0.0,0.0,0.0,0.0,0.0,0.0,0.0,0.0,0.0,0.0,0.0,0.0,0.0,0.0,3.6128,3.8259,3.8706,3.8904,3.9031,3.6821,3.5137,3.4413,0.0,0.0,0.0,0.0,0.0,0.0,0.0,0.0,0.0,0.0,0.0,0.0,0.0,0.0,0.0,0.0,0.0,0.0,0.0,0.0,0.0,0.0,0.0,0.0,0.0,0.0,0.0,0.0,0.0,0.0,0.0,0.0,0.0,0.0,0.0,0.0,0.0,0.0,0.0,0.0,0.0,0.0,0.0,0.0,0.0,0.0,0.0,0.0,0.0,0.0,0.0,0.0,0.0,0.0,0.0,0.0,0.0,0.0,0.0,0.0,0.0,0.0,0.0,0.0,0.0,0.0,0.0,0.0,0.0,0.0,0.0,0.0,0.0,0.0,0.0,0.0,0.0,0.0,0.0,0.0,0.0,0.0,0.0,0.0,0.0,0.0,0.0,0.0,0.0,0.0,0.0,0.0,0.0,0.0,0.0,0.0,0.0,0.0,0.0,0.0,0.0,0.0,0.0,3.571,3.7184,3.8896,3.866,3.8571,3.9016,3.6408,3.4306,3.3218,3.1672,0.0,0.0,0.0,0.0,0.0,0.0,0.0,0.0,0.0,0.0,0.0,0.0,0.0,0.0,0.0,0.0,0.0,0.0,0.0,0.0,0.0,0.0,0.0,0.0,0.0,0.0,0.0,0.0,0.0,0.0,0.0,0.0,0.0,0.0,0.0,0.0,0.0,0.0,0.0,0.0,0.0,0.0,0.0,0.0,0.0,0.0,0.0,0.0,0.0,0.0,0.0,0.0,0.0,0.0,0.0,0.0,0.0,0.0,0.0,0.0,0.0,0.0,0.0,0.0,0.0,0.0,0.0,0.0,0.0,0.0,0.0,0.0,0.0,0.0,0.0,0.0,0.0,0.0,0.0,0.0,0.0,0.0,0.0,0.0,0.0,0.0,0.0,0.0,0.0,0.0,0.0,0.0,0.0,0.0,0.0,0.0,0.0,0.0,0.0,0.0,0.0,0.0,3.6445,3.7868,3.891,3.8345,3.8139,3.8695,3.5853,3.35,3.2226,3.0559,0.0,0.0,0.0,0.0,0.0,0.0,0.0,0.0,0.0,0.0,0.0,0.0,0.0,0.0,0.0,0.0,0.0,0.0,0.0,0.0,0.0,0.0,0.0,0.0,0.0,0.0,0.0,0.0,0.0,0.0,0.0,0.0,0.0,0.0,0.0,0.0,0.0,0.0,0.0,0.0,0.0,0.0,0.0,0.0,0.0,0.0,0.0,0.0,0.0,0.0,0.0,0.0,0.0,0.0,0.0,0.0,0.0,0.0,0.0,0.0,0.0,0.0,0.0,0.0,0.0,0.0,0.0,0.0,0.0,0.0,0.0,0.0,0.0,0.0,0.0,0.0,0.0,0.0,0.0,0.0,0.0,0.0,0.0,0.0,0.0,0.0,0.0,0.0,0.0,0.0,0.0,0.0,0.0,0.0,0.0,0.0,0.0,0.0,0.0,0.0,0.0,0.0,3.6595,3.795,3.7913,3.7582,3.7386,3.7438,3.4891,3.2983,3.2332,3.0134,0.0,0.0,0.0,0.0,0.0,0.0,0.0,0.0,0.0,0.0,0.0,0.0,0.0,0.0,0.0,0.0,0.0,0.0,0.0,0.0,0.0,0.0,0.0,0.0,0.0,0.0,0.0,0.0,0.0,0.0,0.0,0.0,0.0,0.0,0.0,0.0,0.0,0.0,0.0,0.0,0.0,0.0,0.0,0.0,0.0,0.0,0.0,0.0,0.0,0.0,0.0,0.0,0.0,0.0,0.0,0.0,0.0,0.0,0.0,0.0,0.0,0.0,0.0,0.0,0.0,0.0,0.0,0.0,0.0,0.0,0.0,0.0,0.0,0.0,0.0,0.0,0.0,0.0,0.0,0.0,0.0,0.0,0.0,0.0,0.0,0.0,0.0,0.0,0.0,0.0,0.0,0.0,0.0,0.0,0.0,0.0,0.0,0.0,0.0,0.0,0.0,0.0,3.6033,3.7234,0.0,3.7308,3.7035,3.6985,3.4897,3.2867,3.1204,0.0,0.0,0.0,0.0,0.0,0.0,0.0,0.0,0.0,0.0,0.0,0.0,0.0,0.0,0.0,0.0,0.0,0.0,0.0,0.0,0.0,0.0,0.0,0.0,0.0,0.0,0.0,0.0,0.0,0.0,0.0,0.0,0.0,0.0,0.0,0.0,0.0,0.0,0.0,0.0,0.0,0.0,0.0,0.0,0.0,0.0,0.0,0.0,0.0,0.0,0.0,0.0,0.0,0.0,0.0,0.0,0.0,0.0,0.0,0.0,0.0,0.0,0.0,0.0,0.0,0.0,0.0,0.0,0.0,0.0,0.0,0.0,0.0,0.0,0.0,0.0,0.0,0.0,0.0,0.0,0.0,0.0,0.0,0.0,0.0,0.0,0.0,0.0,0.0,0.0,0.0,0.0,0.0,0.0,0.0,0.0,0.0,0.0,0.0,0.0,0.0,0.0,3.4392,3.5593,3.6613,0.0,3.6999,3.6769,3.6428,3.4991,3.3148,3.0905,0.0,0.0,0.0,0.0,0.0,0.0,0.0,0.0,0.0,0.0,0.0,0.0,0.0,0.0,0.0,0.0,0.0,0.0,0.0,0.0,0.0,0.0,0.0,0.0,0.0,0.0,0.0,0.0,0.0,0.0,0.0,0.0,0.0,0.0,0.0,0.0,0.0,0.0,0.0,0.0,0.0,0.0,0.0,0.0,0.0,0.0,0.0,0.0,0.0,0.0,0.0,0.0,0.0,0.0,0.0,0.0,0.0,0.0,0.0,0.0,0.0,0.0,0.0,0.0,0.0,0.0,0.0,0.0,0.0,0.0,0.0,0.0,0.0,0.0,0.0,0.0,0.0,0.0,0.0,0.0,0.0,0.0,0.0,0.0,0.0,0.0,0.0,0.0,0.0,0.0,0.0,0.0,0.0,0.0,0.0,0.0,0.0,0.0,0.0,0.0,0.0,0.0,3.42,3.5451,3.6318,3.6335,3.6681,3.6559,3.5599,3.5098,3.3855,0.0,0.0,0.0,0.0,0.0,0.0,0.0,0.0,0.0,0.0,0.0,0.0,0.0,0.0,0.0,0.0,0.0,0.0,0.0,0.0,0.0,0.0,0.0,0.0,0.0,0.0,0.0,0.0,0.0,0.0,0.0,0.0,0.0,0.0,0.0,0.0,0.0,0.0,0.0,0.0,0.0,0.0,0.0,0.0,0.0,0.0,0.0,0.0,0.0,0.0,0.0,0.0,0.0,0.0,0.0,0.0,0.0,0.0,0.0,0.0,0.0,0.0,0.0,0.0,0.0,0.0,0.0,0.0,0.0,0.0,0.0,0.0,0.0,0.0,0.0,0.0,0.0,0.0,0.0,0.0,0.0,0.0,0.0,0.0,0.0,0.0,0.0,0.0,0.0,0.0,0.0,0.0,0.0,0.0,0.0,0.0,0.0,0.0,0.0,0.0,0.0,0.0,0.0,3.5651,3.6609,3.7379,3.7997,3.8374,3.8227,3.728,3.6424,3.4981,3.2755,0.0,0.0,0.0,0.0,0.0,0.0,0.0,0.0,0.0,0.0,0.0,0.0,0.0,0.0,0.0,0.0,0.0,0.0,0.0,0.0,0.0,0.0,0.0,0.0,0.0,0.0,0.0,0.0,0.0,0.0,0.0,0.0,0.0,0.0,0.0,0.0,0.0,0.0,0.0,0.0,0.0,0.0,0.0,0.0,0.0,0.0,0.0,0.0,0.0,0.0,0.0,0.0,0.0,0.0,0.0,0.0,0.0,0.0,0.0,0.0,0.0,0.0,0.0,0.0,0.0,0.0,0.0,0.0,0.0,0.0,0.0,0.0,0.0,0.0,0.0,0.0,0.0,0.0,0.0,0.0,0.0,0.0,0.0,0.0,0.0,0.0,0.0,0.0,0.0,0.0,0.0,0.0,0.0,0.0,0.0,0.0,0.0,0.0,0.0,0.0,0.0,0.0,3.6149,3.6991,3.7767,3.8698,3.9152,3.9033,3.8129,3.7743,3.6584,3.4416,0.0,0.0,0.0,0.0,0.0,0.0,0.0,0.0,0.0,0.0,0.0,0.0,0.0,0.0,0.0,0.0,0.0,0.0,0.0,0.0,0.0,0.0,0.0,0.0,0.0,0.0,0.0,0.0,0.0,0.0,0.0,0.0,0.0,0.0,0.0,0.0,0.0,0.0,0.0,0.0,0.0,0.0,0.0,0.0,0.0,0.0,0.0,0.0,0.0,0.0,0.0,0.0,0.0,0.0,0.0,0.0,0.0,0.0,0.0,0.0,0.0,0.0,0.0,0.0,0.0,0.0,0.0,0.0,0.0,0.0,0.0,0.0,0.0,0.0,0.0,0.0,0.0,0.0,0.0,0.0,0.0,0.0,0.0,0.0,0.0,0.0,0.0,0.0,0.0,0.0,0.0,0.0,0.0,0.0,0.0,0.0,0.0,0.0,0.0,0.0,0.0,0.0,3.6131,3.6999,3.7843,3.8911,3.9382,3.9352,3.8601,3.8969,3.8406,3.6361,0.0,0.0,0.0,0.0,0.0,0.0,0.0,0.0,0.0,0.0,0.0,0.0,0.0,0.0,0.0,0.0,0.0,0.0,0.0,0.0,0.0,0.0,0.0,0.0,0.0,0.0,0.0,0.0,0.0,0.0,0.0,0.0,0.0,0.0,0.0,0.0,0.0,0.0,0.0,0.0,0.0,0.0,0.0,0.0,0.0,0.0,0.0,0.0,0.0,0.0,0.0,0.0,0.0,0.0,0.0,0.0,0.0,0.0,0.0,0.0,3.4,0.0,0.0,0.0,0.0,0.0,0.0,0.0,0.0,0.0,0.0,0.0,0.0,0.0,0.0,0.0,0.0,0.0,0.0,0.0,0.0,0.0,0.0,0.0,0.0,0.0,0.0,0.0,0.0,0.0,0.0,0.0,0.0,0.0,0.0,0.0,0.0,0.0,0.0,0.0,0.0,0.0,3.737,3.8104,3.8938,4.0515,4.0787,4.066,4.0233,3.9928,3.9255,3.8136,0.0,0.0,0.0,0.0,0.0,0.0,0.0,0.0,0.0,0.0,0.0,0.0,0.0,0.0,0.0,0.0,0.0,0.0,0.0,0.0,0.0,0.0,0.0,0.0,0.0,0.0,0.0,0.0,0.0,0.0,0.0,0.0,0.0,0.0,0.0,0.0,0.0,0.0,0.0,0.0,0.0,0.0,0.0,0.0,0.0,0.0,0.0,0.0,0.0,0.0,0.0,0.0,0.0,0.0,0.0,0.0,0.0,0.0,0.0,0.0,0.0,3.6389,0.0,0.0,0.0,0.0,0.0,0.0,0.0,0.0,0.0,0.0,0.0,0.0,0.0,0.0,0.0,0.0,0.0,0.0,0.0,0.0,0.0,0.0,0.0,0.0,0.0,0.0,0.0,0.0,0.0,0.0,0.0,0.0,0.0,0.0,0.0,0.0,0.0,0.0,0.0,0.0,3.7746,3.8683,3.9646,4.115,4.1232,4.1117,4.0948,4.0683,4.0219,3.9521,3.8625,0.0,0.0,0.0,0.0,0.0,0.0,0.0,0.0,0.0,0.0,0.0,0.0,0.0,0.0,0.0,0.0,0.0,0.0,0.0,0.0,0.0,0.0,0.0,0.0,0.0,0.0,0.0,0.0,0.0,0.0,0.0,0.0,0.0,0.0,0.0,0.0,0.0,0.0,0.0,0.0,0.0,0.0,0.0,0.0,0.0,0.0,0.0,0.0,0.0,0.0,0.0,0.0,0.0,4.3173,4.3687,4.4288,4.4319,4.4673,4.4998,4.1869,4.0298,3.9947,0.0,0.0,0.0,0.0,0.0,0.0,0.0,0.0,0.0,0.0,0.0,0.0,0.0,0.0,0.0,0.0,0.0,0.0,0.0,0.0,0.0,0.0,0.0,0.0,0.0,4.165,4.137,0.0,0.0,0.0,0.0,0.0,0.0,0.0,0.0,0.0,0.0,0.0,0.0,3.7784,3.9043,4.0141,4.1338,4.1408,4.1346,4.1277,4.1323,4.1156,4.0682,4.0194,3.9539,0.0,0.0,0.0,0.0,0.0,0.0,0.0,0.0,0.0,0.0,0.0,0.0,0.0,0.0,0.0,0.0,0.0,0.0,0.0,0.0,0.0,0.0,0.0,0.0,0.0,0.0,0.0,0.0,0.0,0.0,0.0,0.0,3.3642,3.4715,0.0,0.0,0.0,0.0,0.0,0.0,0.0,0.0,0.0,0.0,0.0,0.0,0.0,4.2376,4.3218,4.417,4.4864,4.534,4.5784,4.6527,4.7467,4.7147,4.7461,4.8163,4.7282,0.0,4.3433,4.3503,0.0,0.0,0.0,0.0,0.0,0.0,0.0,0.0,0.0,0.0,0.0,0.0,0.0,0.0,0.0,0.0,0.0,0.0,0.0,0.0,0.0,0.0,4.2825,4.3501,4.3789,4.3895,0.0,4.2281,4.0822,4.0296,0.0,0.0,0.0,0.0,0.0,0.0,0.0,0.0,3.8071,3.9346,4.0463,4.1626,4.1892,4.187,4.1582,4.1805,4.1903,4.1711,4.1359,4.1192,4.1306,3.9504,0.0,0.0,0.0,0.0,0.0,0.0,0.0,0.0,0.0,0.0,0.0,0.0,0.0,0.0,0.0,0.0,0.0,0.0,0.0,0.0,0.0,0.0,0.0,0.0,0.0,0.0,0.0,0.0,0.0,3.3601,3.5372,3.693,3.7344,3.7548,0.0,0.0,0.0,0.0,0.0,0.0,0.0,0.0,0.0,4.2864,4.3896,4.493,4.5958,4.6507,4.7139,4.7896,4.8514,4.9116,4.9684,4.9906,5.0354,5.0881,5.0679,4.9764,4.8315,4.6699,4.5509,4.4603,0.0,0.0,0.0,0.0,4.2105,4.2099,4.253,4.292,0.0,0.0,0.0,0.0,0.0,0.0,0.0,0.0,0.0,0.0,0.0,0.0,0.0,4.5305,4.5488,4.5645,4.581,4.5146,4.42,0.0,4.1763,4.048,3.9183,0.0,0.0,0.0,0.0,0.0,3.9031,4.0266,4.1248,4.1899,4.2103,4.2163,4.2016,4.2142,4.2207,4.2169,4.2151,4.2065,4.1957,4.124,4.0577,0.0,0.0,0.0,0.0,0.0,0.0,0.0,0.0,0.0,0.0,0.0,0.0,0.0,0.0,0.0,0.0,0.0,0.0,0.0,0.0,0.0,0.0,0.0,0.0,0.0,0.0,0.0,0.0,3.5185,3.6926,3.9063,3.9468,3.9708,0.0,0.0,0.0,0.0,0.0,0.0,4.3006,4.4102,4.5089,4.5904,4.6369,4.7125,4.8142,4.8263,4.8715,4.9518,5.03,5.0883,5.1258,5.1855,5.2399,5.286,5.2681,5.2439,5.1962,4.9302,4.8032,4.7666,4.6888,4.642,4.6152,4.6204,4.6144,4.6092,4.6367,4.6597,4.679,4.6914,0.0,4.6667,4.568,0.0,0.0,0.0,0.0,4.4742,4.4817,4.5575,4.6332,4.6471,4.659,4.6684,4.6819,4.6842,4.6456,0.0,4.3607,4.2359,4.1712,0.0,0.0,0.0,0.0,3.9307,4.0328,4.1274,4.2051,4.2534,4.2696,4.2846,4.3043,4.2882,4.2797,4.2877,4.2857,4.2723,4.2495,4.2527,4.2143,4.1303,0.0,0.0,0.0,0.0,0.0,0.0,0.0,0.0,0.0,0.0,0.0,0.0,0.0,0.0,0.0,0.0,0.0,0.0,0.0,0.0,0.0,0.0,0.0,0.0,0.0,0.0,0.0,0.0,0.0,4.1257,4.1657,0.0,0.0,0.0,0.0,4.3678,4.4273,4.4898,4.5582,4.6641,4.734,4.7561,4.8405,4.9023,4.9406,4.9436,4.9453,4.9518,5.0455,5.1326,5.2132,5.2351,5.2964,5.3803,5.3154,5.2967,5.2997,5.1192,5.0152,4.9687,4.8783,4.8612,4.8778,4.8652,4.8735,4.8921,4.9061,4.9109,4.9133,4.9293,4.9114,4.8664,4.7575,4.7602,0.0,0.0,4.6535,4.7074,4.6449,4.6435,4.6613,4.6731,4.6795,4.6819,4.6957,4.6998,4.6748,0.0,4.5601,4.4928,4.3209,0.0,4.2065,4.1428,4.1261,4.1411,4.1919,4.2154,4.2696,4.3788,4.3981,4.4311,4.5073,4.4438,4.4061,4.4194,4.356,4.3286,4.3507,4.2987,4.2745,4.2889,4.1334,0.0,0.0,0.0,0.0,0.0,0.0,0.0,0.0,0.0,0.0,0.0,0.0,0.0,0.0,0.0,0.0,0.0,0.0,0.0,0.0,0.0,0.0,0.0,0.0,0.0,0.0,0.0,0.0,4.3023,4.3932,0.0,4.5253,4.5346,4.5507,4.5788,4.6514,4.7068,4.7445,4.831,4.8761,4.8855,4.9171,4.9411,4.9619,4.9708,5.0066,5.0666,5.1608,5.2505,5.3294,5.3857,5.4408,5.4939,5.4671,5.4705,5.4847,5.376,5.266,5.1598,5.069,5.0441,5.0594,5.0449,5.0525,5.0634,5.0702,5.0827,5.0999,5.1144,5.0755,5.0145,4.9679,4.9315,4.8957,4.8376,4.814,4.7986,4.7748,4.7377,4.7057,4.712,4.712,4.7125,4.7187,4.7187,4.7097,4.6811,4.6199,4.548,4.4791,4.4192,4.3767,4.3535,4.318,4.3007,4.3214,4.3448,4.3748,4.4134,4.4779,4.5274,4.5471,4.4818,4.4418,4.4362,4.3761,4.3461,4.3646,4.3585,4.3654,4.389,4.2842,4.2224,0.0,0.0,0.0,0.0,0.0,0.0,0.0,0.0,0.0,0.0,0.0,0.0,0.0,0.0,0.0,0.0,0.0,0.0,0.0,0.0,0.0,0.0,0.0,0.0,0.0,0.0,4.308,4.4667,4.5818,4.6709,4.7221,4.7556,4.7733,4.7851,4.8487,4.8895,4.9016,4.9421,4.9619,4.9619,4.9619,4.9708,4.9854,5.004,5.0443,5.102,5.2207,5.3032,5.3601,5.469,5.5312,5.5566,5.5607,5.5793,5.6007,5.5253,5.4296,5.3225,5.2172,5.1685,5.1556,5.1479,5.1531,5.1632,5.1683,5.1858,5.2029,5.2102,5.1742,5.1293,5.1197,5.0773,5.0181,4.9615,4.9096,4.8601,4.8128,4.764,4.7276,4.7341,4.7323,4.7323,4.7407,4.7407,4.7385,4.7446,4.6793,4.6235,4.6226,4.5881,4.5609,4.5744,4.4987,4.4477,4.4556,4.4489,4.4546,4.4894,4.5773,4.6434,4.6654,4.5975,4.5534,4.548,4.4576,4.4232,4.4689,4.4315,4.4319,4.4819,4.3828,4.3252,4.3114,0.0,0.0,0.0,0.0,0.0,0.0,0.0,0.0,0.0,0.0,0.0,0.0,0.0,0.0,0.0,0.0,0.0,0.0,0.0,0.0,0.0,0.0,0.0,4.0564,4.2354,4.4377,4.6133,4.7305,4.8324,4.9161,4.9632,4.9924,4.9924,5.0228,5.0359,5.0217,5.0028,4.9924,4.9924,4.9924,5.0028,5.0217,5.0464,5.0564,5.0495,5.2136,5.2927,5.3026,5.4747,5.5596,5.5735,5.5861,5.6116,5.6357,5.5562,5.4979,5.4414,5.3181,5.2302,5.169,5.169,5.1783,5.1907,5.2054,5.2198,5.2287,5.2174,5.2108,5.2126,5.2126,5.2011,5.1609,5.0032,4.949,4.9038,4.7639,4.7272,4.7303,4.7468,4.7407,4.7407,4.7657,4.7615,4.7554,4.7699,4.7493,4.7367,4.7493,4.7636,4.7804,4.7992,4.674,0.0,4.5957,4.5277,4.5164,4.6149,4.6979,4.7827,4.873,4.7938,4.7476,4.76,4.6062,4.5621,4.6669,4.5212,4.4803,4.573,4.4357,4.3283,4.258,0.0,0.0,0.0,0.0,0.0,0.0,0.0,0.0,0.0,0.0,0.0,0.0,0.0,0.0,0.0,0.0,0.0,0.0,0.0,0.0,0.0,0.0,4.2861,4.2613,4.4671,4.6516,4.7356,4.8707,4.97,5.004,5.02,5.0257,5.0257,5.0341,5.0425,5.0492,5.0341,5.0313,5.0391,5.0296,5.0341,5.0492,5.064,5.1074,5.1735,5.2858,5.3707,5.4307,5.5483,5.6067,5.6235,5.6355,5.6519,5.6671,5.6455,5.6003,5.5285,5.3532,5.2378,5.1665,5.1487,5.1556,5.179,5.2132,5.234,5.2475,5.2577,5.2604,5.2581,5.2495,5.2449,5.2289,5.1705,5.107,5.0381,4.9401,4.8802,4.8338,4.7954,4.7832,4.787,4.8092,4.807,4.805,4.8172,4.8153,4.8055,4.7891,4.8055,4.8269,4.842,4.7701,0.0,4.7194,4.704,4.7051,4.7326,4.8205,4.8833,4.9005,4.8298,4.7833,4.7812,4.6842,4.6483,4.6961,4.6509,4.645,4.6847,4.6619,4.642,0.0,0.0,0.0,0.0,0.0,0.0,0.0,0.0,0.0,0.0,0.0,0.0,0.0,0.0,0.0,0.0,0.0,0.0,0.0,0.0,0.0,0.0,4.3006,4.438,4.5044,4.6606,4.7768,4.8127,4.9513,5.0464,5.0564,5.0637,5.0692,5.0692,5.0747,5.0811,5.0892,5.0774,5.0719,5.0811,5.0747,5.0729,5.0857,5.1088,5.1423,5.1927,5.2839,5.346,5.3847,5.5184,5.5819,0.0,5.6456,5.6768,5.6863,5.6565,5.6053,0.0,0.0,0.0,0.0,0.0,5.1804,5.2024,5.2327,5.249,5.2622,5.2761,5.2806,5.2783,5.2698,5.2608,5.2463,5.2012,5.1463,5.0762,4.9739,4.9217,4.8826,4.8331,4.819,4.8249,4.8532,4.8532,4.8532,4.8658,4.8748,0.0,4.8569,4.8604,4.8694,4.8819,4.8302,4.7911,4.7911,4.7943,4.7988,4.805,4.8893,4.9446,4.9411,4.8998,0.0,0.0,0.0,4.7448,4.7312,4.7661,0.0,0.0,0.0,4.7809,4.7972,0.0,0.0,0.0,4.6042,4.6216,0.0,0.0,0.0,0.0,0.0,0.0,0.0,0.0,0.0,0.0,0.0,0.0,0.0,0.0,0.0,0.0,4.4845,4.5725,4.7459,4.8106,4.8487,4.8695,4.9978,5.0884,5.0884,5.1043,5.1132,5.1132,5.1246,5.1324,5.1333,0.0,0.0,0.0,0.0,5.1202,5.1288,5.1597,5.169,5.1607,5.2475,5.2755,5.2599,5.4358,5.5169,5.5231,5.6193,5.668,5.6754,5.6149,5.5511,5.4862,5.4508,5.3941,5.3201,5.2479,5.2297,5.2431,5.2586,0.0,0.0,5.285,5.2872,5.2853,5.274,5.2607,5.23,5.1552,5.1176,5.0723,4.9445,4.9156,4.9109,4.8659,4.8513,4.8587,4.8956,4.8991,4.901,4.9137,4.927,4.9371,4.9368,4.9206,4.9125,4.9244,4.8749,4.8386,4.8386,4.8401,4.846,4.8565,0.0,0.0,4.9835,4.9816,4.9848,4.983,4.9191,4.8549,4.7952,4.8724,4.8848,4.8133,4.819,4.8318,4.8527,4.8581,4.9045,4.9852,4.8991,4.8657,0.0,0.0,0.0,0.0,0.0,0.0,0.0,0.0,0.0,0.0,0.0,0.0,0.0,0.0,0.0,4.5094,4.5894,4.6861,4.8074,4.8835,4.9434,4.992,5.0791,5.141,5.1538,5.1479,5.1428,5.1428,5.1454,5.1505,5.1615,5.1607,0.0,5.1733,5.1658,5.169,5.192,5.1987,5.209,5.2239,0.0,0.0,5.3399,5.4526,5.5051,5.5051,5.5383,5.5509,5.5533,5.5411,5.4975,5.4259,5.334,5.2834,5.256,5.2415,5.2454,5.2568,5.2698,5.2915,5.3127,5.3193,5.3277,5.3228,5.2463,5.2199,0.0,5.1728,5.1673,5.1496,5.0586,5.0492,5.0321,4.9189,4.8887,4.8973,4.9331,4.9349,4.9384,4.9611,4.9688,4.9717,4.9769,4.9655,4.957,4.9604,4.958,4.9583,4.9583,4.9625,4.9646,4.9692,4.9897,5.0031,5.0044,5.0044,5.007,5.0114,5.009,4.9989,4.9862,5.0134,5.0218,5.0057,5.0171,5.0312,5.0465,5.0518,5.0688,5.0884,5.0019,4.9955,0.0,0.0,0.0,0.0,0.0,0.0,0.0,0.0,0.0,0.0,0.0,4.2743,0.0,0.0,4.5829,4.6266,4.6807,4.7474,4.8412,4.9275,4.9998,5.0527,5.1307,5.1833,5.1889,5.1858,5.1808,5.1808,5.1808,5.1864,5.1987,5.2011,5.206,5.2138,5.209,5.2342,5.2929,5.2947,5.3,5.3116,5.3515,5.345,5.3041,5.3974,5.4407,5.4426,5.4984,5.5235,5.5286,5.4979,5.4448,5.3784,5.3256,5.294,5.2806,5.2853,5.2879,5.2984,5.3091,5.3254,5.3357,5.338,5.3481,5.3394,5.2502,5.2242,5.213,5.1551,5.144,5.1334,5.0562,5.0491,5.0411,4.9468,4.9302,4.9427,4.9736,4.9778,4.9811,4.9999,5.0057,5.007,5.0089,5.0082,5.0018,4.9912,4.9999,5.0089,5.0089,5.0133,5.017,5.0194,5.0231,5.0267,5.0302,5.0302,5.0497,5.0967,5.1094,5.1177,5.1209,5.1328,5.119,5.0754,5.0882,5.0986,5.1042,5.1076,5.1125,5.1194,5.0801,5.0826,0.0,0.0,0.0,0.0,0.0,0.0,0.0,0.0,4.2374,4.3786,4.4183,4.4705,4.6065,4.6446,4.6753,4.7342,4.7536,4.7868,4.8681,4.9586,5.0379,5.0953,5.1717,5.218,5.2204,5.2198,5.218,5.2204,5.2204,5.2233,5.2351,5.2392,5.2421,5.2495,5.2645,5.3113,5.3923,5.4109,5.4114,5.3972,5.3972,5.3486,5.2631,5.3417,5.3754,5.379,5.4537,5.4942,5.5016,5.4528,5.4031,5.3559,5.3559,5.3459,5.3314,5.3318,5.3341,5.3381,5.3481,5.3541,5.358,5.358,5.364,5.3514,5.2549,5.2252,5.2066,5.1213,5.1009,5.0897,5.0316,5.0284,5.0295,4.9747,4.9698,4.9843,5.0108,5.0158,5.0194,5.0314,5.0348,5.0348,5.0348,5.0416,5.0393,5.0194,5.0267,5.0337,5.0337,5.0337,5.0359,5.0412,5.0424,5.0457,5.0513,5.0677,5.1092,5.1807,5.2058,5.2156,5.2038,5.2153,5.1803,5.096,5.1041,5.1095,5.1108,5.1105,5.1159,5.1229,5.1273,5.131,4.0793,4.0609,4.1008,4.2664,4.2958,4.3306,0.0,0.0,4.5085,4.5327,4.5906,4.6448,4.669,4.733,4.7822,4.7913,4.7931,4.8243,4.9024,4.9843,5.0645,5.1446,5.2064,5.248,5.254,5.2485,5.248,5.254,5.2545,5.2545,5.2586,5.2694,5.2739,5.2761,5.3547,5.4118,5.4341,5.5162,5.5248,5.4598,5.4598,5.4174,5.338,5.3492,5.3529,5.3547,5.364,5.3739,5.3802,5.373,5.3734,5.3774,5.3774,5.3755,5.3716,5.3541,5.3502,5.3583,5.3564,5.3719,5.3851,5.3851,5.3944,5.3756,5.2171,5.1685,5.1535,5.0781,5.064,5.0753,5.0782,5.0851,5.0775,5.0163,5.0038,5.012,5.0314,5.0367,5.039,5.0468,5.0521,5.0572,5.0572,5.0615,5.0596,5.0412,5.0435,5.0478,5.0478,5.0478,5.0489,5.0489,5.0489,5.0513,5.0586,5.1347,5.1895,5.2067,5.2809,5.2931,5.2197,5.2202,5.1854,5.1087,5.1095,5.1093,5.1099,5.1155,5.1215,5.1282,5.1306,5.131,4.175,4.2138,4.278,0.0,4.4631,4.5257,4.647,4.6673,4.6746,4.7243,4.7553,4.7733,4.7676,4.793,4.809,0.0,4.807,4.8238,4.8585,4.9375,5.0035,5.0302,5.1365,5.2247,5.2684,5.2757,5.2802,5.2828,5.2857,5.3145,5.3686,5.3766,5.4051,5.4592,5.4988,5.5454,5.6012,5.6472,5.6277,5.5523,5.5547,5.49,5.3659,5.3659,5.3659,5.3678,5.3718,5.3738,5.3776,5.3851,5.3926,5.3981,5.4018,5.4018,5.4,5.3813,5.3813,5.3907,5.3944,5.4072,5.4198,5.4198,5.4268,5.4112,5.2949,5.2287,5.1791,5.102,5.0512,5.0255,5.0396,5.0472,5.0501,5.0307,5.0267,5.0325,5.0483,5.0525,5.0556,5.0654,5.0692,5.0721,5.0721,5.0757,5.0794,5.0692,5.0673,5.0673,5.0673,5.0673,5.0866,5.1366,5.1896,5.2194,5.2223,5.2597,5.3038,5.3586,5.3978,5.4067,5.3731,5.3781,5.321,5.1878,5.2391,5.2419,5.1914,5.2441,5.2494,5.2068,5.206,5.1799,4.2995,4.3703,0.0,4.5493,4.6214,4.686,4.7693,4.7861,4.7992,4.8567,4.8624,4.855,4.8401,4.8325,4.8286,4.819,4.8267,4.8305,4.8305,4.9079,4.9705,4.9806,5.1053,5.2205,5.2886,5.302,5.3063,5.3066,5.3377,5.385,5.4562,5.4822,5.527,5.5986,5.6249,5.6656,5.7304,5.739,5.7045,5.6266,5.6083,5.5285,5.3982,5.3982,5.3982,5.3963,5.4018,5.4035,5.4072,5.4162,5.4233,5.4268,5.432,5.4354,5.4354,5.4196,5.4179,5.4233,5.4267,5.4388,5.4526,5.4526,5.4557,5.4468,5.3638,5.2874,5.217,5.1599,5.0906,5.0392,5.0792,5.0751,5.065,5.0804,5.0653,5.0504,5.0625,5.0663,5.071,5.0801,5.0836,5.0852,5.0852,5.0905,5.0956,5.0956,5.0913,5.0861,5.0836,5.1048,5.1511,5.2363,5.3045,5.343,5.343,5.3666,5.4078,5.4716,5.5017,5.5083,5.4854,5.4951,5.418,5.2449,5.3112,5.3157,5.2538,5.3174,5.3311,5.2953,5.2737,5.2321,4.4799,4.523,4.564,4.7295,4.7739,4.7998,4.8938,4.904,4.8939,4.889,4.884,4.8751,4.8624,4.8587,4.8587,4.8587,4.8587,4.8587,4.8587,4.927,5.0063,5.0759,5.1685,5.2553,0.0,5.3233,5.3212,5.3297,5.414,5.4724,5.488,5.5621,5.6127,5.6284,5.7109,5.7558,5.7595,5.7731,5.7397,5.6668,5.59,5.5112,5.4373,5.4373,5.4373,5.4373,5.4373,5.4424,5.447,5.4489,5.4554,5.4673,5.4673,5.472,5.4783,5.4767,5.4654,5.4505,5.4486,5.4622,5.4783,5.4783,5.4845,5.4735,5.3859,5.3068,5.2506,5.2536,5.1967,5.1603,5.2652,5.2283,5.1694,5.1905,5.1308,5.0701,5.0784,5.0846,5.0891,5.0899,5.0945,5.0986,5.0986,5.1053,5.1094,5.1094,5.1094,5.1046,5.0906,5.1641,5.2476,5.3273,5.3436,5.3503,5.3503,5.4335,5.4861,5.4881,5.5695,5.5802,5.5042,5.5003,5.4198,5.2529,5.26,5.2625,5.261,5.2685,5.3111,5.3832,5.3055,5.2671,4.4607,4.566,4.669,4.7788,4.8465,4.8933,4.9265,4.9257,4.9193,4.916,4.9044,4.8925,4.8872,4.8785,4.8732,4.8732,4.866,4.8808,4.9381,4.9695,5.0157,5.095,5.1821,0.0,0.0,0.0,0.0,5.3558,5.4477,5.5281,5.5859,5.6738,5.7524,5.8201,5.852,5.8427,5.7941,5.8051,5.7445,5.6088,5.5414,5.4966,5.4733,5.4733,5.4733,5.4733,5.4733,5.473,5.478,5.478,5.4795,5.4845,5.4886,5.4927,5.5,5.5057,5.5052,5.5004,5.4878,5.4912,5.5014,5.5038,5.508,5.505,5.4806,5.4186,5.3575,5.3637,5.3108,5.2631,5.3077,5.2992,5.2791,5.2904,5.2266,5.1666,5.1768,5.1366,5.0975,5.1017,5.1046,5.106,5.106,5.1095,5.1128,5.1166,5.1127,5.128,5.1763,5.2596,5.3441,5.4305,5.4928,5.5292,5.5292,5.5622,5.5831,5.5831,5.6149,5.6218,5.595,5.593,5.541,5.4314,5.4886,5.4908,5.4323,5.4938,5.5067,5.4767,5.4474,5.3762,4.5451,4.6662,4.7823,4.8607,4.92,4.9581,4.9551,4.9525,4.9464,4.9418,4.9273,4.9125,4.9127,4.9029,4.8945,4.8945,4.9097,4.9432,4.9989,5.0359,5.0842,5.1658,5.2252,5.2735,0.0,0.0,0.0,5.3793,5.4988,5.5996,5.6538,5.7735,5.8709,5.9345,5.9101,5.8724,5.8284,5.7765,5.6844,5.5545,5.5217,5.5028,5.5014,5.5014,5.5014,5.5014,5.5014,5.5028,5.5042,5.5042,5.5042,5.5042,5.5099,5.5162,5.5255,5.5288,5.5351,5.542,5.5189,5.5149,5.5229,5.5294,5.5314,5.5371,5.5432,5.468,5.3895,5.4235,5.3598,5.2945,5.3656,5.3597,5.3479,5.3846,5.329,5.2694,5.2773,5.2374,5.2007,5.2065,5.2059,5.2071,5.2071,5.207,5.2088,5.2125,5.2096,5.2233,5.2737,5.3559,5.4412,5.5271,5.5887,5.625,5.6245,5.6285,5.6317,5.6329,5.6389,5.6397,5.6398,5.6392,5.6024,5.5217,5.5757,5.5753,5.5207,5.5784,5.5948,5.5684,5.5376,5.4664,4.7205,4.8179,4.8941,4.9737,4.9906,4.9912,4.9848,4.9821,4.9778,4.9653,4.951,4.9399,4.934,4.9276,4.9211,4.9211,4.9886,5.0428,5.0465,5.123,5.2071,0.0,0.0,0.0,0.0,0.0,0.0,5.3981,0.0,5.6797,5.6905,5.8573,5.9562,5.9658,5.8902,5.8516,5.8502,5.6888,5.5745,5.5121,5.5255,5.5281,5.5229,5.5229,5.5229,5.5229,5.521,5.5268,5.532,5.532,5.532,5.532,5.532,5.5408,5.5516,5.5516,5.5596,5.5673,5.5413,5.5371,5.5432,5.5485,5.5562,5.5618,5.5684,5.466,5.3609,5.4381,5.3507,5.2721,5.4374,5.4189,5.3809,5.4745,5.4342,5.3773,5.3773,5.3784,5.3805,5.3805,5.3807,5.3803,5.3803,5.3803,5.3798,5.3798,5.3837,5.385,5.378,5.4492,5.5314,5.6116,5.6278,5.631,5.6302,5.6308,5.6325,5.6391,5.6397,5.6403,5.6409,5.6414,5.604,5.5276,5.5274,5.5262,5.5262,5.5345,5.5783,5.6582,5.5751,5.5344,4.7384,4.7963,4.8457,4.9837,5.0207,5.0194,5.0101,5.007,5.0005,4.9912,4.9788,4.9688,4.9673,4.9589,4.9498,4.9498,5.0131,0.0,5.1434,5.2221,0.0,5.3909,0.0,5.4228,5.4482,5.4619,0.0,0.0,5.6114,5.7005,5.7058,5.8795,5.9533,5.8967,5.8801,5.8179,5.7035,5.6074,5.553,5.5408,5.5432,5.5444,5.5413,5.5413,5.5413,5.5432,5.548,5.5516,5.5527,5.5573,5.5596,5.5596,5.5596,5.5654,5.571,5.571,5.5818,5.5913,5.5856,5.5728,5.564,5.5698,5.5739,5.5769,5.5894,5.5668,5.5294,5.4868,5.4479,5.4314,5.4767,5.4749,5.4841,5.5734,5.5281,5.4677,5.4739,5.4249,5.3798,5.3799,5.3842,5.3851,5.3813,5.3789,5.3804,5.3803,5.4343,5.4766,5.4744,5.4939,5.5411,5.6255,5.6364,5.637,5.6375,5.6378,5.6383,5.6411,5.6457,5.648,5.6471,5.6465,5.6383,5.6165,5.6218,5.6247,5.6234,5.6257,5.6376,5.6591,5.6377,5.5913,4.7174,4.7949,4.8724,4.9609,4.9827,4.99,5.0225,4.9949,4.9761,5.0069,5.0031,4.9925,4.9925,4.9816,4.9721,0.0,0.0,0.0,5.1974,5.2768,5.361,0.0,5.4698,0.0,5.4814,5.4897,5.5112,0.0,5.661,5.7302,5.7315,5.871,5.9326,5.8916,5.8234,5.7311,5.6116,5.5693,5.5527,5.5585,5.5585,5.5585,5.5585,5.5585,5.5596,5.5629,0.0,5.5703,5.5724,5.5766,5.5787,5.5788,5.5788,5.5856,5.5929,5.5928,5.5999,5.6102,5.6099,5.6004,5.5919,5.5929,5.5919,5.5954,5.6059,5.5869,5.5525,5.5021,5.4654,5.4517,5.4886,5.5027,5.525,5.6147,5.5993,5.5663,5.5716,5.5336,5.4979,5.4972,5.5022,5.503,5.4995,5.4976,5.4972,5.4979,5.5403,5.5715,5.5715,5.5697,5.5861,5.6352,5.6402,5.6393,5.6403,5.642,5.6445,5.6434,5.6471,5.6511,5.6503,5.6492,5.6506,5.6541,5.6585,5.6609,5.6593,5.6597,5.6599,5.6599,5.6601,5.6347,4.6799,4.7866,4.8999,4.9035,4.9064,4.9245,4.9939,4.9603,4.9343,5.0023,5.0166,5.0158,5.0145,5.0044,4.9939,4.9857,0.0,5.132,5.2077,5.2986,5.3882,5.4781,5.4966,5.5071,5.5135,5.5135,5.5511,5.6401,5.7163,5.7644,5.7801,5.8611,5.8994,5.8911,5.7379,5.6271,5.5649,5.5629,5.5682,5.5724,5.5724,5.5724,5.5724,5.5724,5.5756,5.5807,0.0,0.0,5.5914,5.5924,5.5923,5.5938,5.5938,5.601,5.6137,5.6129,5.6172,5.6226,5.624,5.6226,5.6214,5.6148,5.6133,5.6132,5.6213,5.5741,5.5161,5.505,5.4527,5.4159,5.4923,5.5103,5.5336,5.6212,5.6453,5.6496,5.6496,5.6494,5.6508,5.6508,5.6511,5.6511,5.6511,5.6511,5.6508,5.6504,5.6501,5.6501,5.6501,5.6444,5.6412,5.6412,5.6412,5.6416,5.6414,5.6473,5.6494,5.6508,5.6514,5.6509,5.6511,5.6513,5.6541,5.6594,5.6594,5.6595,5.6596,5.6601,5.6601,5.6601,5.6597,5.6592,4.6716,4.7095,4.7472,4.8135,4.8336,4.8393,4.8472,4.8942,0.0,0.0,4.998,5.0404,5.0367,5.0278,5.0219,5.0139,5.085,0.0,0.0,0.0,5.3987,0.0,0.0,0.0,0.0,0.0,0.0,0.0,0.0,5.8272,5.889,5.9185,5.8722,5.7426,5.6456,5.591,5.5855,5.5855,5.5846,5.5875,5.5875,5.5875,5.5875,5.5875,5.5875,5.5885,5.5933,0.0,5.5986,5.6048,5.6106,5.6156,5.6156,5.6206,5.6272,5.6278,5.6321,5.6364,5.637,5.6375,5.6345,5.6284,5.6272,5.6284,5.6339,5.6278,5.6016,5.5278,5.501,5.4994,5.5135,5.517,5.5399,5.6273,5.6494,5.6498,5.6498,5.6491,5.6506,5.6499,5.6547,5.6571,5.6504,5.6502,5.6494,5.6508,5.6501,5.6501,5.6501,5.6491,5.6484,5.6484,5.6487,5.6471,5.6475,5.6484,5.6499,5.6502,5.6557,5.6587,5.6589,5.6589,5.6593,5.6598,5.6598,5.6601,5.6601,5.66,5.6599,5.6596,5.6594,5.6609,4.618,4.6581,4.6978,4.7382,4.7496,4.7745,4.864,0.0,0.0,4.9912,5.0356,5.0586,5.0556,5.0502,5.0427,5.0371,5.0669,0.0,0.0,0.0,0.0,0.0,0.0,0.0,0.0,0.0,0.0,0.0,0.0,5.9015,5.9336,5.91,5.8188,5.6532,5.6116,5.5932,5.5996,5.5969,5.5969,5.5996,5.5969,5.5969,5.5996,5.5996,5.6014,5.6051,5.6095,0.0,5.6106,5.6145,5.6197,5.6252,5.6246,5.6284,5.635,5.6347,5.6368,5.6393,5.6446,5.6455,5.6444,5.6416,5.6373,5.6359,5.6422,5.6455,5.6351,5.5954,5.5845,5.5876,5.5886,5.5886,5.5982,5.6391,5.6538,5.6547,5.6547,5.6552,5.6557,5.6543,5.6585,5.6587,5.6563,5.6543,5.6559,5.655,5.6547,5.6547,5.6547,5.6547,5.6541,5.6497,5.6492,5.6499,5.6499,5.6534,5.6543,5.6543,5.6589,5.6594,5.6597,5.6599,5.6601,5.6601,5.6601,5.66,5.6597,5.6594,5.6589,5.6541,5.6556,5.6547,4.5735,4.6169,4.6645,4.6645,4.6653,4.7075,4.8621,4.8646,0.0,5.0265,5.0666,5.0738,5.0729,5.0693,5.0614,0.0,5.0492,5.0689,0.0,0.0,0.0,0.0,0.0,0.0,0.0,0.0,0.0,0.0,0.0,0.0,5.9331,5.8829,5.7763,5.6112,5.6035,5.607,5.6118,5.6067,5.6067,5.6118,5.6067,5.6067,5.6118,5.6118,5.6153,5.6202,5.6202,0.0,0.0,5.6213,5.6253,5.6321,5.6325,5.6352,5.6427,5.6426,5.6425,5.6422,5.6476,5.6491,5.6504,5.6508,5.6468,5.6422,5.6476,5.6491,5.6504,5.6508,5.6491,5.6494,5.6517,5.6519,5.6515,5.6515,5.6566,5.6593,5.6593,5.6593,5.6593,5.6594,5.6595,5.6595,5.6595,5.6595,5.6595,5.6595,5.6595,5.6595,5.6595,5.6596,5.6571,5.6532,5.652,5.6527,5.6528,5.6573,5.6597,5.6597,5.6598,5.66,5.6601,5.6601,5.6601,5.6598,5.6595,5.6592,5.6591,5.6584,5.6554,5.6504,5.6509,5.6494,4.58,4.5792,4.5816,4.5816,4.5866,4.6155,4.71,0.0,4.8725,4.9616,5.0372,5.0874,5.0872,5.0829,5.0766,5.0692,5.0673,5.0712,5.0769,0.0,0.0,0.0,0.0,0.0,0.0,0.0,0.0,0.0,0.0,0.0,5.876,5.8684,5.7905,5.6223,5.6185,5.6179,5.6201,5.6175,5.6175,5.6181,5.6175,5.6175,5.6181,5.6181,5.6181,5.6207,5.6207,0.0,0.0,5.6296,5.6328,5.6396,5.6396,5.6422,5.6494,5.6494,5.6498,5.6498,5.6498,5.6501,5.6504,5.65,5.6494,5.6498,5.6501,5.6501,5.6504,5.65,5.6494,5.6506,5.6575,5.6585,5.6591,5.6591,5.6592,5.6593,5.6593,5.6593,5.6594,5.6598,5.6599,5.6599,5.6599,5.6599,5.6599,5.6599,5.6599,5.6599,5.6599,5.6601,5.6601,5.6581,5.6597,5.6594,5.6598,5.6601,5.6601,5.66,5.6598,5.6596,5.6595,5.6595,5.6594,5.6594,5.6593,5.6609,5.6602,5.6534,5.6504,5.6509,5.6494,5.6504,4.5893,4.5821,4.5757,4.5757,4.5771,4.618,4.7627,0.0,4.8883,5.0266,5.0794,5.1024,5.1017,5.096,5.0909,5.0874,5.0841,5.0825,5.0825,0.0,0.0,0.0,0.0,0.0,0.0,0.0,0.0,0.0,0.0,0.0,5.8772,5.8748,5.8,5.6374,5.6314,5.6331,5.6322,5.6319,5.6329,5.6329,5.6329,5.6329,5.6329,5.6329,5.6329,5.6329,5.6328,0.0,0.0,5.6359,5.6387,5.6406,5.6437,5.6797,5.7272,5.7283,5.7604,5.8068,5.8068,5.8053,5.7981,5.7496,5.7338,5.7237,5.6721,5.6567,5.6554,5.6559,5.6563,5.6566,5.6588,5.6596,5.66,5.6601,5.6601,5.6601,5.6601,5.6601,5.6601,5.66,5.66,5.66,5.66,5.66,5.66,5.66,5.66,5.66,5.66,5.6599,5.6598,5.6598,5.6601,5.6601,5.66,5.6599,5.6597,5.6596,5.6594,5.6593,5.6593,5.6609,5.6606,5.6606,5.6602,5.6573,5.6543,5.6519,5.6503,5.6498,5.651,5.65,4.5986,4.5911,4.5854,4.5854,4.6041,4.6622,0.0,0.0,4.9349,5.0817,5.1115,5.1089,5.1089,5.1055,5.102,5.102,5.0998,5.106,5.1307,5.2615,0.0,0.0,0.0,0.0,0.0,0.0,0.0,0.0,0.0,0.0,0.0,5.8606,5.7859,5.6461,5.6422,5.6435,5.642,5.6437,5.643,5.6434,5.6434,5.6437,5.6425,5.6425,5.6425,5.6422,0.0,0.0,0.0,5.6433,5.6434,5.6462,5.6767,5.7277,5.7865,5.8092,5.8566,5.9105,5.9108,5.9092,5.9017,5.8433,5.8082,5.775,5.7143,5.6789,5.6593,5.6593,5.6595,5.6597,5.6599,5.6601,5.66,5.6598,5.6596,5.6593,5.6593,5.6593,5.6593,5.6593,5.6593,5.6593,5.6593,5.6593,5.6592,5.661,5.6609,5.6589,5.6567,5.6567,5.6566,5.6564,5.6568,5.6571,5.6609,5.6588,5.6566,5.6564,5.6561,5.6579,5.6579,5.6575,5.6573,5.6573,5.6565,5.6555,5.6506,5.6497,5.6498,5.6465,5.648,5.6464,4.6106,4.6061,4.5997,4.5997,4.6608,4.7424,0.0,4.9262,5.0145,5.1028,5.1147,5.1099,5.1099,5.1108,5.1094,5.1094,5.1094,5.1405,5.2259,5.3094,0.0,0.0,0.0,0.0,0.0,0.0,0.0,0.0,0.0,0.0,0.0,5.8188,5.735,5.6512,5.6492,5.6503,5.6501,5.6501,5.6491,5.6506,5.6506,5.6494,5.6506,5.6506,5.6506,0.0,0.0,0.0,0.0,5.651,5.6508,5.6584,5.7445,5.783,5.7999,5.878,5.9092,5.9094,5.9099,5.91,5.9101,5.9082,5.8495,5.7791,5.7791,5.7226,5.6593,5.6593,5.6599,5.6601,5.66,5.6597,5.6593,5.6593,5.6593,5.6593,5.6593,5.6593,5.6593,5.6593,5.6593,5.6593,5.6593,5.6593,5.6591,5.6603,5.6602,5.6579,5.6508,5.6508,5.6504,5.6509,5.6509,5.6538,5.658,5.6534,5.6502,5.6509,5.6494,5.6504,5.6504,5.65,5.6509,5.6509,5.6509,5.6509,5.6506,5.6494,5.6465,5.6409,5.6402,5.6398,4.6164,4.6555,4.6956,4.6956,4.7558,4.8397,4.9282,4.9736,5.0199,5.1021,5.1171,5.1166,5.1166,5.1169,5.1173,5.1173,5.1173,5.147,0.0,0.0,0.0,0.0,0.0,0.0,0.0,0.0,0.0,0.0,0.0,0.0,0.0,5.9114,5.7989,5.655,5.6503,5.6494,5.6508,5.6556,5.6873,5.7461,5.7461,5.7736,5.8285,5.8285,0.0,0.0,0.0,0.0,0.0,5.7638,5.7397,5.7354,5.7096,5.7729,5.8808,5.9023,5.9843,6.0879,6.0874,6.0871,6.0772,6.0179,5.9807,5.9343,5.815,5.724,5.66,5.66,5.6599,5.6597,5.6596,5.6591,5.6605,5.6605,5.66,5.6596,5.6596,5.6552,5.6526,5.6526,5.6538,5.6533,5.6533,5.6533,5.6531,5.6525,5.6525,5.6523,5.65,5.65,5.6497,5.6491,5.6491,5.6514,5.6525,5.65,5.6497,5.6491,5.6504,5.6501,5.6501,5.6508,5.6491,5.6491,5.6491,5.6504,5.6491,5.6449,5.6416,5.6398,5.6407,5.6397,4.6238,4.6823,4.7439,4.7439,4.829,0.0,4.9805,5.0228,5.0626,5.1128,5.123,5.1239,5.1239,5.1239,5.1239,5.1239,5.1511,5.2022,0.0,0.0,0.0,0.0,0.0,0.0,0.0,0.0,0.0,0.0,0.0,0.0,0.0,5.956,5.8609,5.7551,5.7494,5.748,5.7485,5.7528,5.7824,5.8392,5.8392,5.8648,5.9139,5.9139,0.0,0.0,0.0,0.0,0.0,5.8504,5.8294,5.8241,5.7733,5.8203,5.9157,5.9119,5.9997,6.1203,6.1209,6.1417,6.1566,6.1024,6.0422,5.9649,5.8222,5.7242,5.6593,5.6593,5.6591,5.6609,5.6609,5.6603,5.6596,5.6596,5.6586,5.656,5.656,5.6528,5.6497,5.6497,5.6491,5.6501,5.6501,5.6501,5.6501,5.6501,5.6501,5.6501,5.6494,5.6491,5.651,5.6503,5.6476,5.6453,5.6453,5.6461,5.6464,5.6464,5.6469,5.6461,5.6461,5.6469,5.6453,5.6453,5.6453,5.6465,5.6453,5.6383,5.6368,5.635,5.6347,5.6315,0.0,4.693,4.759,4.759,4.8853,5.0107,5.0088,5.0711,0.0,5.1295,5.1308,5.1304,5.1304,5.1308,5.1308,5.1308,5.2033,5.2917,0.0,0.0,0.0,0.0,0.0,0.0,0.0,0.0,0.0,0.0,0.0,0.0,0.0,5.9719,5.9311,5.9373,5.9312,5.9232,5.9114,5.9114,5.9174,5.9295,5.9295,5.9316,5.9373,5.9373,0.0,0.0,0.0,0.0,0.0,5.9216,5.9198,5.9199,5.9119,5.9096,5.9091,5.9091,5.9613,6.0308,6.0295,6.079,6.142,6.1423,6.0324,5.8841,5.8042,5.7224,5.6591,5.6591,5.6585,5.66,5.66,5.6593,5.6582,5.6582,5.6555,5.6506,5.6506,5.6491,5.6498,5.6498,5.6498,5.6494,5.6494,5.6494,5.6494,5.6494,5.6494,5.6487,5.6488,5.6488,5.648,5.6483,5.6441,5.6407,5.6383,5.6407,5.6405,5.6405,5.6398,5.6386,5.6386,5.6388,5.6383,5.6383,5.6383,5.6383,5.6398,5.6325,5.6296,5.629,5.6226,5.6192,4.63,0.0,4.8496,4.8496,4.9792,5.1064,0.0,5.1144,5.13,5.13,5.1303,5.1314,5.1378,5.1383,5.1386,5.1377,5.2101,5.2982,0.0,0.0,0.0,0.0,0.0,0.0,0.0,0.0,0.0,0.0,0.0,0.0,0.0,6.1191,6.1093,6.1113,6.1092,6.0467,5.9199,5.9179,5.9492,6.0113,6.0116,6.0466,6.1106,6.1106,0.0,0.0,0.0,0.0,6.1049,6.0367,6.0089,6.0038,5.9358,5.9097,5.91,5.91,5.9234,5.9405,5.9355,5.9459,5.9607,5.9607,5.8897,5.7985,5.7786,5.7157,5.6521,5.6521,5.6519,5.6516,5.6516,5.6525,5.6514,5.6514,5.6511,5.6508,5.6508,5.6464,5.6422,5.6422,5.6411,5.6427,5.6427,5.6427,5.6427,5.6427,5.6427,5.6422,5.6417,5.6417,5.6417,5.6427,5.6402,5.6372,5.6331,5.6372,5.6407,5.6407,5.6356,5.6314,5.6314,5.6277,5.6251,5.6251,5.6251,5.6258,5.6253,5.6233,5.6213,5.6223,5.6202,5.6194,4.6302,4.7526,4.8808,4.8808,5.0106,5.1383,5.1358,5.1349,5.1343,5.1343,5.1355,5.1369,5.1384,5.1398,5.1525,5.1939,5.2724,0.0,0.0,0.0,0.0,0.0,0.0,0.0,0.0,0.0,0.0,0.0,0.0,0.0,0.0,6.1696,6.1694,6.1694,6.1691,6.1261,6.0366,6.0349,6.0562,6.1006,6.1009,6.1242,6.1704,6.1704,6.1702,0.0,0.0,0.0,6.1665,6.1192,6.1009,6.092,6.0034,5.9692,5.9599,5.8799,5.8731,5.899,5.8558,5.865,5.8944,5.8949,5.836,5.7663,5.7691,5.7116,5.6459,5.6491,5.6497,5.6497,5.6497,5.6511,5.6501,5.6501,5.6494,5.6487,5.6461,5.6437,5.6407,5.6398,5.6393,5.6411,5.6411,5.6411,5.6411,5.6411,5.6411,5.6411,5.6411,5.6411,5.6386,5.635,5.6358,5.6335,5.6259,5.6278,5.631,5.6303,5.6272,5.6252,5.6252,5.6213,5.6199,5.6158,5.6117,5.6121,5.6118,5.6118,5.6102,5.6098,5.6082,5.6054,4.6302,4.7512,4.88,4.8798,5.012,5.1401,5.1401,5.1391,5.1403,5.1405,5.1406,5.14,5.1403,5.1399,0.0,0.0,0.0,0.0,0.0,0.0,0.0,0.0,0.0,0.0,0.0,0.0,0.0,0.0,0.0,0.0,0.0,6.1707,6.1705,6.1705,6.1704,6.1704,6.1704,6.1707,6.1708,6.1705,6.1707,6.1704,6.1696,6.1696,6.1709,0.0,0.0,0.0,6.167,6.1679,6.1674,6.161,6.088,6.0496,6.02,5.8577,5.832,5.868,5.7799,5.7946,5.8507,5.8507,5.7995,5.7437,5.7638,5.7177,5.6619,5.6831,5.6709,5.6498,5.6498,5.6498,5.6494,5.6494,5.65,5.6461,5.6405,5.6383,5.6373,5.6386,5.6375,5.637,5.637,5.6364,5.6364,5.6364,5.6475,5.6553,5.6553,5.6553,5.6528,5.6478,5.635,5.6239,5.6178,5.616,5.6172,5.6156,5.6153,5.6157,5.6141,5.6141,5.6125,5.6065,5.6003,5.5986,5.5986,5.5986,5.5986,5.5986,5.5922,5.5903,4.6309,4.7521,4.8807,4.88,5.0104,5.1392,5.1392,5.139,5.1392,5.1402,5.1391,5.1398,5.1405,5.1406,5.1698,0.0,0.0,0.0,0.0,0.0,0.0,0.0,0.0,0.0,0.0,0.0,0.0,0.0,0.0,0.0,0.0,6.1692,6.1705,6.1705,6.1696,6.171,6.171,6.1699,6.1702,6.1705,6.1696,6.1694,6.1703,6.1703,6.1696,0.0,0.0,6.1679,6.1628,6.1625,6.1615,6.1596,6.1471,6.0952,6.0194,5.9182,5.8428,5.7775,5.6899,5.6634,5.6703,5.6703,5.6605,5.6644,5.7383,5.7523,5.7589,5.8398,5.7598,5.65,5.65,5.6508,5.6496,5.6496,5.6459,5.6402,5.6398,5.6358,5.6319,5.6314,5.6265,5.6226,5.6226,5.6238,5.6236,5.6236,5.6818,5.7256,5.7256,5.7256,5.7237,5.723,5.6628,5.6164,5.6046,5.6037,5.6014,5.5942,5.6005,5.6014,5.5952,5.5943,5.5943,5.5933,5.5924,5.5924,5.5924,5.5924,5.5924,5.5924,5.5895,5.5905,4.6297,4.7511,4.8801,4.8799,5.0104,5.1409,5.1409,5.1393,5.1396,5.1399,5.1405,5.1406,0.0,0.0,0.0,0.0,0.0,0.0,0.0,0.0,0.0,0.0,0.0,0.0,0.0,0.0,0.0,0.0,0.0,0.0,0.0,0.0,6.1657,6.1657,6.1651,6.1648,6.1648,6.1649,6.1652,6.1657,6.1646,6.1646,6.1657,6.1657,6.1654,6.1648,0.0,6.1625,6.1595,6.1604,6.1592,6.1599,6.161,6.1363,6.0843,5.944,5.8382,5.7523,5.6644,5.6329,5.6297,5.6297,5.6628,5.7081,5.7482,5.7922,5.8387,5.8824,5.8413,5.7842,5.786,5.7856,5.773,5.7268,5.7118,5.6967,5.645,5.6325,5.6296,5.6259,5.6608,5.689,5.6849,5.7234,5.7548,5.7548,5.7878,5.811,5.811,5.7684,5.7405,5.74,5.6629,5.6065,5.6016,5.596,5.5933,5.5905,5.5923,5.5923,5.5895,5.5875,5.5846,5.5846,5.5816,5.5796,5.5796,5.5796,5.5796,5.5796,5.5745,5.5735,4.6305,4.7538,4.8828,4.8828,5.0116,5.1402,5.1402,5.1405,5.1464,5.166,5.1695,0.0,0.0,5.2694,0.0,0.0,0.0,0.0,0.0,0.0,0.0,0.0,0.0,0.0,0.0,0.0,0.0,0.0,0.0,0.0,0.0,0.0,6.1595,6.1595,6.1591,6.1607,6.1607,6.1604,6.1607,6.1595,6.1595,6.1595,6.1595,6.1595,6.1595,6.1607,6.1607,6.1584,6.1573,6.1576,6.1582,6.1578,6.1578,6.1452,6.111,5.9724,5.8634,5.78,5.7114,5.6758,5.6602,5.6602,5.7055,5.7638,5.7813,5.8486,5.9212,5.9437,5.9519,5.9468,5.909,5.8978,5.8817,5.8135,5.7969,5.772,5.68,5.6582,5.6576,5.6504,5.7024,5.7498,5.7641,5.8217,5.8626,5.8626,5.88,5.8858,5.8665,5.8045,5.7553,5.7364,5.6536,5.5979,5.5943,5.5895,5.5846,5.5846,5.5846,5.5855,5.5826,5.5776,5.5745,5.5735,5.5692,5.5651,5.5651,5.5651,5.5651,5.564,5.5596,5.5573,4.6308,4.7577,4.8885,4.8881,5.0155,5.1406,5.1406,5.1405,5.1638,5.2448,5.2614,0.0,0.0,0.0,0.0,0.0,0.0,0.0,0.0,0.0,0.0,0.0,0.0,0.0,0.0,0.0,0.0,0.0,0.0,0.0,0.0,0.0,0.0,6.1595,6.1596,6.1603,6.1603,6.1606,6.1595,6.1595,6.1595,6.1595,6.1595,6.1595,6.1604,6.1603,6.1603,6.1563,6.15,6.1519,6.1498,6.1509,6.1509,6.1005,6.0281,6.0158,5.951,5.87,5.8642,5.8137,5.7502,5.7502,5.7561,5.7735,5.8486,5.9322,6.019,6.0981,6.1227,6.0864,5.9318,5.8921,5.8896,5.8838,5.8815,5.8557,5.7696,5.7457,5.7409,5.7421,5.7362,5.7568,5.8372,5.8452,5.8422,5.8422,5.9108,5.9339,5.8529,5.8365,5.8046,5.7294,5.6435,5.5876,5.5826,5.5756,5.5714,5.5714,5.5714,5.5692,5.5618,5.5607,5.5585,5.5527,5.5516,5.5516,5.5516,5.5516,5.5516,5.5516,5.5516,5.5504,4.6237,4.75,4.8843,4.8839,5.0127,5.1402,5.1395,5.182,5.2298,5.2622,5.3091,0.0,0.0,0.0,0.0,0.0,0.0,0.0,0.0,0.0,0.0,0.0,0.0,0.0,0.0,0.0,0.0,0.0,0.0,0.0,0.0,0.0,0.0,6.1595,6.1606,6.1602,6.1602,6.1592,6.1597,6.1595,6.1595,6.1595,6.1595,6.1595,6.1591,6.1602,6.1568,6.151,6.1489,6.1493,6.1495,6.1503,6.1503,6.1271,6.089,6.0385,5.9957,5.9535,5.8991,5.8273,5.7593,5.7553,5.791,5.8402,5.8711,5.9753,6.0898,6.1243,6.1332,6.1204,6.0662,6.053,6.0363,5.9795,5.964,5.9406,5.8476,5.8253,5.8234,5.8178,5.8553,5.8944,5.9225,5.9687,5.984,5.928,5.9493,5.9367,5.8468,5.7898,5.7474,5.7176,5.6357,5.5816,5.5745,5.5682,5.5629,5.5629,5.5629,5.5618,5.5596,5.5562,5.5527,5.5504,5.5504,5.5504,5.5504,5.5504,5.5504,5.5504,5.5456,5.5444,4.6193,4.7472,4.8806,4.8806,5.0098,5.1437,5.1684,5.223,5.2824,5.3345,5.4117,5.4866,5.547,0.0,0.0,0.0,0.0,0.0,0.0,0.0,0.0,0.0,0.0,0.0,0.0,0.0,0.0,0.0,0.0,0.0,0.0,0.0,0.0,0.0,6.1563,6.1563,6.1563,6.1563,6.1563,6.1563,6.1563,6.1573,6.1607,6.1607,6.1583,6.1578,6.1519,6.1484,6.1462,6.1478,6.146,6.1467,6.146,6.1402,6.1304,6.076,6.0513,6.0395,5.982,5.8907,5.7961,5.794,5.8115,5.8406,5.8675,5.9754,6.0957,6.1221,6.1302,6.133,6.1414,6.1441,6.1272,6.0621,6.0471,6.0216,5.9293,5.9066,5.9033,5.8992,5.9399,5.9813,6.0031,6.0569,6.0635,5.9768,5.9622,5.9177,5.7998,5.736,5.6907,5.6618,5.6071,5.5714,5.564,5.5607,5.5585,5.5573,5.5551,5.5539,5.5539,5.5492,5.5456,5.5463,5.5483,5.5483,5.5483,5.5483,5.5483,5.5483,5.5415,5.5409,4.6206,4.7482,4.8795,4.8812,5.0073,5.152,5.2334,5.2563,5.3093,5.4768,5.5799,5.6411,5.6411,0.0,0.0,0.0,0.0,0.0,0.0,0.0,0.0,0.0,0.0,0.0,0.0,0.0,0.0,0.0,0.0,0.0,0.0,0.0,0.0,0.0,6.1503,6.1503,6.1503,6.1503,6.1503,6.1503,6.1503,6.1532,6.1607,6.1607,6.1554,6.1495,6.1489,6.1456,6.1396,6.1396,6.1395,6.1393,6.1337,6.1302,6.1302,6.1302,6.1302,6.1302,6.1378,6.0265,5.8799,5.8799,5.8176,5.7564,5.8448,5.9301,6.02,6.1065,6.1297,6.1297,6.1297,6.1297,6.1297,6.1297,6.1297,6.1037,6.0115,5.9858,5.9804,5.9804,5.9694,5.989,6.0757,6.0846,6.0492,5.9627,5.9415,5.8765,5.7105,5.6836,5.6463,5.56,5.5581,5.5593,5.5523,5.5581,5.5593,5.5504,5.5444,5.5408,5.5408,5.5408,5.5409,5.5403,5.5403,5.5403,5.5403,5.5403,5.5403,5.5403,5.5403,5.5403,4.689,4.788,4.8861,4.9434,0.0,0.0,5.3152,5.3404,5.3925,0.0,5.6227,5.6411,5.6411,0.0,0.0,0.0,0.0,0.0,0.0,0.0,0.0,0.0,0.0,0.0,0.0,0.0,0.0,0.0,0.0,0.0,0.0,0.0,0.0,0.0,6.1503,6.1503,6.1503,6.1503,6.1503,6.1503,6.1503,6.1509,6.1532,6.1532,6.1526,6.1495,6.1458,6.1415,6.1396,6.1342,6.1332,6.1337,6.1318,6.1302,6.1302,6.1302,6.1302,6.1302,6.131,6.0185,5.8735,5.8723,5.8537,5.837,5.8629,5.9697,6.0898,6.115,6.1201,6.1155,6.1099,6.1089,6.1108,6.121,6.1227,6.1133,6.076,6.0655,6.0635,6.0571,6.0547,6.0591,6.0796,6.0292,5.9596,5.8723,5.8047,5.7205,5.5998,5.6357,5.6632,5.6383,5.6949,5.7088,5.647,5.6381,5.6108,5.547,5.5409,5.5396,5.5395,5.5396,5.5396,5.5403,5.5313,5.5261,5.5261,5.5261,5.5261,5.5261,5.5358,5.5358,4.7129,4.7996,4.8852,4.9629,5.1101,5.2673,5.383,0.0,0.0,0.0,0.0,5.6317,0.0,0.0,0.0,0.0,0.0,0.0,0.0,0.0,0.0,0.0,0.0,0.0,0.0,0.0,0.0,0.0,0.0,0.0,0.0,0.0,0.0,0.0,6.146,6.146,6.146,6.146,6.1454,6.1421,6.1421,6.1421,6.1421,6.1485,6.1497,6.146,6.1395,6.1356,6.1368,6.1322,6.1299,6.1291,6.127,6.1253,6.1253,6.1253,6.1253,6.1253,6.1297,6.0378,5.9171,5.9185,5.8933,5.872,5.9063,5.9886,6.0729,6.104,6.1089,6.1061,6.1001,6.101,6.1021,6.1099,6.1118,6.1099,6.0971,6.0939,6.0897,6.0816,6.08,6.0777,6.0746,6.0034,5.9177,5.8323,5.7117,5.6201,5.5919,5.6346,5.6786,5.713,5.7711,5.7698,5.6798,5.6677,5.6276,5.539,5.5307,5.528,5.5281,5.5307,5.5326,5.5326,5.5222,5.5162,5.5162,5.5162,5.5162,5.5162,5.5241,5.5241,4.7198,4.8042,4.8875,4.9621,5.107,0.0,5.4418,5.5505,5.6163,5.6172,0.0,0.0,0.0,0.0,0.0,0.0,0.0,0.0,0.0,0.0,0.0,0.0,0.0,0.0,0.0,0.0,0.0,0.0,0.0,0.0,0.0,0.0,0.0,6.1386,6.1386,6.1386,6.1386,6.1386,6.1371,0.0,6.1295,6.1295,6.1302,6.1428,6.1453,6.1383,6.1332,6.1302,6.1295,6.1294,6.1297,6.1289,6.1219,6.1201,6.1201,6.1201,6.1201,6.1201,6.1253,6.0683,5.9904,5.9904,5.9355,5.8874,5.9648,5.9938,6.0132,6.0819,6.0992,6.1001,6.0978,6.0987,6.0987,6.0976,6.0976,6.0976,6.0911,6.0846,6.0788,6.0717,6.0642,6.0629,6.0673,5.9975,5.9079,5.8196,5.6554,5.5657,5.6409,5.6606,5.7008,5.781,5.8092,5.78,5.6797,5.6721,5.6274,5.526,5.5135,5.5094,5.5094,5.5162,5.5183,5.5183,5.5121,5.5094,5.5094,5.5094,5.5094,5.5094,5.5094,5.5094,4.8027,4.8832,4.964,5.0441,5.1827,5.3436,5.5172,5.5731,5.5923,0.0,0.0,0.0,0.0,0.0,0.0,0.0,0.0,0.0,0.0,0.0,0.0,0.0,0.0,0.0,0.0,0.0,0.0,0.0,0.0,0.0,0.0,0.0,0.0,6.133,6.133,6.133,6.133,6.133,6.1302,0.0,6.1294,6.1294,6.1294,6.1337,6.1332,6.1325,6.131,6.1306,6.1294,6.1245,6.1219,6.1219,6.1155,6.1108,6.1108,6.1108,6.1108,6.1117,6.1146,6.0604,5.9898,5.9898,5.9773,5.9648,5.9775,6.0268,6.0799,6.0951,6.0989,6.0997,6.0944,6.0933,6.088,6.08,6.09,6.0965,6.0846,6.0812,6.0746,6.0635,6.0617,6.0604,6.0617,5.9888,5.8802,5.7238,5.611,5.5454,5.5632,5.6816,5.7695,5.7886,5.9084,5.9243,5.7671,5.7537,5.6861,5.523,5.5107,5.5094,5.5094,5.5107,5.5121,5.5121,5.5071,5.5028,5.5028,5.5028,5.5028,5.5028,5.5066,5.5094,4.8069,4.8692,4.9463,5.1459,0.0,5.3556,5.5267,5.5673,5.5831,0.0,0.0,0.0,0.0,0.0,0.0,0.0,0.0,0.0,0.0,0.0,0.0,0.0,0.0,0.0,0.0,0.0,0.0,0.0,0.0,0.0,0.0,6.1245,6.1272,6.1297,6.1297,6.1297,6.1297,6.1297,6.1289,6.1245,6.1245,6.1245,6.1245,6.1294,6.1291,6.1291,6.1267,6.1242,6.1245,6.1173,6.1155,6.1146,6.1108,6.1099,6.1099,6.1099,6.1099,6.1089,6.1051,6.0771,6.0423,6.0432,6.0423,6.0345,5.9901,6.0045,6.0372,6.0329,6.0338,6.0423,6.0762,6.0846,6.0823,6.0722,6.0788,6.0823,6.0729,6.068,6.0642,6.0565,6.0525,6.0512,6.0552,5.9517,5.8221,5.6894,5.597,5.5536,5.5919,5.7103,5.8058,5.844,5.9597,5.965,5.7948,5.772,5.6906,5.5166,5.5028,5.5,5.5,5.5,5.5028,5.5038,5.4985,5.4941,5.4941,5.4941,5.4941,5.4941,5.4985,5.5,4.7685,4.8208,4.9132,5.2274,5.3023,0.0,5.5097,5.5527,5.5823,0.0,0.0,0.0,0.0,0.0,0.0,0.0,0.0,0.0,0.0,0.0,0.0,0.0,0.0,0.0,0.0,0.0,0.0,0.0,0.0,0.0,6.1173,6.1173,6.121,6.1253,6.1281,6.1281,6.1281,6.1281,6.1236,6.1173,6.1173,6.1173,6.1173,6.1236,6.1261,6.1289,6.1227,6.1182,6.1173,6.1117,6.1099,6.1099,6.1089,6.1089,6.108,6.107,6.109,6.1061,6.1021,6.1011,6.1001,6.1008,6.0987,6.0832,5.9945,5.9675,5.9665,5.9601,5.9579,5.976,6.0569,6.0788,6.0746,6.0673,6.068,6.0648,6.0604,6.0539,6.0499,6.0485,6.0431,6.0417,6.0472,5.9088,5.7749,5.7022,5.6053,5.5651,5.6301,5.7275,5.8154,5.8795,5.9712,5.9612,5.7887,5.76,5.6785,5.5099,5.4916,5.4886,5.4901,5.5019,5.5125,5.5213,5.5139,5.5185,5.5337,5.5337,5.5337,5.5337,5.5337,5.5337,4.7036,4.8094,4.9758,0.0,5.2912,5.3353,0.0,0.0,0.0,0.0,0.0,0.0,0.0,0.0,0.0,0.0,0.0,0.0,0.0,0.0,0.0,0.0,0.0,0.0,0.0,0.0,0.0,0.0,0.0,0.0,6.1108,6.1108,6.1127,6.1137,6.1137,6.1137,6.1137,6.1137,6.1117,6.1108,6.1108,6.1108,6.1108,6.1117,6.1155,6.1219,6.121,6.1164,6.1108,6.1099,6.1099,6.1089,6.1032,6.1012,6.1012,6.1009,6.1018,6.1018,6.1008,6.1008,6.0997,6.0997,6.0987,6.0832,5.9892,5.9612,5.9601,5.9534,5.9504,5.9704,6.0491,6.071,6.0673,6.0565,6.0525,6.0525,6.0512,6.0512,6.0485,6.0417,6.0403,6.0403,6.0403,5.9008,5.7862,5.7766,5.6396,5.5441,5.5556,5.6931,5.7898,5.7886,5.9321,5.9549,5.7703,5.7521,5.6755,5.5011,5.486,5.4845,5.4901,5.5507,5.5904,5.6034,5.6019,5.636,5.7062,5.7062,5.7062,5.7062,5.7062,5.7108,4.7213,4.8296,4.9652,0.0,5.2448,5.3117,5.4339,0.0,0.0,0.0,0.0,0.0,0.0,0.0,0.0,0.0,0.0,0.0,0.0,0.0,0.0,0.0,0.0,0.0,0.0,0.0,0.0,0.0,0.0,6.1099,6.1099,6.1099,6.1099,6.1099,6.1099,6.1099,6.1099,6.1099,6.108,6.1041,6.1041,6.1041,6.105,6.105,6.107,6.1146,6.1099,6.108,6.1032,6.1041,6.105,6.104,6.1,6.099,6.1009,6.0997,6.0987,6.0987,6.0955,6.0944,6.0944,6.0911,6.09,6.0726,5.9826,5.9523,5.9469,5.9446,5.941,5.9585,6.0424,6.0635,6.0629,6.0525,6.0499,6.0485,6.0444,6.0444,6.0431,6.0403,6.0403,6.0236,5.9717,5.8634,5.7666,5.7148,5.6009,5.5227,5.5227,5.6295,5.7196,5.7606,5.8743,5.8931,5.7601,5.7461,5.6698,5.4955,5.4814,5.4991,5.5445,5.5804,5.6478,5.7472,5.7084,5.7043,5.7403,5.7403,5.7403,5.7403,5.7403,5.7418,4.7446,0.0,4.9209,5.1032,5.1942,5.2666,0.0,0.0,0.0,0.0,0.0,0.0,0.0,0.0,0.0,0.0,0.0,0.0,0.0,0.0,0.0,0.0,0.0,0.0,0.0,0.0,0.0,0.0,0.0,6.108,6.108,6.1089,6.1099,6.1099,6.1099,6.1089,6.108,6.1061,6.106,6.1001,6.1001,6.1,6.0987,6.0987,6.1039,6.107,6.1021,6.1001,6.1001,6.0989,6.0987,6.1006,6.0976,6.0976,6.0965,6.0955,6.0955,6.0944,6.0869,6.0846,6.0835,6.0777,6.0753,6.058,5.9715,5.941,5.9374,5.9374,5.9325,5.9498,6.0348,6.0578,6.0565,6.0485,6.0472,6.0458,6.0403,6.0403,6.0403,6.0403,6.0394,6.0156,5.945,5.8449,5.7506,5.6821,5.5779,5.5094,5.5094,5.5855,5.6616,5.7215,5.7988,5.8133,5.7229,5.7111,5.6443,5.4893,5.4783,5.5114,5.588,5.612,5.6962,5.8453,5.814,5.798,5.8028,5.8028,5.8028,5.8028,5.8028,5.8028,0.0,4.787,0.0,5.0886,5.1522,0.0,0.0,0.0,0.0,0.0,0.0,0.0,0.0,0.0,0.0,0.0,0.0,0.0,0.0,0.0,0.0,0.0,0.0,0.0,0.0,0.0,0.0,0.0,0.0,6.1012,6.1012,6.107,6.1099,6.1099,6.1099,6.107,6.1012,6.1009,6.0997,6.0997,6.0997,6.0997,6.0987,6.0987,6.0997,6.0997,6.0997,6.0997,6.0997,6.0997,6.0987,6.0987,6.0933,6.0911,6.0911,6.0835,6.0812,6.08,6.0722,6.0697,6.0697,6.0642,6.0617,6.045,5.9569,5.9319,5.9307,5.9307,5.9307,5.9486,6.0315,6.0512,6.0485,6.0417,6.0403,6.0403,6.0403,6.0403,6.0403,6.0403,6.0352,6.0294,6.0237,5.8768,5.7587,5.753,5.614,5.5094,5.5094,5.5855,5.6378,5.6363,5.7089,5.721,5.6338,5.6247,5.5837,5.4855,5.4755,5.5066,5.588,5.657,5.7399,5.8389,5.9125,5.9587,5.9772,5.9772,5.9772,5.9772,5.9772,5.9772,0.0,0.0,0.0,4.946,5.0602,5.1528,0.0,0.0,0.0,0.0,0.0,0.0,0.0,0.0,0.0,0.0,0.0,0.0,0.0,0.0,0.0,0.0,0.0,0.0,0.0,0.0,0.0,0.0,0.0,0.0,6.1009,6.102,6.103,6.103,6.103,6.102,6.1009,6.0997,6.0955,6.0869,6.0922,6.0877,6.0741,6.0788,6.0788,6.0741,6.0741,6.0788,6.0858,6.0777,6.0741,6.0741,6.0717,6.0704,6.0704,6.068,6.068,6.0667,6.0635,6.0642,6.0642,6.0604,6.0604,6.0546,6.024,6.0079,6.0013,6.0013,5.9911,5.9865,6.0175,6.0237,6.0237,6.0207,6.0207,6.0193,6.0148,6.0182,6.0207,6.0207,6.0197,5.9981,5.9422,5.8802,5.7992,5.6869,5.6122,5.5489,5.4958,5.5136,5.5488,5.5987,5.6292,5.6349,5.6034,5.6015,5.5608,5.466,5.4571,5.516,5.6485,5.6841,5.7666,5.9094,5.943,5.965,5.9719,5.9719,5.9719,5.9719,5.9807,5.9841,4.6226,0.0,0.0,0.0,0.0,5.0553,0.0,0.0,0.0,0.0,0.0,0.0,0.0,0.0,0.0,0.0,0.0,0.0,0.0,0.0,0.0,0.0,0.0,0.0,0.0,0.0,0.0,0.0,0.0,0.0,6.0965,6.0987,6.0987,6.0987,6.0976,6.0965,6.0965,6.0933,6.0835,6.0741,6.0777,6.0717,6.0565,6.0642,6.0642,6.0565,6.0539,6.0617,6.0729,6.0642,6.0604,6.0604,6.0604,6.0604,6.0604,6.0604,6.0604,6.0591,6.0578,6.0552,6.0525,6.0499,6.0472,6.0439,6.0439,6.0356,6.0275,6.0275,6.0148,6.0026,6.0026,6.0026,6.0026,6.0026,6.001,5.9944,5.9883,5.9979,6.0072,6.0041,6.001,5.9773,5.9194,5.8859,5.8278,5.7116,5.6371,5.5772,5.5243,5.4875,5.4899,5.5395,5.5416,5.5419,5.5402,5.5402,5.5107,5.4441,5.4668,5.5423,5.6741,5.7095,5.792,5.9309,5.942,5.9474,5.9474,5.9563,5.9616,5.9597,5.974,5.9826,0.0,0.0,0.0,0.0,0.0,0.0,0.0,0.0,0.0,0.0,0.0,0.0,0.0,0.0,0.0,0.0,0.0,0.0,0.0,0.0,0.0,0.0,0.0,0.0,0.0,0.0,0.0,0.0,0.0,6.0823,6.088,6.0955,6.0987,6.0987,6.0933,6.0911,6.088,6.0746,6.0648,6.0591,6.0591,6.0565,6.0499,6.0565,6.0552,6.0485,6.0417,6.0458,6.0578,6.0591,6.0591,6.0591,6.0591,6.0591,6.0591,6.0591,6.0591,6.0578,6.0512,6.0444,6.0375,6.0308,6.0201,6.0084,6.0084,6.0057,5.9979,5.9979,5.995,5.9885,5.9885,5.9885,5.9885,5.9885,5.9784,5.9664,5.9597,5.9784,5.9947,5.9902,5.9784,5.9698,5.9698,5.9007,5.8429,5.8391,5.7014,5.5939,5.5939,5.5204,5.4678,5.4543,5.4489,5.4455,5.439,5.4373,5.4339,5.4234,5.5021,5.5827,5.6594,5.7378,5.8181,5.8966,5.9139,5.9177,5.9177,5.9474,5.9579,5.9579,5.974,5.9824,4.5235,0.0,0.0,0.0,0.0,0.0,0.0,0.0,0.0,0.0,0.0,0.0,0.0,0.0,0.0,0.0,0.0,0.0,0.0,0.0,0.0,0.0,0.0,0.0,0.0,0.0,0.0,0.0,6.0746,6.0812,6.0823,6.0846,6.0858,6.0858,6.0835,6.0812,6.0765,6.068,6.0578,6.0458,6.042,6.0332,6.0222,6.0275,6.0251,6.0133,6.0122,6.0087,6.0106,6.0193,6.0251,6.0251,6.0251,6.0251,6.0251,6.0251,6.0251,6.0237,6.0222,6.0163,6.0122,6.0091,6.0029,5.9966,5.9966,5.9834,5.97,5.97,5.9597,5.9473,5.9473,5.9473,5.9473,5.9473,5.9436,5.9382,5.9328,5.9365,5.9456,5.9599,5.9582,5.9563,5.9614,5.9427,5.9034,5.8361,5.782,5.7242,5.657,5.5691,5.5113,5.5077,5.4463,5.4054,5.4035,5.3981,5.4205,5.4745,5.5006,5.5788,5.7262,5.7542,5.8084,5.8966,5.9042,5.9062,5.9062,5.929,5.9364,5.9401,5.9581,5.9668,0.0,0.0,0.0,0.0,0.0,0.0,4.9249,4.9812,0.0,0.0,0.0,0.0,0.0,0.0,0.0,0.0,0.0,0.0,0.0,0.0,0.0,0.0,0.0,0.0,0.0,0.0,0.0,6.0697,6.0741,6.0777,6.08,6.08,6.0788,6.0765,6.0765,6.0697,6.0629,6.0487,6.037,6.0226,6.0178,6.0049,5.9944,6.0022,5.9991,5.988,5.9864,5.9834,5.9786,5.9866,5.9947,6.001,6.001,6.001,6.001,6.001,6.001,6.001,6.001,5.9931,5.9834,5.9834,5.9751,5.9649,5.9649,5.9544,5.9438,5.9438,5.9309,5.9178,5.9178,5.9178,5.9178,5.9178,5.9178,5.9158,5.9099,5.904,5.9041,5.9253,5.929,5.929,5.9346,5.9364,5.9158,5.8615,5.8222,5.7773,5.723,5.6332,5.5753,5.5677,5.5153,5.4797,5.4758,5.4698,5.4882,5.5364,5.5697,5.6329,5.7336,5.7747,5.8176,5.8741,5.8782,5.8843,5.8962,5.9158,5.929,5.9401,5.951,5.9581,0.0,0.0,0.0,0.0,0.0,0.0,4.8863,4.9015,4.9235,0.0,0.0,0.0,0.0,0.0,0.0,0.0,0.0,0.0,0.0,0.0,0.0,0.0,0.0,0.0,0.0,5.9868,6.0393,6.0551,6.0563,6.0537,6.0488,6.05,6.0476,6.0416,6.0481,6.0476,6.0351,6.0223,6.0099,5.9963,5.9885,5.9803,5.9664,5.9784,5.9784,5.9662,5.9681,5.9649,5.9581,5.9563,5.9685,5.9872,5.9872,5.9836,5.9836,5.9836,5.9779,5.9704,5.9704,5.9511,5.9263,5.9263,5.9194,5.9103,5.9103,5.914,5.9139,5.9139,5.9061,5.8983,5.8983,5.8983,5.8965,5.8945,5.8945,5.8924,5.8859,5.8737,5.8719,5.8904,5.8925,5.8945,5.8965,5.8983,5.8983,5.8983,5.8348,5.79,5.788,5.7075,5.6455,5.6299,5.616,5.602,5.5897,5.5876,5.5892,5.5984,5.667,5.7113,5.7227,5.7965,5.8371,5.8393,5.8443,5.8614,5.8879,5.908,5.929,5.9457,5.9475,5.9492,0.0,0.0,0.0,0.0,0.0,0.0,4.789,4.791,4.7779,0.0,0.0,0.0,0.0,0.0,0.0,0.0,0.0,0.0,0.0,0.0,0.0,0.0,0.0,0.0,0.0,5.8189,5.8992,5.961,5.9648,5.9348,5.8671,5.8621,5.8621,5.8609,5.9179,5.9446,5.9371,5.9824,5.9944,5.9763,5.965,5.951,5.9382,5.951,5.951,5.9382,5.9492,5.9474,5.9364,5.9309,5.9402,5.9582,5.9582,5.951,5.9419,5.9419,5.9023,5.844,5.844,5.7882,5.7192,5.7192,5.749,5.7856,5.7917,5.8342,5.8799,5.8799,5.8781,5.876,5.876,5.876,5.8739,5.8638,5.8596,5.8574,5.8505,5.848,5.848,5.8505,5.8572,5.8638,5.8739,5.876,5.876,5.876,5.863,5.8477,5.8375,5.7629,5.7087,5.6943,5.6282,5.5846,5.5825,5.5723,5.5934,5.6595,5.6779,5.721,5.7943,5.815,5.8305,5.8393,5.8415,5.8526,5.8737,5.8944,5.9101,5.9272,5.9309,5.9346,0.0,0.0,0.0,4.8207,0.0,0.0,0.0,4.7162,4.6738,4.6329,0.0,0.0,0.0,0.0,0.0,0.0,0.0,0.0,0.0,0.0,0.0,0.0,0.0,0.0,0.0,5.7373,5.835,5.8729,5.8748,5.8563,5.8105,5.808,5.8023,5.8004,5.8284,5.8596,5.8843,5.9046,5.9265,5.9489,5.9327,5.9215,5.914,5.9215,5.9215,5.914,5.8784,5.884,5.9121,5.8689,5.8783,5.9196,5.9234,5.9215,5.914,5.914,5.8653,5.7941,5.7866,5.7247,5.6441,5.6364,5.6525,5.6718,5.6741,5.7355,5.8097,5.8566,5.8716,5.8677,5.8614,5.8614,5.8553,5.8465,5.8462,5.844,5.8415,5.8349,5.8305,5.8305,5.8223,5.8227,5.8505,5.8548,5.8548,5.8548,5.8548,5.8526,5.8462,5.8027,5.7725,5.7659,5.7199,5.6912,5.6912,5.6763,5.6859,5.7281,5.723,5.7413,5.7886,5.7973,5.8065,5.8197,5.8264,5.8375,5.8548,5.8679,5.8884,5.9101,5.912,5.9196,0.0,0.0,0.0,0.0,0.0,4.7169,0.0,0.0,0.0,4.564,0.0,0.0,0.0,0.0,0.0,0.0,0.0,0.0,0.0,0.0,0.0,0.0,0.0,0.0,0.0,5.6364,5.7243,5.7078,5.7365,5.7468,5.7315,5.7385,5.7429,5.7349,5.7395,5.7695,5.8318,5.8272,5.859,5.9234,5.9062,5.8964,5.8925,5.8964,5.8983,5.8946,5.8125,5.8257,5.8928,5.8107,5.8196,5.8899,5.8962,5.8964,5.8906,5.8757,5.8197,5.7432,5.7166,5.649,5.5702,5.5601,5.5611,5.5676,5.5824,5.6536,5.7436,5.8206,5.8524,5.8633,5.8508,5.8486,5.8465,5.8393,5.8371,5.8349,5.8327,5.8219,5.8111,5.8111,5.7927,5.7862,5.8219,5.8264,5.8286,5.8327,5.8349,5.8371,5.8371,5.8264,5.8197,5.8174,5.8042,5.7973,5.7973,5.7839,5.7768,5.7768,5.7673,5.7601,5.7601,5.7721,5.7862,5.7997,5.8129,5.8282,5.8393,5.8465,5.8679,5.8983,5.8983,5.9061,0.0,0.0,0.0,0.0,4.7168,0.0,0.0,0.0,4.4401,4.3688,0.0,0.0,0.0,0.0,0.0,0.0,0.0,0.0,0.0,0.0,0.0,0.0,0.0,0.0,0.0,0.0,5.4224,5.3378,5.4683,5.5191,5.4419,5.5053,5.544,5.5407,5.5987,5.6629,5.7351,5.7873,5.8428,5.9024,5.8961,5.884,5.8739,5.8859,5.892,5.8864,5.8125,5.8257,5.8928,5.8009,5.8136,5.8899,5.8899,5.884,5.8665,5.794,5.708,5.6203,5.5458,5.4521,5.3656,5.3617,5.4133,5.4888,5.5607,5.6464,5.7233,5.7346,5.7882,5.8437,5.8415,5.8415,5.8393,5.8242,5.8219,5.8197,5.8065,5.795,5.7857,5.7857,5.7721,5.7673,5.7839,5.7881,5.7904,5.802,5.8152,5.8219,5.8219,5.8197,5.8133,5.8042,5.7886,5.7815,5.7815,5.7697,5.7625,5.7625,5.7601,5.7601,5.7601,5.7721,5.7862,5.7997,5.8129,5.8282,5.8393,5.8465,5.8656,5.892,5.892,5.8961,0.0,0.0,0.0,0.0,0.0,0.0,0.0,0.0,4.356,0.0,0.0,0.0,0.0,0.0,0.0,0.0,0.0,0.0,0.0,0.0,0.0,0.0,0.0,0.0,0.0,0.0,0.0,0.0,5.318,5.3622,5.3727,5.4088,5.4477,5.4912,5.5129,5.557,5.6252,5.6871,5.751,5.8177,5.8598,5.8716,5.8593,5.8635,5.8654,5.8553,5.7742,5.7877,5.8582,5.7684,5.783,5.8553,5.8108,5.7946,5.7934,5.754,5.6533,5.5342,5.4886,5.4101,5.3279,5.3254,5.349,5.3952,5.4846,5.5386,5.5889,5.6913,5.7433,5.778,5.8086,5.8174,5.8111,5.7886,5.7839,5.7857,5.7768,5.7721,5.7673,5.7673,5.751,5.7406,5.7437,5.7577,5.7697,5.7768,5.7815,5.7839,5.7839,5.7839,5.7815,5.7768,5.7721,5.7673,5.7673,5.7577,5.7461,5.7461,5.7412,5.7455,5.7601,5.7649,5.7768,5.7997,5.8129,5.8282,5.8393,5.8465,5.8593,5.8779,5.8779,5.884,4.8151,0.0,0.0,0.0,0.0,0.0,0.0,0.0,0.0,0.0,0.0,0.0,0.0,0.0,0.0,0.0,0.0,0.0,0.0,0.0,0.0,0.0,0.0,0.0,0.0,0.0,0.0,5.088,5.1126,5.1617,5.246,5.299,5.3618,5.439,5.4487,5.4865,5.5503,5.5903,5.6441,5.7139,5.7911,5.8236,5.8153,5.8375,5.8462,5.8356,5.7488,5.7599,5.8338,5.747,5.7617,5.8338,5.7765,5.7355,5.7017,5.6696,5.5838,5.4759,5.4375,5.3813,5.3274,5.3227,5.3185,5.3316,5.401,5.4341,5.4764,5.6006,5.6669,5.7085,5.7455,5.7739,5.7839,5.7649,5.7601,5.7601,5.7601,5.7577,5.7534,5.7504,5.7289,5.7112,5.7105,5.7264,5.7455,5.7455,5.748,5.7486,5.7553,5.7553,5.7577,5.7601,5.7577,5.7553,5.7553,5.7406,5.7289,5.7289,5.7188,5.7264,5.7601,5.7802,5.8074,5.8373,5.8704,5.8835,5.8725,5.8776,5.8751,5.8612,5.8675,5.8758,0.0,0.0,0.0,4.5366,0.0,0.0,0.0,0.0,4.2649,0.0,0.0,0.0,0.0,0.0,0.0,0.0,0.0,0.0,0.0,0.0,0.0,0.0,0.0,0.0,0.0,0.0,0.0,4.7172,4.7901,4.8739,4.9664,5.1277,5.2551,5.3409,5.4077,5.4698,5.5305,5.5154,5.5348,5.5958,5.6845,5.7248,5.7267,5.8042,5.8393,5.8356,5.7488,5.7599,5.8338,5.747,5.7617,5.8393,5.8375,5.7377,5.5863,5.5069,5.4693,5.4499,5.3649,5.3272,5.3206,5.3185,5.3185,5.3203,5.3243,5.3689,5.4224,5.4279,5.5327,5.6445,5.6439,5.7023,5.7625,5.7601,5.7601,5.7601,5.7601,5.7504,5.7381,5.7239,5.7105,5.6977,5.6847,5.6925,5.7028,5.7028,5.713,5.7264,5.7406,5.7406,5.7455,5.7601,5.7461,5.7406,5.7406,5.7163,5.7028,5.7028,5.7003,5.7163,5.7577,5.8349,5.8939,5.9357,6.013,6.0195,5.9556,5.9556,5.9172,5.8415,5.8612,5.8698,0.0,0.0,4.5096,4.4265,0.0,0.0,0.0,0.0,0.0,0.0,0.0,0.0,0.0,0.0,0.0,0.0,0.0,0.0,0.0,0.0,0.0,0.0,0.0,0.0,0.0,0.0,0.0,4.6635,4.6987,4.7785,4.9268,4.9912,5.111,5.3009,5.3297,5.3698,5.4298,5.4721,5.499,5.5127,5.5937,5.6535,5.6934,5.721,5.7524,5.7844,5.7569,5.7652,5.7978,5.7685,5.774,5.7941,5.7428,5.6877,5.629,5.5656,5.4704,5.3684,5.3343,5.3227,5.3185,5.3185,5.3185,5.3185,5.3185,5.3305,5.3529,5.406,5.4501,5.5048,5.6011,5.6461,5.6782,5.7229,5.7356,5.7356,5.7356,5.7232,5.7112,5.7079,5.6899,5.6715,5.668,5.6626,5.6662,5.6847,5.6899,5.6951,5.7003,5.6984,5.7036,5.7206,5.7163,5.7163,5.7264,5.7163,5.7087,5.7003,5.7181,5.7381,5.7601,5.8458,5.9071,5.9394,6.0278,6.0619,6.0387,5.996,5.9553,5.9169,5.8721,5.8483,4.6034,4.5061,0.0,4.3444,4.269,0.0,4.2058,0.0,0.0,0.0,0.0,0.0,0.0,0.0,0.0,0.0,0.0,0.0,0.0,4.0099,0.0,0.0,0.0,0.0,0.0,0.0,4.3547,4.4671,4.5005,4.5797,0.0,0.0,4.9571,5.1425,5.2322,5.2958,5.3252,5.3969,5.4254,5.411,5.492,5.5474,5.5806,5.6099,5.6575,5.7163,5.7163,5.7375,5.7721,5.7721,5.7721,5.7666,5.7154,5.6789,5.6428,5.5552,5.4412,5.3254,5.3227,5.3185,5.3185,5.3185,5.3185,5.3185,5.3124,5.3039,5.3043,5.3511,5.3745,5.4181,5.5414,5.5916,5.6315,5.7032,5.7188,5.7206,5.7138,5.7079,5.6977,5.6873,5.6715,5.6573,5.6546,5.6455,5.6465,5.6626,5.6653,5.6662,5.6715,5.6715,5.6768,5.6925,5.6977,5.7036,5.7112,5.713,5.7087,5.7003,5.7206,5.7412,5.7601,5.8811,5.9612,5.9886,6.1066,6.1537,6.1287,6.0492,5.9893,5.9512,5.8651,5.826]}]]